<?xml version='1.0' encoding='UTF-8'?>
<gpx version="1.1" creator="https://www.komoot.de" xmlns="http://www.topografix.com/GPX/1/1" xmlns:xsi="http://www.w3.org/2001/XMLSchema-instance" xsi:schemaLocation="http://www.topografix.com/GPX/1/1 http://www.topografix.com/GPX/1/1/gpx.xsd">
  <metadata>
    <name>58_900SulzchopfWindent</name>
    <author>
      <link href="https://www.komoot.de">
        <text>komoot</text>
        <type>text/html</type>
      </link>
    </author>
  </metadata>
  <trk>
    <name>58_900SulzchopfWindent</name>
    <trkseg>
      <trkpt lat="47.541235" lon="7.870936">
        <ele>339.216621</ele>
        <time>2021-11-14T21:15:19.178Z</time>
      </trkpt>
      <trkpt lat="47.541410" lon="7.870791">
        <ele>339.216621</ele>
        <time>2021-11-14T21:15:22.294Z</time>
      </trkpt>
      <trkpt lat="47.541576" lon="7.870664">
        <ele>339.216621</ele>
        <time>2021-11-14T21:15:24.730Z</time>
      </trkpt>
      <trkpt lat="47.541550" lon="7.870601">
        <ele>339.216621</ele>
        <time>2021-11-14T21:15:25.528Z</time>
      </trkpt>
      <trkpt lat="47.541521" lon="7.870517">
        <ele>339.216621</ele>
        <time>2021-11-14T21:15:26.568Z</time>
      </trkpt>
      <trkpt lat="47.541606" lon="7.870424">
        <ele>339.216621</ele>
        <time>2021-11-14T21:15:28.232Z</time>
      </trkpt>
      <trkpt lat="47.541910" lon="7.870106">
        <ele>339.147523</ele>
        <time>2021-11-14T21:15:33.894Z</time>
      </trkpt>
      <trkpt lat="47.542014" lon="7.870126">
        <ele>339.056242</ele>
        <time>2021-11-14T21:15:35.364Z</time>
      </trkpt>
      <trkpt lat="47.542118" lon="7.870135">
        <ele>338.965565</ele>
        <time>2021-11-14T21:15:37.080Z</time>
      </trkpt>
      <trkpt lat="47.542181" lon="7.870131">
        <ele>338.910679</ele>
        <time>2021-11-14T21:15:37.956Z</time>
      </trkpt>
      <trkpt lat="47.542317" lon="7.870012">
        <ele>338.773196</ele>
        <time>2021-11-14T21:15:40.077Z</time>
      </trkpt>
      <trkpt lat="47.542348" lon="7.869983">
        <ele>338.741284</ele>
        <time>2021-11-14T21:15:40.515Z</time>
      </trkpt>
      <trkpt lat="47.542329" lon="7.869820">
        <ele>338.644093</ele>
        <time>2021-11-14T21:15:42.271Z</time>
      </trkpt>
      <trkpt lat="47.542372" lon="7.869746">
        <ele>338.586724</ele>
        <time>2021-11-14T21:15:43.088Z</time>
      </trkpt>
      <trkpt lat="47.542657" lon="7.869354">
        <ele>338.248218</ele>
        <time>2021-11-14T21:15:47.890Z</time>
      </trkpt>
      <trkpt lat="47.542696" lon="7.869257">
        <ele>338.181881</ele>
        <time>2021-11-14T21:15:48.825Z</time>
      </trkpt>
      <trkpt lat="47.542722" lon="7.869201">
        <ele>338.141947</ele>
        <time>2021-11-14T21:15:49.416Z</time>
      </trkpt>
      <trkpt lat="47.543049" lon="7.868759">
        <ele>337.756649</ele>
        <time>2021-11-14T21:15:54.329Z</time>
      </trkpt>
      <trkpt lat="47.543105" lon="7.868711">
        <ele>337.700335</ele>
        <time>2021-11-14T21:15:55.067Z</time>
      </trkpt>
      <trkpt lat="47.543201" lon="7.868657">
        <ele>337.587702</ele>
        <time>2021-11-14T21:15:56.146Z</time>
      </trkpt>
      <trkpt lat="47.543657" lon="7.868359">
        <ele>336.902433</ele>
        <time>2021-11-14T21:16:01.941Z</time>
      </trkpt>
      <trkpt lat="47.543801" lon="7.868269">
        <ele>336.687542</ele>
        <time>2021-11-14T21:16:04.421Z</time>
      </trkpt>
      <trkpt lat="47.544214" lon="7.867988">
        <ele>336.062665</ele>
        <time>2021-11-14T21:16:12.037Z</time>
      </trkpt>
      <trkpt lat="47.544246" lon="7.867967">
        <ele>336.014543</ele>
        <time>2021-11-14T21:16:12.634Z</time>
      </trkpt>
      <trkpt lat="47.544410" lon="7.867825">
        <ele>335.753363</ele>
        <time>2021-11-14T21:16:15.887Z</time>
      </trkpt>
      <trkpt lat="47.544469" lon="7.867776">
        <ele>335.660363</ele>
        <time>2021-11-14T21:16:16.909Z</time>
      </trkpt>
      <trkpt lat="47.544568" lon="7.867693">
        <ele>335.503958</ele>
        <time>2021-11-14T21:16:18.836Z</time>
      </trkpt>
      <trkpt lat="47.545003" lon="7.867278">
        <ele>335.315838</ele>
        <time>2021-11-14T21:16:27.684Z</time>
      </trkpt>
      <trkpt lat="47.545160" lon="7.866985">
        <ele>335.439954</ele>
        <time>2021-11-14T21:16:32.335Z</time>
      </trkpt>
      <trkpt lat="47.545240" lon="7.866887">
        <ele>335.490977</ele>
        <time>2021-11-14T21:16:34.608Z</time>
      </trkpt>
      <trkpt lat="47.546096" lon="7.866147">
        <ele>335.978107</ele>
        <time>2021-11-14T21:16:59.678Z</time>
      </trkpt>
      <trkpt lat="47.546327" lon="7.865959">
        <ele>336.086972</ele>
        <time>2021-11-14T21:17:06.099Z</time>
      </trkpt>
      <trkpt lat="47.546510" lon="7.865766">
        <ele>336.147258</ele>
        <time>2021-11-14T21:17:12.485Z</time>
      </trkpt>
      <trkpt lat="47.546819" lon="7.865489">
        <ele>336.244186</ele>
        <time>2021-11-14T21:17:20.638Z</time>
      </trkpt>
      <trkpt lat="47.546889" lon="7.865225">
        <ele>336.295567</ele>
        <time>2021-11-14T21:17:24.425Z</time>
      </trkpt>
      <trkpt lat="47.546894" lon="7.864837">
        <ele>336.365866</ele>
        <time>2021-11-14T21:17:29.602Z</time>
      </trkpt>
      <trkpt lat="47.546885" lon="7.864500">
        <ele>336.426961</ele>
        <time>2021-11-14T21:17:35.241Z</time>
      </trkpt>
      <trkpt lat="47.546974" lon="7.864423">
        <ele>336.454621</ele>
        <time>2021-11-14T21:17:36.829Z</time>
      </trkpt>
      <trkpt lat="47.547320" lon="7.863864">
        <ele>336.281981</ele>
        <time>2021-11-14T21:17:46.754Z</time>
      </trkpt>
      <trkpt lat="47.547568" lon="7.863151">
        <ele>335.472919</ele>
        <time>2021-11-14T21:17:55.767Z</time>
      </trkpt>
      <trkpt lat="47.547930" lon="7.861711">
        <ele>333.922959</ele>
        <time>2021-11-14T21:18:12.141Z</time>
      </trkpt>
      <trkpt lat="47.548049" lon="7.860929">
        <ele>333.206655</ele>
        <time>2021-11-14T21:18:20.840Z</time>
      </trkpt>
      <trkpt lat="47.548334" lon="7.859801">
        <ele>332.142744</ele>
        <time>2021-11-14T21:18:34.322Z</time>
      </trkpt>
      <trkpt lat="47.548611" lon="7.858381">
        <ele>331.375259</ele>
        <time>2021-11-14T21:18:52.278Z</time>
      </trkpt>
      <trkpt lat="47.548686" lon="7.857973">
        <ele>331.303571</ele>
        <time>2021-11-14T21:18:57.667Z</time>
      </trkpt>
      <trkpt lat="47.548701" lon="7.857893">
        <ele>331.289495</ele>
        <time>2021-11-14T21:18:58.788Z</time>
      </trkpt>
      <trkpt lat="47.548743" lon="7.857692">
        <ele>331.253823</ele>
        <time>2021-11-14T21:19:01.562Z</time>
      </trkpt>
      <trkpt lat="47.548887" lon="7.857308">
        <ele>331.179350</ele>
        <time>2021-11-14T21:19:07.596Z</time>
      </trkpt>
      <trkpt lat="47.549362" lon="7.855774">
        <ele>331.346683</ele>
        <time>2021-11-14T21:19:31.640Z</time>
      </trkpt>
      <trkpt lat="47.549566" lon="7.855225">
        <ele>331.545199</ele>
        <time>2021-11-14T21:19:40.933Z</time>
      </trkpt>
      <trkpt lat="47.549883" lon="7.854434">
        <ele>331.836597</ele>
        <time>2021-11-14T21:19:55.274Z</time>
      </trkpt>
      <trkpt lat="47.550221" lon="7.853833">
        <ele>332.065720</ele>
        <time>2021-11-14T21:20:04.755Z</time>
      </trkpt>
      <trkpt lat="47.549708" lon="7.853279">
        <ele>332.334198</ele>
        <time>2021-11-14T21:20:18.662Z</time>
      </trkpt>
      <trkpt lat="47.549285" lon="7.852784">
        <ele>332.562167</ele>
        <time>2021-11-14T21:20:30.086Z</time>
      </trkpt>
      <trkpt lat="47.549535" lon="7.852225">
        <ele>332.539357</ele>
        <time>2021-11-14T21:20:39.790Z</time>
      </trkpt>
      <trkpt lat="47.549652" lon="7.851969">
        <ele>332.433616</ele>
        <time>2021-11-14T21:20:44.190Z</time>
      </trkpt>
      <trkpt lat="47.550009" lon="7.851173">
        <ele>332.106748</ele>
        <time>2021-11-14T21:20:56.536Z</time>
      </trkpt>
      <trkpt lat="47.550333" lon="7.850434">
        <ele>331.805357</ele>
        <time>2021-11-14T21:21:06.784Z</time>
      </trkpt>
      <trkpt lat="47.550488" lon="7.850081">
        <ele>331.512088</ele>
        <time>2021-11-14T21:21:11.496Z</time>
      </trkpt>
      <trkpt lat="47.550708" lon="7.849579">
        <ele>330.940970</ele>
        <time>2021-11-14T21:21:18.148Z</time>
      </trkpt>
      <trkpt lat="47.550810" lon="7.849346">
        <ele>330.675976</ele>
        <time>2021-11-14T21:21:21.228Z</time>
      </trkpt>
      <trkpt lat="47.550975" lon="7.849066">
        <ele>330.321304</ele>
        <time>2021-11-14T21:21:25.470Z</time>
      </trkpt>
      <trkpt lat="47.551242" lon="7.848702">
        <ele>329.808359</ele>
        <time>2021-11-14T21:21:29.714Z</time>
      </trkpt>
      <trkpt lat="47.551669" lon="7.848083">
        <ele>328.942057</ele>
        <time>2021-11-14T21:21:36.555Z</time>
      </trkpt>
      <trkpt lat="47.551196" lon="7.847517">
        <ele>328.003960</ele>
        <time>2021-11-14T21:21:43.422Z</time>
      </trkpt>
      <trkpt lat="47.551184" lon="7.847206">
        <ele>327.679564</ele>
        <time>2021-11-14T21:21:45.792Z</time>
      </trkpt>
      <trkpt lat="47.551205" lon="7.846694">
        <ele>327.145397</ele>
        <time>2021-11-14T21:21:49.720Z</time>
      </trkpt>
      <trkpt lat="47.551344" lon="7.844621">
        <ele>325.408223</ele>
        <time>2021-11-14T21:22:06.334Z</time>
      </trkpt>
      <trkpt lat="47.551454" lon="7.842815">
        <ele>324.183362</ele>
        <time>2021-11-14T21:22:21.523Z</time>
      </trkpt>
      <trkpt lat="47.551668" lon="7.842770">
        <ele>324.008894</ele>
        <time>2021-11-14T21:22:25.595Z</time>
      </trkpt>
      <trkpt lat="47.551670" lon="7.842769">
        <ele>324.007190</ele>
        <time>2021-11-14T21:22:25.652Z</time>
      </trkpt>
      <trkpt lat="47.551922" lon="7.842704">
        <ele>323.800721</ele>
        <time>2021-11-14T21:22:30.243Z</time>
      </trkpt>
      <trkpt lat="47.552380" lon="7.842592">
        <ele>323.426031</ele>
        <time>2021-11-14T21:22:38.686Z</time>
      </trkpt>
      <trkpt lat="47.552833" lon="7.842495">
        <ele>323.056580</ele>
        <time>2021-11-14T21:22:46.660Z</time>
      </trkpt>
      <trkpt lat="47.553133" lon="7.842431">
        <ele>322.630408</ele>
        <time>2021-11-14T21:22:51.912Z</time>
      </trkpt>
      <trkpt lat="47.553123" lon="7.842222">
        <ele>322.419715</ele>
        <time>2021-11-14T21:22:53.491Z</time>
      </trkpt>
      <trkpt lat="47.553216" lon="7.841849">
        <ele>322.019858</ele>
        <time>2021-11-14T21:22:56.701Z</time>
      </trkpt>
      <trkpt lat="47.553231" lon="7.841529">
        <ele>321.697299</ele>
        <time>2021-11-14T21:22:59.192Z</time>
      </trkpt>
      <trkpt lat="47.552939" lon="7.839526">
        <ele>319.614911</ele>
        <time>2021-11-14T21:23:14.730Z</time>
      </trkpt>
      <trkpt lat="47.552802" lon="7.839009">
        <ele>319.039267</ele>
        <time>2021-11-14T21:23:19.053Z</time>
      </trkpt>
      <trkpt lat="47.552736" lon="7.838578">
        <ele>318.581220</ele>
        <time>2021-11-14T21:23:22.489Z</time>
      </trkpt>
      <trkpt lat="47.552703" lon="7.838146">
        <ele>318.130632</ele>
        <time>2021-11-14T21:23:25.908Z</time>
      </trkpt>
      <trkpt lat="47.552697" lon="7.838068">
        <ele>318.049268</ele>
        <time>2021-11-14T21:23:26.506Z</time>
      </trkpt>
      <trkpt lat="47.552719" lon="7.836790">
        <ele>316.646829</ele>
        <time>2021-11-14T21:23:36.542Z</time>
      </trkpt>
      <trkpt lat="47.552714" lon="7.835010">
        <ele>314.635861</ele>
        <time>2021-11-14T21:23:50.284Z</time>
      </trkpt>
      <trkpt lat="47.552700" lon="7.833938">
        <ele>312.688315</ele>
        <time>2021-11-14T21:23:57.851Z</time>
      </trkpt>
      <trkpt lat="47.552696" lon="7.833789">
        <ele>312.411929</ele>
        <time>2021-11-14T21:23:58.847Z</time>
      </trkpt>
      <trkpt lat="47.552452" lon="7.833284">
        <ele>311.260790</ele>
        <time>2021-11-14T21:24:03.173Z</time>
      </trkpt>
      <trkpt lat="47.552467" lon="7.833198">
        <ele>311.096154</ele>
        <time>2021-11-14T21:24:03.784Z</time>
      </trkpt>
      <trkpt lat="47.552511" lon="7.833072">
        <ele>310.833207</ele>
        <time>2021-11-14T21:24:04.792Z</time>
      </trkpt>
      <trkpt lat="47.552556" lon="7.832977">
        <ele>310.618087</ele>
        <time>2021-11-14T21:24:05.608Z</time>
      </trkpt>
      <trkpt lat="47.552616" lon="7.832891">
        <ele>310.388829</ele>
        <time>2021-11-14T21:24:06.414Z</time>
      </trkpt>
      <trkpt lat="47.552649" lon="7.832760">
        <ele>310.129662</ele>
        <time>2021-11-14T21:24:07.396Z</time>
      </trkpt>
      <trkpt lat="47.552690" lon="7.832598">
        <ele>309.808982</ele>
        <time>2021-11-14T21:24:08.615Z</time>
      </trkpt>
      <trkpt lat="47.552645" lon="7.830686">
        <ele>306.133594</ele>
        <time>2021-11-14T21:24:21.737Z</time>
      </trkpt>
      <trkpt lat="47.552554" lon="7.829266">
        <ele>303.868331</ele>
        <time>2021-11-14T21:24:32.025Z</time>
      </trkpt>
      <trkpt lat="47.552416" lon="7.828822">
        <ele>303.331857</ele>
        <time>2021-11-14T21:24:35.689Z</time>
      </trkpt>
      <trkpt lat="47.552404" lon="7.828582">
        <ele>303.067737</ele>
        <time>2021-11-14T21:24:37.603Z</time>
      </trkpt>
      <trkpt lat="47.552421" lon="7.828481">
        <ele>302.953496</ele>
        <time>2021-11-14T21:24:38.359Z</time>
      </trkpt>
      <trkpt lat="47.552477" lon="7.828294">
        <ele>302.728970</ele>
        <time>2021-11-14T21:24:39.934Z</time>
      </trkpt>
      <trkpt lat="47.552515" lon="7.828094">
        <ele>302.500940</ele>
        <time>2021-11-14T21:24:41.653Z</time>
      </trkpt>
      <trkpt lat="47.552491" lon="7.827227">
        <ele>301.566490</ele>
        <time>2021-11-14T21:24:48.560Z</time>
      </trkpt>
      <trkpt lat="47.552567" lon="7.824508">
        <ele>300.257441</ele>
        <time>2021-11-14T21:25:12.408Z</time>
      </trkpt>
      <trkpt lat="47.552896" lon="7.820699">
        <ele>298.371999</ele>
        <time>2021-11-14T21:25:45.147Z</time>
      </trkpt>
      <trkpt lat="47.552948" lon="7.819358">
        <ele>297.749143</ele>
        <time>2021-11-14T21:25:56.686Z</time>
      </trkpt>
      <trkpt lat="47.552844" lon="7.816432">
        <ele>297.497584</ele>
        <time>2021-11-14T21:26:24.901Z</time>
      </trkpt>
      <trkpt lat="47.552813" lon="7.815608">
        <ele>297.758852</ele>
        <time>2021-11-14T21:26:34.166Z</time>
      </trkpt>
      <trkpt lat="47.552711" lon="7.812955">
        <ele>298.684864</ele>
        <time>2021-11-14T21:27:05.359Z</time>
      </trkpt>
      <trkpt lat="47.552566" lon="7.810386">
        <ele>299.753897</ele>
        <time>2021-11-14T21:27:34.877Z</time>
      </trkpt>
      <trkpt lat="47.552398" lon="7.808880">
        <ele>300.427432</ele>
        <time>2021-11-14T21:27:53.358Z</time>
      </trkpt>
      <trkpt lat="47.552068" lon="7.806445">
        <ele>300.912186</ele>
        <time>2021-11-14T21:28:21.698Z</time>
      </trkpt>
      <trkpt lat="47.552015" lon="7.806307">
        <ele>300.939672</ele>
        <time>2021-11-14T21:28:23.421Z</time>
      </trkpt>
      <trkpt lat="47.551895" lon="7.806278">
        <ele>300.970857</ele>
        <time>2021-11-14T21:28:24.730Z</time>
      </trkpt>
      <trkpt lat="47.551651" lon="7.806246">
        <ele>300.815716</ele>
        <time>2021-11-14T21:28:28.492Z</time>
      </trkpt>
      <trkpt lat="47.551671" lon="7.806117">
        <ele>300.747345</ele>
        <time>2021-11-14T21:28:29.807Z</time>
      </trkpt>
      <trkpt lat="47.551681" lon="7.805477">
        <ele>300.416662</ele>
        <time>2021-11-14T21:28:37.505Z</time>
      </trkpt>
      <trkpt lat="47.551709" lon="7.805000">
        <ele>300.169337</ele>
        <time>2021-11-14T21:28:43.144Z</time>
      </trkpt>
      <trkpt lat="47.551731" lon="7.804667">
        <ele>299.996502</ele>
        <time>2021-11-14T21:28:47.729Z</time>
      </trkpt>
      <trkpt lat="47.551744" lon="7.804473">
        <ele>299.895799</ele>
        <time>2021-11-14T21:28:49.725Z</time>
      </trkpt>
      <trkpt lat="47.551741" lon="7.804294">
        <ele>299.803307</ele>
        <time>2021-11-14T21:28:52.060Z</time>
      </trkpt>
      <trkpt lat="47.551692" lon="7.803510">
        <ele>299.394565</ele>
        <time>2021-11-14T21:29:01.190Z</time>
      </trkpt>
      <trkpt lat="47.551751" lon="7.803369">
        <ele>299.308023</ele>
        <time>2021-11-14T21:29:03.125Z</time>
      </trkpt>
      <trkpt lat="47.551744" lon="7.803277">
        <ele>299.259727</ele>
        <time>2021-11-14T21:29:03.920Z</time>
      </trkpt>
      <trkpt lat="47.551732" lon="7.803125">
        <ele>299.179895</ele>
        <time>2021-11-14T21:29:05.317Z</time>
      </trkpt>
      <trkpt lat="47.551700" lon="7.802648">
        <ele>298.929841</ele>
        <time>2021-11-14T21:29:09.663Z</time>
      </trkpt>
      <trkpt lat="47.551688" lon="7.802394">
        <ele>298.797016</ele>
        <time>2021-11-14T21:29:12.057Z</time>
      </trkpt>
      <trkpt lat="47.551679" lon="7.802228">
        <ele>298.710143</ele>
        <time>2021-11-14T21:29:13.551Z</time>
      </trkpt>
      <trkpt lat="47.551671" lon="7.802077">
        <ele>298.631131</ele>
        <time>2021-11-14T21:29:15.111Z</time>
      </trkpt>
      <trkpt lat="47.551669" lon="7.801853">
        <ele>298.514270</ele>
        <time>2021-11-14T21:29:17.094Z</time>
      </trkpt>
      <trkpt lat="47.551666" lon="7.801632">
        <ele>298.398962</ele>
        <time>2021-11-14T21:29:19.068Z</time>
      </trkpt>
      <trkpt lat="47.551669" lon="7.801438">
        <ele>298.297734</ele>
        <time>2021-11-14T21:29:20.570Z</time>
      </trkpt>
      <trkpt lat="47.551672" lon="7.801147">
        <ele>297.980151</ele>
        <time>2021-11-14T21:29:23.034Z</time>
      </trkpt>
      <trkpt lat="47.551704" lon="7.800451">
        <ele>296.706196</ele>
        <time>2021-11-14T21:29:28.458Z</time>
      </trkpt>
      <trkpt lat="47.551712" lon="7.800249">
        <ele>296.336677</ele>
        <time>2021-11-14T21:29:29.899Z</time>
      </trkpt>
      <trkpt lat="47.551754" lon="7.799766">
        <ele>295.447350</ele>
        <time>2021-11-14T21:29:33.241Z</time>
      </trkpt>
      <trkpt lat="47.551793" lon="7.799434">
        <ele>294.831951</ele>
        <time>2021-11-14T21:29:35.583Z</time>
      </trkpt>
      <trkpt lat="47.551805" lon="7.799326">
        <ele>294.632071</ele>
        <time>2021-11-14T21:29:36.283Z</time>
      </trkpt>
      <trkpt lat="47.551948" lon="7.798607">
        <ele>293.224758</ele>
        <time>2021-11-14T21:29:41.366Z</time>
      </trkpt>
      <trkpt lat="47.552084" lon="7.798083">
        <ele>291.720266</ele>
        <time>2021-11-14T21:29:44.991Z</time>
      </trkpt>
      <trkpt lat="47.552152" lon="7.797876">
        <ele>291.103319</ele>
        <time>2021-11-14T21:29:46.450Z</time>
      </trkpt>
      <trkpt lat="47.552493" lon="7.797048">
        <ele>288.503937</ele>
        <time>2021-11-14T21:29:52.677Z</time>
      </trkpt>
      <trkpt lat="47.552762" lon="7.796425">
        <ele>286.521982</ele>
        <time>2021-11-14T21:29:57.635Z</time>
      </trkpt>
      <trkpt lat="47.552808" lon="7.796270">
        <ele>286.142793</ele>
        <time>2021-11-14T21:29:58.844Z</time>
      </trkpt>
      <trkpt lat="47.552817" lon="7.796239">
        <ele>286.102081</ele>
        <time>2021-11-14T21:29:59.059Z</time>
      </trkpt>
      <trkpt lat="47.552886" lon="7.795976">
        <ele>285.761665</ele>
        <time>2021-11-14T21:30:01.048Z</time>
      </trkpt>
      <trkpt lat="47.552930" lon="7.795600">
        <ele>285.301287</ele>
        <time>2021-11-14T21:30:03.953Z</time>
      </trkpt>
      <trkpt lat="47.552917" lon="7.795354">
        <ele>285.003601</ele>
        <time>2021-11-14T21:30:05.859Z</time>
      </trkpt>
      <trkpt lat="47.552909" lon="7.795229">
        <ele>284.852123</ele>
        <time>2021-11-14T21:30:06.887Z</time>
      </trkpt>
      <trkpt lat="47.552892" lon="7.795106">
        <ele>284.700655</ele>
        <time>2021-11-14T21:30:07.783Z</time>
      </trkpt>
      <trkpt lat="47.552861" lon="7.794992">
        <ele>284.552381</ele>
        <time>2021-11-14T21:30:08.663Z</time>
      </trkpt>
      <trkpt lat="47.552837" lon="7.794925">
        <ele>284.460872</ele>
        <time>2021-11-14T21:30:09.236Z</time>
      </trkpt>
      <trkpt lat="47.552826" lon="7.794894">
        <ele>284.418619</ele>
        <time>2021-11-14T21:30:09.501Z</time>
      </trkpt>
      <trkpt lat="47.552786" lon="7.794796">
        <ele>284.280452</ele>
        <time>2021-11-14T21:30:10.378Z</time>
      </trkpt>
      <trkpt lat="47.552763" lon="7.794750">
        <ele>284.211387</ele>
        <time>2021-11-14T21:30:10.944Z</time>
      </trkpt>
      <trkpt lat="47.552747" lon="7.794717">
        <ele>284.162367</ele>
        <time>2021-11-14T21:30:11.220Z</time>
      </trkpt>
      <trkpt lat="47.552644" lon="7.794507">
        <ele>283.849185</ele>
        <time>2021-11-14T21:30:13.172Z</time>
      </trkpt>
      <trkpt lat="47.552532" lon="7.794285">
        <ele>283.514804</ele>
        <time>2021-11-14T21:30:15.371Z</time>
      </trkpt>
      <trkpt lat="47.552494" lon="7.794200">
        <ele>283.391802</ele>
        <time>2021-11-14T21:30:16.173Z</time>
      </trkpt>
      <trkpt lat="47.552384" lon="7.793915">
        <ele>282.995720</ele>
        <time>2021-11-14T21:30:18.891Z</time>
      </trkpt>
      <trkpt lat="47.552369" lon="7.793872">
        <ele>282.973310</ele>
        <time>2021-11-14T21:30:19.529Z</time>
      </trkpt>
      <trkpt lat="47.552292" lon="7.793607">
        <ele>282.868834</ele>
        <time>2021-11-14T21:30:21.931Z</time>
      </trkpt>
      <trkpt lat="47.552233" lon="7.793294">
        <ele>282.751155</ele>
        <time>2021-11-14T21:30:25.411Z</time>
      </trkpt>
      <trkpt lat="47.552216" lon="7.793160">
        <ele>282.701782</ele>
        <time>2021-11-14T21:30:26.551Z</time>
      </trkpt>
      <trkpt lat="47.552198" lon="7.792976">
        <ele>282.634456</ele>
        <time>2021-11-14T21:30:28.263Z</time>
      </trkpt>
      <trkpt lat="47.552184" lon="7.792540">
        <ele>282.476395</ele>
        <time>2021-11-14T21:30:32.672Z</time>
      </trkpt>
      <trkpt lat="47.552180" lon="7.792294">
        <ele>282.387289</ele>
        <time>2021-11-14T21:30:35.190Z</time>
      </trkpt>
      <trkpt lat="47.552182" lon="7.792040">
        <ele>282.295305</ele>
        <time>2021-11-14T21:30:37.356Z</time>
      </trkpt>
      <trkpt lat="47.552201" lon="7.791031">
        <ele>281.881862</ele>
        <time>2021-11-14T21:30:45.854Z</time>
      </trkpt>
      <trkpt lat="47.552135" lon="7.790302">
        <ele>281.479608</ele>
        <time>2021-11-14T21:30:52.282Z</time>
      </trkpt>
      <trkpt lat="47.552036" lon="7.789826">
        <ele>281.207207</ele>
        <time>2021-11-14T21:30:56.612Z</time>
      </trkpt>
      <trkpt lat="47.551858" lon="7.788906">
        <ele>280.683800</ele>
        <time>2021-11-14T21:31:04.643Z</time>
      </trkpt>
      <trkpt lat="47.551712" lon="7.788013">
        <ele>280.015996</ele>
        <time>2021-11-14T21:31:12.144Z</time>
      </trkpt>
      <trkpt lat="47.551694" lon="7.787879">
        <ele>279.909190</ele>
        <time>2021-11-14T21:31:13.258Z</time>
      </trkpt>
      <trkpt lat="47.551690" lon="7.787827">
        <ele>279.868277</ele>
        <time>2021-11-14T21:31:13.685Z</time>
      </trkpt>
      <trkpt lat="47.551672" lon="7.787603">
        <ele>279.691932</ele>
        <time>2021-11-14T21:31:15.438Z</time>
      </trkpt>
      <trkpt lat="47.551498" lon="7.785081">
        <ele>277.958636</ele>
        <time>2021-11-14T21:31:35.867Z</time>
      </trkpt>
      <trkpt lat="47.551479" lon="7.784929">
        <ele>277.876648</ele>
        <time>2021-11-14T21:31:37.122Z</time>
      </trkpt>
      <trkpt lat="47.551510" lon="7.784910">
        <ele>277.850285</ele>
        <time>2021-11-14T21:31:37.594Z</time>
      </trkpt>
      <trkpt lat="47.551531" lon="7.784884">
        <ele>277.828780</ele>
        <time>2021-11-14T21:31:37.946Z</time>
      </trkpt>
      <trkpt lat="47.551548" lon="7.784841">
        <ele>277.802349</ele>
        <time>2021-11-14T21:31:38.410Z</time>
      </trkpt>
      <trkpt lat="47.551554" lon="7.784788">
        <ele>277.773847</ele>
        <time>2021-11-14T21:31:38.880Z</time>
      </trkpt>
      <trkpt lat="47.551547" lon="7.784737">
        <ele>277.746244</ele>
        <time>2021-11-14T21:31:39.328Z</time>
      </trkpt>
      <trkpt lat="47.551525" lon="7.784691">
        <ele>277.716342</ele>
        <time>2021-11-14T21:31:39.835Z</time>
      </trkpt>
      <trkpt lat="47.551500" lon="7.784666">
        <ele>277.692641</ele>
        <time>2021-11-14T21:31:40.214Z</time>
      </trkpt>
      <trkpt lat="47.551472" lon="7.784654">
        <ele>277.669736</ele>
        <time>2021-11-14T21:31:40.579Z</time>
      </trkpt>
      <trkpt lat="47.551437" lon="7.784657">
        <ele>277.642186</ele>
        <time>2021-11-14T21:31:41.007Z</time>
      </trkpt>
      <trkpt lat="47.551439" lon="7.784323">
        <ele>277.465034</ele>
        <time>2021-11-14T21:31:43.935Z</time>
      </trkpt>
      <trkpt lat="47.551381" lon="7.783627">
        <ele>277.093090</ele>
        <time>2021-11-14T21:31:50.156Z</time>
      </trkpt>
      <trkpt lat="47.551302" lon="7.782671">
        <ele>276.942622</ele>
        <time>2021-11-14T21:31:59.548Z</time>
      </trkpt>
      <trkpt lat="47.551230" lon="7.781831">
        <ele>276.825628</ele>
        <time>2021-11-14T21:32:07.730Z</time>
      </trkpt>
      <trkpt lat="47.551198" lon="7.781475">
        <ele>276.776005</ele>
        <time>2021-11-14T21:32:11.235Z</time>
      </trkpt>
      <trkpt lat="47.551270" lon="7.781390">
        <ele>276.757159</ele>
        <time>2021-11-14T21:32:13.011Z</time>
      </trkpt>
      <trkpt lat="47.551208" lon="7.780694">
        <ele>276.620575</ele>
        <time>2021-11-14T21:32:19.747Z</time>
      </trkpt>
      <trkpt lat="47.551085" lon="7.779125">
        <ele>276.192643</ele>
        <time>2021-11-14T21:32:34.227Z</time>
      </trkpt>
      <trkpt lat="47.550982" lon="7.777915">
        <ele>275.948005</ele>
        <time>2021-11-14T21:32:44.792Z</time>
      </trkpt>
      <trkpt lat="47.550963" lon="7.777797">
        <ele>275.939204</ele>
        <time>2021-11-14T21:32:45.805Z</time>
      </trkpt>
      <trkpt lat="47.550782" lon="7.776690">
        <ele>275.856562</ele>
        <time>2021-11-14T21:32:56.578Z</time>
      </trkpt>
      <trkpt lat="47.550758" lon="7.776579">
        <ele>275.848105</ele>
        <time>2021-11-14T21:32:57.828Z</time>
      </trkpt>
      <trkpt lat="47.550607" lon="7.775871">
        <ele>275.794233</ele>
        <time>2021-11-14T21:33:05.913Z</time>
      </trkpt>
      <trkpt lat="47.550598" lon="7.775828">
        <ele>275.790966</ele>
        <time>2021-11-14T21:33:06.398Z</time>
      </trkpt>
      <trkpt lat="47.550505" lon="7.775364">
        <ele>275.930252</ele>
        <time>2021-11-14T21:33:11.913Z</time>
      </trkpt>
      <trkpt lat="47.550320" lon="7.774602">
        <ele>276.211056</ele>
        <time>2021-11-14T21:33:21.404Z</time>
      </trkpt>
      <trkpt lat="47.550090" lon="7.773646">
        <ele>276.562988</ele>
        <time>2021-11-14T21:33:33.269Z</time>
      </trkpt>
      <trkpt lat="47.550061" lon="7.773283">
        <ele>276.689741</ele>
        <time>2021-11-14T21:33:37.407Z</time>
      </trkpt>
      <trkpt lat="47.550203" lon="7.772543">
        <ele>276.908686</ele>
        <time>2021-11-14T21:33:45.617Z</time>
      </trkpt>
      <trkpt lat="47.550199" lon="7.772076">
        <ele>277.039203</ele>
        <time>2021-11-14T21:33:50.612Z</time>
      </trkpt>
      <trkpt lat="47.550069" lon="7.771373">
        <ele>277.242903</ele>
        <time>2021-11-14T21:33:58.522Z</time>
      </trkpt>
      <trkpt lat="47.549845" lon="7.770734">
        <ele>277.444126</ele>
        <time>2021-11-14T21:34:06.687Z</time>
      </trkpt>
      <trkpt lat="47.549714" lon="7.770276">
        <ele>277.762426</ele>
        <time>2021-11-14T21:34:12.457Z</time>
      </trkpt>
      <trkpt lat="47.549678" lon="7.770148">
        <ele>277.855324</ele>
        <time>2021-11-14T21:34:14.255Z</time>
      </trkpt>
      <trkpt lat="47.549549" lon="7.769615">
        <ele>278.234658</ele>
        <time>2021-11-14T21:34:21.077Z</time>
      </trkpt>
      <trkpt lat="47.549363" lon="7.768846">
        <ele>278.781913</ele>
        <time>2021-11-14T21:34:31.427Z</time>
      </trkpt>
      <trkpt lat="47.549184" lon="7.768021">
        <ele>279.314024</ele>
        <time>2021-11-14T21:34:43.881Z</time>
      </trkpt>
      <trkpt lat="47.548990" lon="7.767248">
        <ele>279.647866</ele>
        <time>2021-11-14T21:34:55.483Z</time>
      </trkpt>
      <trkpt lat="47.548565" lon="7.765680">
        <ele>280.292108</ele>
        <time>2021-11-14T21:35:14.246Z</time>
      </trkpt>
      <trkpt lat="47.547909" lon="7.763208">
        <ele>278.092664</ele>
        <time>2021-11-14T21:35:35.120Z</time>
      </trkpt>
      <trkpt lat="47.547848" lon="7.762928">
        <ele>277.795061</ele>
        <time>2021-11-14T21:35:37.264Z</time>
      </trkpt>
      <trkpt lat="47.547778" lon="7.762713">
        <ele>277.553614</ele>
        <time>2021-11-14T21:35:39.079Z</time>
      </trkpt>
      <trkpt lat="47.547577" lon="7.762307">
        <ele>277.044327</ele>
        <time>2021-11-14T21:35:42.849Z</time>
      </trkpt>
      <trkpt lat="47.547194" lon="7.761352">
        <ele>275.920704</ele>
        <time>2021-11-14T21:35:51.357Z</time>
      </trkpt>
      <trkpt lat="47.547084" lon="7.760956">
        <ele>275.487557</ele>
        <time>2021-11-14T21:35:54.717Z</time>
      </trkpt>
      <trkpt lat="47.546989" lon="7.760612">
        <ele>275.535750</ele>
        <time>2021-11-14T21:35:57.851Z</time>
      </trkpt>
      <trkpt lat="47.546948" lon="7.760482">
        <ele>275.589405</ele>
        <time>2021-11-14T21:35:59.100Z</time>
      </trkpt>
      <trkpt lat="47.546870" lon="7.760301">
        <ele>275.669703</ele>
        <time>2021-11-14T21:36:01.000Z</time>
      </trkpt>
      <trkpt lat="47.546804" lon="7.760164">
        <ele>275.732640</ele>
        <time>2021-11-14T21:36:02.452Z</time>
      </trkpt>
      <trkpt lat="47.546552" lon="7.759727">
        <ele>275.947559</ele>
        <time>2021-11-14T21:36:08.437Z</time>
      </trkpt>
      <trkpt lat="47.546312" lon="7.759326">
        <ele>276.147960</ele>
        <time>2021-11-14T21:36:14.800Z</time>
      </trkpt>
      <trkpt lat="47.546264" lon="7.759224">
        <ele>276.194455</ele>
        <time>2021-11-14T21:36:16.436Z</time>
      </trkpt>
      <trkpt lat="47.545911" lon="7.758393">
        <ele>277.226369</ele>
        <time>2021-11-14T21:36:32.831Z</time>
      </trkpt>
      <trkpt lat="47.545677" lon="7.757815">
        <ele>278.642447</ele>
        <time>2021-11-14T21:36:45.221Z</time>
      </trkpt>
      <trkpt lat="47.545429" lon="7.757231">
        <ele>280.092083</ele>
        <time>2021-11-14T21:36:58.267Z</time>
      </trkpt>
      <trkpt lat="47.545360" lon="7.757065">
        <ele>280.501682</ele>
        <time>2021-11-14T21:37:02.815Z</time>
      </trkpt>
      <trkpt lat="47.545326" lon="7.756949">
        <ele>280.767390</ele>
        <time>2021-11-14T21:37:05.477Z</time>
      </trkpt>
      <trkpt lat="47.545304" lon="7.756852">
        <ele>280.982389</ele>
        <time>2021-11-14T21:37:07.606Z</time>
      </trkpt>
      <trkpt lat="47.545260" lon="7.756637">
        <ele>281.454422</ele>
        <time>2021-11-14T21:37:12.505Z</time>
      </trkpt>
      <trkpt lat="47.545021" lon="7.756243">
        <ele>282.473429</ele>
        <time>2021-11-14T21:37:23.095Z</time>
      </trkpt>
      <trkpt lat="47.544089" lon="7.753877">
        <ele>286.989915</ele>
        <time>2021-11-14T21:38:08.126Z</time>
      </trkpt>
      <trkpt lat="47.544022" lon="7.753705">
        <ele>287.184060</ele>
        <time>2021-11-14T21:38:11.310Z</time>
      </trkpt>
      <trkpt lat="47.543798" lon="7.753068">
        <ele>287.886260</ele>
        <time>2021-11-14T21:38:21.108Z</time>
      </trkpt>
      <trkpt lat="47.543319" lon="7.751355">
        <ele>289.413318</ele>
        <time>2021-11-14T21:38:45.688Z</time>
      </trkpt>
      <trkpt lat="47.543222" lon="7.751091">
        <ele>289.513603</ele>
        <time>2021-11-14T21:38:48.961Z</time>
      </trkpt>
      <trkpt lat="47.543115" lon="7.750826">
        <ele>289.616628</ele>
        <time>2021-11-14T21:38:53.711Z</time>
      </trkpt>
      <trkpt lat="47.543033" lon="7.750614">
        <ele>289.698150</ele>
        <time>2021-11-14T21:38:56.295Z</time>
      </trkpt>
      <trkpt lat="47.542614" lon="7.749755">
        <ele>290.051744</ele>
        <time>2021-11-14T21:39:07.835Z</time>
      </trkpt>
      <trkpt lat="47.542390" lon="7.749307">
        <ele>290.158621</ele>
        <time>2021-11-14T21:39:13.646Z</time>
      </trkpt>
      <trkpt lat="47.542347" lon="7.749227">
        <ele>290.160379</ele>
        <time>2021-11-14T21:39:15.187Z</time>
      </trkpt>
      <trkpt lat="47.542132" lon="7.748742">
        <ele>290.170351</ele>
        <time>2021-11-14T21:39:22.752Z</time>
      </trkpt>
      <trkpt lat="47.541758" lon="7.747784">
        <ele>290.189372</ele>
        <time>2021-11-14T21:39:37.486Z</time>
      </trkpt>
      <trkpt lat="47.541583" lon="7.747186">
        <ele>290.200878</ele>
        <time>2021-11-14T21:39:46.665Z</time>
      </trkpt>
      <trkpt lat="47.541511" lon="7.746885">
        <ele>290.210027</ele>
        <time>2021-11-14T21:39:51.135Z</time>
      </trkpt>
      <trkpt lat="47.541432" lon="7.746552">
        <ele>290.220138</ele>
        <time>2021-11-14T21:39:56.247Z</time>
      </trkpt>
      <trkpt lat="47.541167" lon="7.745463">
        <ele>290.253301</ele>
        <time>2021-11-14T21:40:12.058Z</time>
      </trkpt>
      <trkpt lat="47.541160" lon="7.745250">
        <ele>290.259410</ele>
        <time>2021-11-14T21:40:14.911Z</time>
      </trkpt>
      <trkpt lat="47.541148" lon="7.745144">
        <ele>290.262490</ele>
        <time>2021-11-14T21:40:16.440Z</time>
      </trkpt>
      <trkpt lat="47.541130" lon="7.745083">
        <ele>290.264397</ele>
        <time>2021-11-14T21:40:17.362Z</time>
      </trkpt>
      <trkpt lat="47.541038" lon="7.744940">
        <ele>290.270056</ele>
        <time>2021-11-14T21:40:19.745Z</time>
      </trkpt>
      <trkpt lat="47.541019" lon="7.744859">
        <ele>290.272512</ele>
        <time>2021-11-14T21:40:20.982Z</time>
      </trkpt>
      <trkpt lat="47.540913" lon="7.744421">
        <ele>290.279882</ele>
        <time>2021-11-14T21:40:27.532Z</time>
      </trkpt>
      <trkpt lat="47.540738" lon="7.743641">
        <ele>290.288487</ele>
        <time>2021-11-14T21:40:39.336Z</time>
      </trkpt>
      <trkpt lat="47.540617" lon="7.742875">
        <ele>290.296723</ele>
        <time>2021-11-14T21:40:50.291Z</time>
      </trkpt>
      <trkpt lat="47.540589" lon="7.742558">
        <ele>290.300070</ele>
        <time>2021-11-14T21:40:54.658Z</time>
      </trkpt>
      <trkpt lat="47.540552" lon="7.742240">
        <ele>290.303449</ele>
        <time>2021-11-14T21:40:58.925Z</time>
      </trkpt>
      <trkpt lat="47.540505" lon="7.741497">
        <ele>289.917208</ele>
        <time>2021-11-14T21:41:08.607Z</time>
      </trkpt>
      <trkpt lat="47.540438" lon="7.740453">
        <ele>289.302803</ele>
        <time>2021-11-14T21:41:20.928Z</time>
      </trkpt>
      <trkpt lat="47.540374" lon="7.739620">
        <ele>288.811624</ele>
        <time>2021-11-14T21:41:30.432Z</time>
      </trkpt>
      <trkpt lat="47.540372" lon="7.739490">
        <ele>288.734688</ele>
        <time>2021-11-14T21:41:31.988Z</time>
      </trkpt>
      <trkpt lat="47.540387" lon="7.739372">
        <ele>288.657660</ele>
        <time>2021-11-14T21:41:33.477Z</time>
      </trkpt>
      <trkpt lat="47.540394" lon="7.739259">
        <ele>288.584865</ele>
        <time>2021-11-14T21:41:34.799Z</time>
      </trkpt>
      <trkpt lat="47.540388" lon="7.739213">
        <ele>288.554809</ele>
        <time>2021-11-14T21:41:35.191Z</time>
      </trkpt>
      <trkpt lat="47.540154" lon="7.737850">
        <ele>287.652597</ele>
        <time>2021-11-14T21:41:51.686Z</time>
      </trkpt>
      <trkpt lat="47.540032" lon="7.737141">
        <ele>287.183221</ele>
        <time>2021-11-14T21:41:59.990Z</time>
      </trkpt>
      <trkpt lat="47.539886" lon="7.736541">
        <ele>287.110517</ele>
        <time>2021-11-14T21:42:08.745Z</time>
      </trkpt>
      <trkpt lat="47.539305" lon="7.734151">
        <ele>287.681302</ele>
        <time>2021-11-14T21:42:46.476Z</time>
      </trkpt>
      <trkpt lat="47.539263" lon="7.733885">
        <ele>287.822313</ele>
        <time>2021-11-14T21:42:50.790Z</time>
      </trkpt>
      <trkpt lat="47.539178" lon="7.733656">
        <ele>287.957208</ele>
        <time>2021-11-14T21:42:54.858Z</time>
      </trkpt>
      <trkpt lat="47.538887" lon="7.732454">
        <ele>288.616354</ele>
        <time>2021-11-14T21:43:15.318Z</time>
      </trkpt>
      <trkpt lat="47.538512" lon="7.730958">
        <ele>289.164138</ele>
        <time>2021-11-14T21:43:40.796Z</time>
      </trkpt>
      <trkpt lat="47.538339" lon="7.730082">
        <ele>289.389370</ele>
        <time>2021-11-14T21:43:54.164Z</time>
      </trkpt>
      <trkpt lat="47.538275" lon="7.729744">
        <ele>289.475998</ele>
        <time>2021-11-14T21:43:59.020Z</time>
      </trkpt>
      <trkpt lat="47.538248" lon="7.729713">
        <ele>289.488485</ele>
        <time>2021-11-14T21:43:59.634Z</time>
      </trkpt>
      <trkpt lat="47.538168" lon="7.729263">
        <ele>289.433174</ele>
        <time>2021-11-14T21:44:05.720Z</time>
      </trkpt>
      <trkpt lat="47.538148" lon="7.729131">
        <ele>289.301748</ele>
        <time>2021-11-14T21:44:07.391Z</time>
      </trkpt>
      <trkpt lat="47.538123" lon="7.729100">
        <ele>289.254831</ele>
        <time>2021-11-14T21:44:07.987Z</time>
      </trkpt>
      <trkpt lat="47.538083" lon="7.728919">
        <ele>289.069810</ele>
        <time>2021-11-14T21:44:10.320Z</time>
      </trkpt>
      <trkpt lat="47.538051" lon="7.728711">
        <ele>288.862560</ele>
        <time>2021-11-14T21:44:12.939Z</time>
      </trkpt>
      <trkpt lat="47.537932" lon="7.727936">
        <ele>288.090427</ele>
        <time>2021-11-14T21:44:22.131Z</time>
      </trkpt>
      <trkpt lat="47.537861" lon="7.727909">
        <ele>287.984943</ele>
        <time>2021-11-14T21:44:23.317Z</time>
      </trkpt>
      <trkpt lat="47.537824" lon="7.727674">
        <ele>287.750515</ele>
        <time>2021-11-14T21:44:25.169Z</time>
      </trkpt>
      <trkpt lat="47.537675" lon="7.726458">
        <ele>285.897086</ele>
        <time>2021-11-14T21:44:34.112Z</time>
      </trkpt>
      <trkpt lat="47.537323" lon="7.724748">
        <ele>281.527841</ele>
        <time>2021-11-14T21:44:45.855Z</time>
      </trkpt>
      <trkpt lat="47.537127" lon="7.723974">
        <ele>279.710367</ele>
        <time>2021-11-14T21:44:51.291Z</time>
      </trkpt>
      <trkpt lat="47.537106" lon="7.723875">
        <ele>279.510259</ele>
        <time>2021-11-14T21:44:51.975Z</time>
      </trkpt>
      <trkpt lat="47.537075" lon="7.723694">
        <ele>279.150172</ele>
        <time>2021-11-14T21:44:53.204Z</time>
      </trkpt>
      <trkpt lat="47.536854" lon="7.722329">
        <ele>276.443341</ele>
        <time>2021-11-14T21:45:03.118Z</time>
      </trkpt>
      <trkpt lat="47.536667" lon="7.721718">
        <ele>275.167457</ele>
        <time>2021-11-14T21:45:08.240Z</time>
      </trkpt>
      <trkpt lat="47.536590" lon="7.721558">
        <ele>274.825549</ele>
        <time>2021-11-14T21:45:09.757Z</time>
      </trkpt>
      <trkpt lat="47.536471" lon="7.721389">
        <ele>274.400634</ele>
        <time>2021-11-14T21:45:11.686Z</time>
      </trkpt>
      <trkpt lat="47.536092" lon="7.720862">
        <ele>273.060795</ele>
        <time>2021-11-14T21:45:17.073Z</time>
      </trkpt>
      <trkpt lat="47.535988" lon="7.720671">
        <ele>272.633812</ele>
        <time>2021-11-14T21:45:18.733Z</time>
      </trkpt>
      <trkpt lat="47.535897" lon="7.720461">
        <ele>272.199595</ele>
        <time>2021-11-14T21:45:20.436Z</time>
      </trkpt>
      <trkpt lat="47.535876" lon="7.720409">
        <ele>272.094157</ele>
        <time>2021-11-14T21:45:20.853Z</time>
      </trkpt>
      <trkpt lat="47.535806" lon="7.720212">
        <ele>271.706777</ele>
        <time>2021-11-14T21:45:22.382Z</time>
      </trkpt>
      <trkpt lat="47.535746" lon="7.719899">
        <ele>271.140596</ele>
        <time>2021-11-14T21:45:24.683Z</time>
      </trkpt>
      <trkpt lat="47.535713" lon="7.719682">
        <ele>270.753532</ele>
        <time>2021-11-14T21:45:26.227Z</time>
      </trkpt>
      <trkpt lat="47.535661" lon="7.719317">
        <ele>270.317222</ele>
        <time>2021-11-14T21:45:28.946Z</time>
      </trkpt>
      <trkpt lat="47.535608" lon="7.718948">
        <ele>269.897027</ele>
        <time>2021-11-14T21:45:31.713Z</time>
      </trkpt>
      <trkpt lat="47.535572" lon="7.718705">
        <ele>269.619930</ele>
        <time>2021-11-14T21:45:33.418Z</time>
      </trkpt>
      <trkpt lat="47.535558" lon="7.718578">
        <ele>269.476603</ele>
        <time>2021-11-14T21:45:34.505Z</time>
      </trkpt>
      <trkpt lat="47.535516" lon="7.718273">
        <ele>269.129894</ele>
        <time>2021-11-14T21:45:36.739Z</time>
      </trkpt>
      <trkpt lat="47.535494" lon="7.718111">
        <ele>268.945842</ele>
        <time>2021-11-14T21:45:37.896Z</time>
      </trkpt>
      <trkpt lat="47.535490" lon="7.718086">
        <ele>268.917225</ele>
        <time>2021-11-14T21:45:38.423Z</time>
      </trkpt>
      <trkpt lat="47.535419" lon="7.717562">
        <ele>268.321947</ele>
        <time>2021-11-14T21:45:42.444Z</time>
      </trkpt>
      <trkpt lat="47.535384" lon="7.717243">
        <ele>267.961978</ele>
        <time>2021-11-14T21:45:45.069Z</time>
      </trkpt>
      <trkpt lat="47.535370" lon="7.716931">
        <ele>267.815809</ele>
        <time>2021-11-14T21:45:48.345Z</time>
      </trkpt>
      <trkpt lat="47.535347" lon="7.716584">
        <ele>268.112086</ele>
        <time>2021-11-14T21:45:51.965Z</time>
      </trkpt>
      <trkpt lat="47.535313" lon="7.716133">
        <ele>268.497699</ele>
        <time>2021-11-14T21:45:59.115Z</time>
      </trkpt>
      <trkpt lat="47.535254" lon="7.715336">
        <ele>269.178999</ele>
        <time>2021-11-14T21:46:11.664Z</time>
      </trkpt>
      <trkpt lat="47.535269" lon="7.714924">
        <ele>269.529600</ele>
        <time>2021-11-14T21:46:17.796Z</time>
      </trkpt>
      <trkpt lat="47.535269" lon="7.714705">
        <ele>269.715693</ele>
        <time>2021-11-14T21:46:20.966Z</time>
      </trkpt>
      <trkpt lat="47.535269" lon="7.714432">
        <ele>269.947671</ele>
        <time>2021-11-14T21:46:24.570Z</time>
      </trkpt>
      <trkpt lat="47.535222" lon="7.713738">
        <ele>270.329301</ele>
        <time>2021-11-14T21:46:33.546Z</time>
      </trkpt>
      <trkpt lat="47.535202" lon="7.713540">
        <ele>270.433928</ele>
        <time>2021-11-14T21:46:36.056Z</time>
      </trkpt>
      <trkpt lat="47.535174" lon="7.713262">
        <ele>270.580819</ele>
        <time>2021-11-14T21:46:39.399Z</time>
      </trkpt>
      <trkpt lat="47.535128" lon="7.712889">
        <ele>270.778976</ele>
        <time>2021-11-14T21:46:44.073Z</time>
      </trkpt>
      <trkpt lat="47.535110" lon="7.712748">
        <ele>270.853969</ele>
        <time>2021-11-14T21:46:45.720Z</time>
      </trkpt>
      <trkpt lat="47.534950" lon="7.712810">
        <ele>270.981988</ele>
        <time>2021-11-14T21:46:48.664Z</time>
      </trkpt>
      <trkpt lat="47.534950" lon="7.712810">
        <ele>270.981988</ele>
        <time>2021-11-14T21:46:48.702Z</time>
      </trkpt>
      <trkpt lat="47.534760" lon="7.712896">
        <ele>271.135775</ele>
        <time>2021-11-14T21:46:51.875Z</time>
      </trkpt>
      <trkpt lat="47.534597" lon="7.712970">
        <ele>271.267743</ele>
        <time>2021-11-14T21:46:54.894Z</time>
      </trkpt>
      <trkpt lat="47.534528" lon="7.713002">
        <ele>271.323710</ele>
        <time>2021-11-14T21:46:56.013Z</time>
      </trkpt>
      <trkpt lat="47.534344" lon="7.713085">
        <ele>271.424904</ele>
        <time>2021-11-14T21:46:59.080Z</time>
      </trkpt>
      <trkpt lat="47.534242" lon="7.713132">
        <ele>271.462865</ele>
        <time>2021-11-14T21:47:00.896Z</time>
      </trkpt>
      <trkpt lat="47.534171" lon="7.712838">
        <ele>271.537779</ele>
        <time>2021-11-14T21:47:04.041Z</time>
      </trkpt>
      <trkpt lat="47.534103" lon="7.712557">
        <ele>271.609398</ele>
        <time>2021-11-14T21:47:07.458Z</time>
      </trkpt>
      <trkpt lat="47.533850" lon="7.712715">
        <ele>271.706971</ele>
        <time>2021-11-14T21:47:11.696Z</time>
      </trkpt>
      <trkpt lat="47.533712" lon="7.712802">
        <ele>271.760269</ele>
        <time>2021-11-14T21:47:14.088Z</time>
      </trkpt>
      <trkpt lat="47.533585" lon="7.712861">
        <ele>271.807569</ele>
        <time>2021-11-14T21:47:16.126Z</time>
      </trkpt>
      <trkpt lat="47.533204" lon="7.712930">
        <ele>271.943971</ele>
        <time>2021-11-14T21:47:22.215Z</time>
      </trkpt>
      <trkpt lat="47.532918" lon="7.712834">
        <ele>272.081090</ele>
        <time>2021-11-14T21:47:27.130Z</time>
      </trkpt>
      <trkpt lat="47.532835" lon="7.712791">
        <ele>272.154167</ele>
        <time>2021-11-14T21:47:28.648Z</time>
      </trkpt>
      <trkpt lat="47.532756" lon="7.712690">
        <ele>272.240898</ele>
        <time>2021-11-14T21:47:30.671Z</time>
      </trkpt>
      <trkpt lat="47.532382" lon="7.712125">
        <ele>272.684875</ele>
        <time>2021-11-14T21:47:40.136Z</time>
      </trkpt>
      <trkpt lat="47.531932" lon="7.711461">
        <ele>273.212776</ele>
        <time>2021-11-14T21:47:52.329Z</time>
      </trkpt>
      <trkpt lat="47.531434" lon="7.710621">
        <ele>273.695996</ele>
        <time>2021-11-14T21:48:06.024Z</time>
      </trkpt>
      <trkpt lat="47.531400" lon="7.710563">
        <ele>273.719795</ele>
        <time>2021-11-14T21:48:07.224Z</time>
      </trkpt>
      <trkpt lat="47.531289" lon="7.710373">
        <ele>273.797642</ele>
        <time>2021-11-14T21:48:10.097Z</time>
      </trkpt>
      <trkpt lat="47.531278" lon="7.710355">
        <ele>273.805164</ele>
        <time>2021-11-14T21:48:10.498Z</time>
      </trkpt>
      <trkpt lat="47.531138" lon="7.710116">
        <ele>273.903200</ele>
        <time>2021-11-14T21:48:14.217Z</time>
      </trkpt>
      <trkpt lat="47.531092" lon="7.710037">
        <ele>273.935522</ele>
        <time>2021-11-14T21:48:15.323Z</time>
      </trkpt>
      <trkpt lat="47.531010" lon="7.709856">
        <ele>274.003057</ele>
        <time>2021-11-14T21:48:17.755Z</time>
      </trkpt>
      <trkpt lat="47.530924" lon="7.709643">
        <ele>274.079953</ele>
        <time>2021-11-14T21:48:20.531Z</time>
      </trkpt>
      <trkpt lat="47.530863" lon="7.709389">
        <ele>274.163482</ele>
        <time>2021-11-14T21:48:23.323Z</time>
      </trkpt>
      <trkpt lat="47.530680" lon="7.709102">
        <ele>274.285792</ele>
        <time>2021-11-14T21:48:27.399Z</time>
      </trkpt>
      <trkpt lat="47.530477" lon="7.708668">
        <ele>274.305518</ele>
        <time>2021-11-14T21:48:32.581Z</time>
      </trkpt>
      <trkpt lat="47.530376" lon="7.708542">
        <ele>274.283562</ele>
        <time>2021-11-14T21:48:34.407Z</time>
      </trkpt>
      <trkpt lat="47.530090" lon="7.708115">
        <ele>274.216041</ele>
        <time>2021-11-14T21:48:39.796Z</time>
      </trkpt>
      <trkpt lat="47.530040" lon="7.708071">
        <ele>274.206371</ele>
        <time>2021-11-14T21:48:40.559Z</time>
      </trkpt>
      <trkpt lat="47.529814" lon="7.708010">
        <ele>274.168176</ele>
        <time>2021-11-14T21:48:43.802Z</time>
      </trkpt>
      <trkpt lat="47.528916" lon="7.707267">
        <ele>274.067357</ele>
        <time>2021-11-14T21:48:58.617Z</time>
      </trkpt>
      <trkpt lat="47.528783" lon="7.707096">
        <ele>274.081287</ele>
        <time>2021-11-14T21:49:01.401Z</time>
      </trkpt>
      <trkpt lat="47.528280" lon="7.706338">
        <ele>274.138042</ele>
        <time>2021-11-14T21:49:12.188Z</time>
      </trkpt>
      <trkpt lat="47.527953" lon="7.705596">
        <ele>274.185360</ele>
        <time>2021-11-14T21:49:21.063Z</time>
      </trkpt>
      <trkpt lat="47.527843" lon="7.705480">
        <ele>274.252798</ele>
        <time>2021-11-14T21:49:23.577Z</time>
      </trkpt>
      <trkpt lat="47.527726" lon="7.705561">
        <ele>274.326993</ele>
        <time>2021-11-14T21:49:25.498Z</time>
      </trkpt>
      <trkpt lat="47.527591" lon="7.705744">
        <ele>274.432131</ele>
        <time>2021-11-14T21:49:28.554Z</time>
      </trkpt>
      <trkpt lat="47.527501" lon="7.705847">
        <ele>274.497473</ele>
        <time>2021-11-14T21:49:30.356Z</time>
      </trkpt>
      <trkpt lat="47.527348" lon="7.705987">
        <ele>274.600792</ele>
        <time>2021-11-14T21:49:32.989Z</time>
      </trkpt>
      <trkpt lat="47.527314" lon="7.705980">
        <ele>274.620512</ele>
        <time>2021-11-14T21:49:33.846Z</time>
      </trkpt>
      <trkpt lat="47.526914" lon="7.705009">
        <ele>275.061735</ele>
        <time>2021-11-14T21:49:46.406Z</time>
      </trkpt>
      <trkpt lat="47.526775" lon="7.704691">
        <ele>275.208682</ele>
        <time>2021-11-14T21:49:50.897Z</time>
      </trkpt>
      <trkpt lat="47.526360" lon="7.704025">
        <ele>277.100819</ele>
        <time>2021-11-14T21:50:04.383Z</time>
      </trkpt>
      <trkpt lat="47.526313" lon="7.703953">
        <ele>277.315707</ele>
        <time>2021-11-14T21:50:05.997Z</time>
      </trkpt>
      <trkpt lat="47.526010" lon="7.703497">
        <ele>278.688495</ele>
        <time>2021-11-14T21:50:18.166Z</time>
      </trkpt>
      <trkpt lat="47.525589" lon="7.702861">
        <ele>280.599606</ele>
        <time>2021-11-14T21:50:38.530Z</time>
      </trkpt>
      <trkpt lat="47.525119" lon="7.702443">
        <ele>282.838833</ele>
        <time>2021-11-14T21:50:56.784Z</time>
      </trkpt>
      <trkpt lat="47.524997" lon="7.702331">
        <ele>283.456238</ele>
        <time>2021-11-14T21:51:02.375Z</time>
      </trkpt>
      <trkpt lat="47.524706" lon="7.702264">
        <ele>284.722943</ele>
        <time>2021-11-14T21:51:12.399Z</time>
      </trkpt>
      <trkpt lat="47.524615" lon="7.702250">
        <ele>285.116464</ele>
        <time>2021-11-14T21:51:15.543Z</time>
      </trkpt>
      <trkpt lat="47.524401" lon="7.702218">
        <ele>286.041615</ele>
        <time>2021-11-14T21:51:22.400Z</time>
      </trkpt>
      <trkpt lat="47.524013" lon="7.702161">
        <ele>287.718696</ele>
        <time>2021-11-14T21:51:34.505Z</time>
      </trkpt>
      <trkpt lat="47.523926" lon="7.702155">
        <ele>288.093311</ele>
        <time>2021-11-14T21:51:37.239Z</time>
      </trkpt>
      <trkpt lat="47.523800" lon="7.702197">
        <ele>288.648830</ele>
        <time>2021-11-14T21:51:40.637Z</time>
      </trkpt>
      <trkpt lat="47.523758" lon="7.702269">
        <ele>288.753512</ele>
        <time>2021-11-14T21:51:42.279Z</time>
      </trkpt>
      <trkpt lat="47.523683" lon="7.702416">
        <ele>288.925255</ele>
        <time>2021-11-14T21:51:46.194Z</time>
      </trkpt>
      <trkpt lat="47.523539" lon="7.702744">
        <ele>289.289945</ele>
        <time>2021-11-14T21:51:52.924Z</time>
      </trkpt>
      <trkpt lat="47.523476" lon="7.702988">
        <ele>289.533455</ele>
        <time>2021-11-14T21:51:56.280Z</time>
      </trkpt>
      <trkpt lat="47.523207" lon="7.702948">
        <ele>289.906654</ele>
        <time>2021-11-14T21:52:01.701Z</time>
      </trkpt>
      <trkpt lat="47.523064" lon="7.702927">
        <ele>290.105022</ele>
        <time>2021-11-14T21:52:04.160Z</time>
      </trkpt>
      <trkpt lat="47.522974" lon="7.702913">
        <ele>290.229943</ele>
        <time>2021-11-14T21:52:05.674Z</time>
      </trkpt>
      <trkpt lat="47.522297" lon="7.702808">
        <ele>291.160338</ele>
        <time>2021-11-14T21:52:16.667Z</time>
      </trkpt>
      <trkpt lat="47.521475" lon="7.702832">
        <ele>291.562685</ele>
        <time>2021-11-14T21:52:29.910Z</time>
      </trkpt>
      <trkpt lat="47.521318" lon="7.702862">
        <ele>291.640154</ele>
        <time>2021-11-14T21:52:32.564Z</time>
      </trkpt>
      <trkpt lat="47.521249" lon="7.702881">
        <ele>291.674500</ele>
        <time>2021-11-14T21:52:34.012Z</time>
      </trkpt>
      <trkpt lat="47.520558" lon="7.703039">
        <ele>292.016668</ele>
        <time>2021-11-14T21:52:45.904Z</time>
      </trkpt>
      <trkpt lat="47.520529" lon="7.703049">
        <ele>292.031240</ele>
        <time>2021-11-14T21:52:46.666Z</time>
      </trkpt>
      <trkpt lat="47.520070" lon="7.703148">
        <ele>292.157858</ele>
        <time>2021-11-14T21:52:54.512Z</time>
      </trkpt>
      <trkpt lat="47.519889" lon="7.703086">
        <ele>292.207808</ele>
        <time>2021-11-14T21:52:57.514Z</time>
      </trkpt>
      <trkpt lat="47.519841" lon="7.703049">
        <ele>292.222358</ele>
        <time>2021-11-14T21:52:58.660Z</time>
      </trkpt>
      <trkpt lat="47.519785" lon="7.702990">
        <ele>292.240837</ele>
        <time>2021-11-14T21:52:59.772Z</time>
      </trkpt>
      <trkpt lat="47.519733" lon="7.702919">
        <ele>292.259854</ele>
        <time>2021-11-14T21:53:00.764Z</time>
      </trkpt>
      <trkpt lat="47.519674" lon="7.702803">
        <ele>292.286223</ele>
        <time>2021-11-14T21:53:02.112Z</time>
      </trkpt>
      <trkpt lat="47.519636" lon="7.702692">
        <ele>292.308819</ele>
        <time>2021-11-14T21:53:03.252Z</time>
      </trkpt>
      <trkpt lat="47.519594" lon="7.702549">
        <ele>292.337134</ele>
        <time>2021-11-14T21:53:05.141Z</time>
      </trkpt>
      <trkpt lat="47.519430" lon="7.701959">
        <ele>292.452984</ele>
        <time>2021-11-14T21:53:11.748Z</time>
      </trkpt>
      <trkpt lat="47.519352" lon="7.701645">
        <ele>292.513733</ele>
        <time>2021-11-14T21:53:15.288Z</time>
      </trkpt>
      <trkpt lat="47.519349" lon="7.701631">
        <ele>292.516400</ele>
        <time>2021-11-14T21:53:15.441Z</time>
      </trkpt>
      <trkpt lat="47.519286" lon="7.701329">
        <ele>292.491780</ele>
        <time>2021-11-14T21:53:18.573Z</time>
      </trkpt>
      <trkpt lat="47.519258" lon="7.701170">
        <ele>292.476905</ele>
        <time>2021-11-14T21:53:20.244Z</time>
      </trkpt>
      <trkpt lat="47.519233" lon="7.701014">
        <ele>292.462390</ele>
        <time>2021-11-14T21:53:21.866Z</time>
      </trkpt>
      <trkpt lat="47.519195" lon="7.700709">
        <ele>292.434313</ele>
        <time>2021-11-14T21:53:24.751Z</time>
      </trkpt>
      <trkpt lat="47.519193" lon="7.700688">
        <ele>292.432393</ele>
        <time>2021-11-14T21:53:24.908Z</time>
      </trkpt>
      <trkpt lat="47.519157" lon="7.700380">
        <ele>292.404095</ele>
        <time>2021-11-14T21:53:27.759Z</time>
      </trkpt>
      <trkpt lat="47.519132" lon="7.700172">
        <ele>292.384969</ele>
        <time>2021-11-14T21:53:29.638Z</time>
      </trkpt>
      <trkpt lat="47.519087" lon="7.699786">
        <ele>292.349508</ele>
        <time>2021-11-14T21:53:33.181Z</time>
      </trkpt>
      <trkpt lat="47.519042" lon="7.699496">
        <ele>292.322570</ele>
        <time>2021-11-14T21:53:35.931Z</time>
      </trkpt>
      <trkpt lat="47.518952" lon="7.699040">
        <ele>292.279562</ele>
        <time>2021-11-14T21:53:40.594Z</time>
      </trkpt>
      <trkpt lat="47.518806" lon="7.698235">
        <ele>292.690086</ele>
        <time>2021-11-14T21:53:49.834Z</time>
      </trkpt>
      <trkpt lat="47.518776" lon="7.698074">
        <ele>292.774459</ele>
        <time>2021-11-14T21:53:51.858Z</time>
      </trkpt>
      <trkpt lat="47.518729" lon="7.697828">
        <ele>292.903609</ele>
        <time>2021-11-14T21:53:54.986Z</time>
      </trkpt>
      <trkpt lat="47.518589" lon="7.696973">
        <ele>293.348049</ele>
        <time>2021-11-14T21:54:05.836Z</time>
      </trkpt>
      <trkpt lat="47.518568" lon="7.696830">
        <ele>293.421978</ele>
        <time>2021-11-14T21:54:07.706Z</time>
      </trkpt>
      <trkpt lat="47.518460" lon="7.696098">
        <ele>294.032502</ele>
        <time>2021-11-14T21:54:17.648Z</time>
      </trkpt>
      <trkpt lat="47.518415" lon="7.695818">
        <ele>294.368379</ele>
        <time>2021-11-14T21:54:21.826Z</time>
      </trkpt>
      <trkpt lat="47.518400" lon="7.695716">
        <ele>294.490199</ele>
        <time>2021-11-14T21:54:23.287Z</time>
      </trkpt>
      <trkpt lat="47.518365" lon="7.695509">
        <ele>294.739218</ele>
        <time>2021-11-14T21:54:26.721Z</time>
      </trkpt>
      <trkpt lat="47.518320" lon="7.695198">
        <ele>295.110383</ele>
        <time>2021-11-14T21:54:31.353Z</time>
      </trkpt>
      <trkpt lat="47.518310" lon="7.695086">
        <ele>295.242221</ele>
        <time>2021-11-14T21:54:33.172Z</time>
      </trkpt>
      <trkpt lat="47.518299" lon="7.694930">
        <ele>295.425259</ele>
        <time>2021-11-14T21:54:35.535Z</time>
      </trkpt>
      <trkpt lat="47.518294" lon="7.694610">
        <ele>295.798791</ele>
        <time>2021-11-14T21:54:40.042Z</time>
      </trkpt>
      <trkpt lat="47.518253" lon="7.694150">
        <ele>296.340254</ele>
        <time>2021-11-14T21:54:46.674Z</time>
      </trkpt>
      <trkpt lat="47.518232" lon="7.693988">
        <ele>296.532755</ele>
        <time>2021-11-14T21:54:49.081Z</time>
      </trkpt>
      <trkpt lat="47.518146" lon="7.693998">
        <ele>296.681815</ele>
        <time>2021-11-14T21:54:50.930Z</time>
      </trkpt>
      <trkpt lat="47.517957" lon="7.694109">
        <ele>297.397788</ele>
        <time>2021-11-14T21:54:55.972Z</time>
      </trkpt>
      <trkpt lat="47.517955" lon="7.694111">
        <ele>297.406997</ele>
        <time>2021-11-14T21:54:56.164Z</time>
      </trkpt>
      <trkpt lat="47.517646" lon="7.694392">
        <ele>298.790619</ele>
        <time>2021-11-14T21:55:05.645Z</time>
      </trkpt>
      <trkpt lat="47.517503" lon="7.694516">
        <ele>299.422928</ele>
        <time>2021-11-14T21:55:09.024Z</time>
      </trkpt>
      <trkpt lat="47.517239" lon="7.694746">
        <ele>300.591673</ele>
        <time>2021-11-14T21:55:18.948Z</time>
      </trkpt>
      <trkpt lat="47.517157" lon="7.694812">
        <ele>300.947789</ele>
        <time>2021-11-14T21:55:21.145Z</time>
      </trkpt>
      <trkpt lat="47.517084" lon="7.694861">
        <ele>301.253611</ele>
        <time>2021-11-14T21:55:24.888Z</time>
      </trkpt>
      <trkpt lat="47.516829" lon="7.694882">
        <ele>302.228089</ele>
        <time>2021-11-14T21:55:33.951Z</time>
      </trkpt>
      <trkpt lat="47.516717" lon="7.694874">
        <ele>302.655932</ele>
        <time>2021-11-14T21:55:39.698Z</time>
      </trkpt>
      <trkpt lat="47.516677" lon="7.694863">
        <ele>302.811165</ele>
        <time>2021-11-14T21:55:41.557Z</time>
      </trkpt>
      <trkpt lat="47.516556" lon="7.694611">
        <ele>303.614577</ele>
        <time>2021-11-14T21:55:48.989Z</time>
      </trkpt>
      <trkpt lat="47.516523" lon="7.694583">
        <ele>303.829711</ele>
        <time>2021-11-14T21:55:50.826Z</time>
      </trkpt>
      <trkpt lat="47.516457" lon="7.694583">
        <ele>304.203028</ele>
        <time>2021-11-14T21:55:54.476Z</time>
      </trkpt>
      <trkpt lat="47.516171" lon="7.694629">
        <ele>305.830250</ele>
        <time>2021-11-14T21:56:06.427Z</time>
      </trkpt>
      <trkpt lat="47.516061" lon="7.694636">
        <ele>306.453019</ele>
        <time>2021-11-14T21:56:12.502Z</time>
      </trkpt>
      <trkpt lat="47.515914" lon="7.694689">
        <ele>307.308793</ele>
        <time>2021-11-14T21:56:18.762Z</time>
      </trkpt>
      <trkpt lat="47.515594" lon="7.694838">
        <ele>309.206205</ele>
        <time>2021-11-14T21:56:34.117Z</time>
      </trkpt>
      <trkpt lat="47.515415" lon="7.694867">
        <ele>310.224729</ele>
        <time>2021-11-14T21:56:42.017Z</time>
      </trkpt>
      <trkpt lat="47.515285" lon="7.694889">
        <ele>310.964837</ele>
        <time>2021-11-14T21:56:48.291Z</time>
      </trkpt>
      <trkpt lat="47.515054" lon="7.694872">
        <ele>312.273058</ele>
        <time>2021-11-14T21:56:57.701Z</time>
      </trkpt>
      <trkpt lat="47.514816" lon="7.694816">
        <ele>313.636154</ele>
        <time>2021-11-14T21:57:07.506Z</time>
      </trkpt>
      <trkpt lat="47.514725" lon="7.694795">
        <ele>314.040380</ele>
        <time>2021-11-14T21:57:10.899Z</time>
      </trkpt>
      <trkpt lat="47.514592" lon="7.694781">
        <ele>314.568401</ele>
        <time>2021-11-14T21:57:16.597Z</time>
      </trkpt>
      <trkpt lat="47.514355" lon="7.694497">
        <ele>315.775816</ele>
        <time>2021-11-14T21:57:27.675Z</time>
      </trkpt>
      <trkpt lat="47.513936" lon="7.693997">
        <ele>317.906933</ele>
        <time>2021-11-14T21:57:46.172Z</time>
      </trkpt>
      <trkpt lat="47.513623" lon="7.693653">
        <ele>319.450613</ele>
        <time>2021-11-14T21:57:59.771Z</time>
      </trkpt>
      <trkpt lat="47.512753" lon="7.693164">
        <ele>323.822590</ele>
        <time>2021-11-14T21:58:31.647Z</time>
      </trkpt>
      <trkpt lat="47.512654" lon="7.693072">
        <ele>324.427063</ele>
        <time>2021-11-14T21:58:36.356Z</time>
      </trkpt>
      <trkpt lat="47.512475" lon="7.692907">
        <ele>325.517513</ele>
        <time>2021-11-14T21:58:45.083Z</time>
      </trkpt>
      <trkpt lat="47.511838" lon="7.691791">
        <ele>330.908135</ele>
        <time>2021-11-14T21:59:27.940Z</time>
      </trkpt>
      <trkpt lat="47.511667" lon="7.691581">
        <ele>332.825713</ele>
        <time>2021-11-14T21:59:40.361Z</time>
      </trkpt>
      <trkpt lat="47.511548" lon="7.691477">
        <ele>334.018410</ele>
        <time>2021-11-14T21:59:47.079Z</time>
      </trkpt>
      <trkpt lat="47.511185" lon="7.691269">
        <ele>337.377960</ele>
        <time>2021-11-14T22:00:06.673Z</time>
      </trkpt>
      <trkpt lat="47.510865" lon="7.691084">
        <ele>340.343012</ele>
        <time>2021-11-14T22:00:24.550Z</time>
      </trkpt>
      <trkpt lat="47.510633" lon="7.690805">
        <ele>342.922790</ele>
        <time>2021-11-14T22:00:40.732Z</time>
      </trkpt>
      <trkpt lat="47.510637" lon="7.690723">
        <ele>343.402086</ele>
        <time>2021-11-14T22:00:43.514Z</time>
      </trkpt>
      <trkpt lat="47.510606" lon="7.690494">
        <ele>344.763678</ele>
        <time>2021-11-14T22:00:53.140Z</time>
      </trkpt>
      <trkpt lat="47.510602" lon="7.690223">
        <ele>346.658906</ele>
        <time>2021-11-14T22:01:03.402Z</time>
      </trkpt>
      <trkpt lat="47.510403" lon="7.689323">
        <ele>354.951213</ele>
        <time>2021-11-14T22:01:44.841Z</time>
      </trkpt>
      <trkpt lat="47.510313" lon="7.689084">
        <ele>357.347267</ele>
        <time>2021-11-14T22:01:57.891Z</time>
      </trkpt>
      <trkpt lat="47.510209" lon="7.688788">
        <ele>360.268873</ele>
        <time>2021-11-14T22:02:13.790Z</time>
      </trkpt>
      <trkpt lat="47.510147" lon="7.688532">
        <ele>362.650275</ele>
        <time>2021-11-14T22:02:26.526Z</time>
      </trkpt>
      <trkpt lat="47.510127" lon="7.688247">
        <ele>365.159312</ele>
        <time>2021-11-14T22:02:40.666Z</time>
      </trkpt>
      <trkpt lat="47.510130" lon="7.688042">
        <ele>366.954817</ele>
        <time>2021-11-14T22:02:49.268Z</time>
      </trkpt>
      <trkpt lat="47.510117" lon="7.687677">
        <ele>370.257527</ele>
        <time>2021-11-14T22:03:07.602Z</time>
      </trkpt>
      <trkpt lat="47.509884" lon="7.686341">
        <ele>383.440212</ele>
        <time>2021-11-14T22:04:12.824Z</time>
      </trkpt>
      <trkpt lat="47.509939" lon="7.685485">
        <ele>391.655333</ele>
        <time>2021-11-14T22:04:56.982Z</time>
      </trkpt>
      <trkpt lat="47.509798" lon="7.684144">
        <ele>404.944919</ele>
        <time>2021-11-14T22:06:00.376Z</time>
      </trkpt>
      <trkpt lat="47.509798" lon="7.683903">
        <ele>407.320815</ele>
        <time>2021-11-14T22:06:12.880Z</time>
      </trkpt>
      <trkpt lat="47.509852" lon="7.683665">
        <ele>409.795967</ele>
        <time>2021-11-14T22:06:26.086Z</time>
      </trkpt>
      <trkpt lat="47.509894" lon="7.683204">
        <ele>414.381878</ele>
        <time>2021-11-14T22:06:49.795Z</time>
      </trkpt>
      <trkpt lat="47.509891" lon="7.682887">
        <ele>417.507321</ele>
        <time>2021-11-14T22:07:05.214Z</time>
      </trkpt>
      <trkpt lat="47.509848" lon="7.682678">
        <ele>419.661203</ele>
        <time>2021-11-14T22:07:16.776Z</time>
      </trkpt>
      <trkpt lat="47.509706" lon="7.682330">
        <ele>423.216610</ele>
        <time>2021-11-14T22:07:36.553Z</time>
      </trkpt>
      <trkpt lat="47.509678" lon="7.682278">
        <ele>423.771368</ele>
        <time>2021-11-14T22:07:40.851Z</time>
      </trkpt>
      <trkpt lat="47.509450" lon="7.681851">
        <ele>428.312026</ele>
        <time>2021-11-14T22:08:08.267Z</time>
      </trkpt>
      <trkpt lat="47.509233" lon="7.681400">
        <ele>432.931279</ele>
        <time>2021-11-14T22:08:32.670Z</time>
      </trkpt>
      <trkpt lat="47.509095" lon="7.680864">
        <ele>437.716510</ele>
        <time>2021-11-14T22:08:57.977Z</time>
      </trkpt>
      <trkpt lat="47.509059" lon="7.680504">
        <ele>440.752448</ele>
        <time>2021-11-14T22:09:11.949Z</time>
      </trkpt>
      <trkpt lat="47.509244" lon="7.678419">
        <ele>451.511412</ele>
        <time>2021-11-14T22:10:15.290Z</time>
      </trkpt>
      <trkpt lat="47.509271" lon="7.678316">
        <ele>452.025912</ele>
        <time>2021-11-14T22:10:19.166Z</time>
      </trkpt>
      <trkpt lat="47.509362" lon="7.677972">
        <ele>453.746305</ele>
        <time>2021-11-14T22:10:26.348Z</time>
      </trkpt>
      <trkpt lat="47.509545" lon="7.677432">
        <ele>456.553473</ele>
        <time>2021-11-14T22:10:39.706Z</time>
      </trkpt>
      <trkpt lat="47.509594" lon="7.677348">
        <ele>457.067684</ele>
        <time>2021-11-14T22:10:42.863Z</time>
      </trkpt>
      <trkpt lat="47.509678" lon="7.677202">
        <ele>457.956221</ele>
        <time>2021-11-14T22:10:46.086Z</time>
      </trkpt>
      <trkpt lat="47.509746" lon="7.677084">
        <ele>458.674841</ele>
        <time>2021-11-14T22:10:49.838Z</time>
      </trkpt>
      <trkpt lat="47.509821" lon="7.676771">
        <ele>460.213512</ele>
        <time>2021-11-14T22:10:57.764Z</time>
      </trkpt>
      <trkpt lat="47.509879" lon="7.676596">
        <ele>461.116626</ele>
        <time>2021-11-14T22:11:05.514Z</time>
      </trkpt>
      <trkpt lat="47.510007" lon="7.676193">
        <ele>463.179836</ele>
        <time>2021-11-14T22:11:24.014Z</time>
      </trkpt>
      <trkpt lat="47.510078" lon="7.675938">
        <ele>464.457680</ele>
        <time>2021-11-14T22:11:36.454Z</time>
      </trkpt>
      <trkpt lat="47.510097" lon="7.675649">
        <ele>465.802936</ele>
        <time>2021-11-14T22:11:50.725Z</time>
      </trkpt>
      <trkpt lat="47.510094" lon="7.675617">
        <ele>465.952613</ele>
        <time>2021-11-14T22:11:52.901Z</time>
      </trkpt>
      <trkpt lat="47.510063" lon="7.675198">
        <ele>468.013786</ele>
        <time>2021-11-14T22:12:10.192Z</time>
      </trkpt>
      <trkpt lat="47.510013" lon="7.675071">
        <ele>469.016909</ele>
        <time>2021-11-14T22:12:20.696Z</time>
      </trkpt>
      <trkpt lat="47.509927" lon="7.674954">
        <ele>470.196888</ele>
        <time>2021-11-14T22:12:28.217Z</time>
      </trkpt>
      <trkpt lat="47.509860" lon="7.674889">
        <ele>471.006163</ele>
        <time>2021-11-14T22:12:33.320Z</time>
      </trkpt>
      <trkpt lat="47.509805" lon="7.674838">
        <ele>471.661811</ele>
        <time>2021-11-14T22:12:37.549Z</time>
      </trkpt>
      <trkpt lat="47.509752" lon="7.674789">
        <ele>472.293092</ele>
        <time>2021-11-14T22:12:45.617Z</time>
      </trkpt>
      <trkpt lat="47.509582" lon="7.674682">
        <ele>474.159340</ele>
        <time>2021-11-14T22:12:58.607Z</time>
      </trkpt>
      <trkpt lat="47.508679" lon="7.674698">
        <ele>483.282821</ele>
        <time>2021-11-14T22:14:15.496Z</time>
      </trkpt>
      <trkpt lat="47.508583" lon="7.674629">
        <ele>484.360952</ele>
        <time>2021-11-14T22:14:22.782Z</time>
      </trkpt>
      <trkpt lat="47.508535" lon="7.674520">
        <ele>485.248906</ele>
        <time>2021-11-14T22:14:28.510Z</time>
      </trkpt>
      <trkpt lat="47.508505" lon="7.674451">
        <ele>485.808889</ele>
        <time>2021-11-14T22:14:32.445Z</time>
      </trkpt>
      <trkpt lat="47.508425" lon="7.674070">
        <ele>487.078486</ele>
        <time>2021-11-14T22:14:52.685Z</time>
      </trkpt>
      <trkpt lat="47.508401" lon="7.673736">
        <ele>488.129622</ele>
        <time>2021-11-14T22:15:07.245Z</time>
      </trkpt>
      <trkpt lat="47.508436" lon="7.673406">
        <ele>489.174996</ele>
        <time>2021-11-14T22:15:20.113Z</time>
      </trkpt>
      <trkpt lat="47.508446" lon="7.672692">
        <ele>491.409907</ele>
        <time>2021-11-14T22:15:46.287Z</time>
      </trkpt>
      <trkpt lat="47.508497" lon="7.672266">
        <ele>492.763831</ele>
        <time>2021-11-14T22:16:00.131Z</time>
      </trkpt>
      <trkpt lat="47.508476" lon="7.671476">
        <ele>494.194267</ele>
        <time>2021-11-14T22:16:22.871Z</time>
      </trkpt>
      <trkpt lat="47.508439" lon="7.670868">
        <ele>494.218870</ele>
        <time>2021-11-14T22:16:36.070Z</time>
      </trkpt>
      <trkpt lat="47.508400" lon="7.670630">
        <ele>494.228740</ele>
        <time>2021-11-14T22:16:38.055Z</time>
      </trkpt>
      <trkpt lat="47.508334" lon="7.668961">
        <ele>494.703305</ele>
        <time>2021-11-14T22:16:54.538Z</time>
      </trkpt>
      <trkpt lat="47.508311" lon="7.668787">
        <ele>495.067242</ele>
        <time>2021-11-14T22:16:56.235Z</time>
      </trkpt>
      <trkpt lat="47.508285" lon="7.668641">
        <ele>495.377171</ele>
        <time>2021-11-14T22:16:57.477Z</time>
      </trkpt>
      <trkpt lat="47.508251" lon="7.668646">
        <ele>495.480998</ele>
        <time>2021-11-14T22:16:58.394Z</time>
      </trkpt>
      <trkpt lat="47.508215" lon="7.668664">
        <ele>495.596466</ele>
        <time>2021-11-14T22:16:59.400Z</time>
      </trkpt>
      <trkpt lat="47.508195" lon="7.668698">
        <ele>495.689011</ele>
        <time>2021-11-14T22:17:00.555Z</time>
      </trkpt>
      <trkpt lat="47.508096" lon="7.668696">
        <ele>495.989880</ele>
        <time>2021-11-14T22:17:02.674Z</time>
      </trkpt>
      <trkpt lat="47.507055" lon="7.668067">
        <ele>499.406621</ele>
        <time>2021-11-14T22:17:34.615Z</time>
      </trkpt>
      <trkpt lat="47.506716" lon="7.667934">
        <ele>501.614773</ele>
        <time>2021-11-14T22:17:48.018Z</time>
      </trkpt>
      <trkpt lat="47.506336" lon="7.667946">
        <ele>504.605895</ele>
        <time>2021-11-14T22:18:06.708Z</time>
      </trkpt>
      <trkpt lat="47.505893" lon="7.667768">
        <ele>508.218256</ele>
        <time>2021-11-14T22:18:31.239Z</time>
      </trkpt>
      <trkpt lat="47.505709" lon="7.667844">
        <ele>509.721567</ele>
        <time>2021-11-14T22:18:38.149Z</time>
      </trkpt>
      <trkpt lat="47.505364" lon="7.668163">
        <ele>512.922671</ele>
        <time>2021-11-14T22:18:56.895Z</time>
      </trkpt>
      <trkpt lat="47.505295" lon="7.668259">
        <ele>513.667856</ele>
        <time>2021-11-14T22:19:02.537Z</time>
      </trkpt>
      <trkpt lat="47.505273" lon="7.668282">
        <ele>513.879809</ele>
        <time>2021-11-14T22:19:05.367Z</time>
      </trkpt>
      <trkpt lat="47.505003" lon="7.668423">
        <ele>516.689102</ele>
        <time>2021-11-14T22:19:18.488Z</time>
      </trkpt>
      <trkpt lat="47.504784" lon="7.668451">
        <ele>518.851420</ele>
        <time>2021-11-14T22:19:30.945Z</time>
      </trkpt>
      <trkpt lat="47.503852" lon="7.668457">
        <ele>528.019566</ele>
        <time>2021-11-14T22:20:24.052Z</time>
      </trkpt>
      <trkpt lat="47.503644" lon="7.668446">
        <ele>530.066962</ele>
        <time>2021-11-14T22:20:33.753Z</time>
      </trkpt>
      <trkpt lat="47.503078" lon="7.668512">
        <ele>535.572550</ele>
        <time>2021-11-14T22:21:05.932Z</time>
      </trkpt>
      <trkpt lat="47.502894" lon="7.668475">
        <ele>537.363377</ele>
        <time>2021-11-14T22:21:14.790Z</time>
      </trkpt>
      <trkpt lat="47.502567" lon="7.667896">
        <ele>542.280245</ele>
        <time>2021-11-14T22:21:44.958Z</time>
      </trkpt>
      <trkpt lat="47.502382" lon="7.667723">
        <ele>544.390623</ele>
        <time>2021-11-14T22:21:55.198Z</time>
      </trkpt>
      <trkpt lat="47.502331" lon="7.667705">
        <ele>544.896263</ele>
        <time>2021-11-14T22:21:59.301Z</time>
      </trkpt>
      <trkpt lat="47.502292" lon="7.667688">
        <ele>545.288355</ele>
        <time>2021-11-14T22:22:02.381Z</time>
      </trkpt>
      <trkpt lat="47.502151" lon="7.667642">
        <ele>546.680818</ele>
        <time>2021-11-14T22:22:08.134Z</time>
      </trkpt>
      <trkpt lat="47.502006" lon="7.667624">
        <ele>548.084132</ele>
        <time>2021-11-14T22:22:15.166Z</time>
      </trkpt>
      <trkpt lat="47.501882" lon="7.667549">
        <ele>549.306144</ele>
        <time>2021-11-14T22:22:23.111Z</time>
      </trkpt>
      <trkpt lat="47.501738" lon="7.667367">
        <ele>550.834326</ele>
        <time>2021-11-14T22:22:30.073Z</time>
      </trkpt>
      <trkpt lat="47.501725" lon="7.667123">
        <ele>552.168814</ele>
        <time>2021-11-14T22:22:39.642Z</time>
      </trkpt>
      <trkpt lat="47.502047" lon="7.666538">
        <ele>556.283049</ele>
        <time>2021-11-14T22:23:01.829Z</time>
      </trkpt>
      <trkpt lat="47.502211" lon="7.666089">
        <ele>559.066010</ele>
        <time>2021-11-14T22:23:18.171Z</time>
      </trkpt>
      <trkpt lat="47.502398" lon="7.665168">
        <ele>564.390804</ele>
        <time>2021-11-14T22:23:49.524Z</time>
      </trkpt>
      <trkpt lat="47.502680" lon="7.664603">
        <ele>568.589702</ele>
        <time>2021-11-14T22:24:10.874Z</time>
      </trkpt>
      <trkpt lat="47.502656" lon="7.664371">
        <ele>569.992589</ele>
        <time>2021-11-14T22:24:18.357Z</time>
      </trkpt>
      <trkpt lat="47.502470" lon="7.664143">
        <ele>572.129322</ele>
        <time>2021-11-14T22:24:30.736Z</time>
      </trkpt>
      <trkpt lat="47.502341" lon="7.664057">
        <ele>573.381116</ele>
        <time>2021-11-14T22:24:38.823Z</time>
      </trkpt>
      <trkpt lat="47.502215" lon="7.663950">
        <ele>574.666382</ele>
        <time>2021-11-14T22:24:47.347Z</time>
      </trkpt>
      <trkpt lat="47.502113" lon="7.663831">
        <ele>575.815481</ele>
        <time>2021-11-14T22:24:53.803Z</time>
      </trkpt>
      <trkpt lat="47.501982" lon="7.663470">
        <ele>578.264892</ele>
        <time>2021-11-14T22:25:08.943Z</time>
      </trkpt>
      <trkpt lat="47.501929" lon="7.662724">
        <ele>581.606452</ele>
        <time>2021-11-14T22:25:34.875Z</time>
      </trkpt>
      <trkpt lat="47.501880" lon="7.662547">
        <ele>582.362351</ele>
        <time>2021-11-14T22:25:41.308Z</time>
      </trkpt>
      <trkpt lat="47.501814" lon="7.662406">
        <ele>583.040219</ele>
        <time>2021-11-14T22:25:45.588Z</time>
      </trkpt>
      <trkpt lat="47.501739" lon="7.662303">
        <ele>583.638664</ele>
        <time>2021-11-14T22:25:50.418Z</time>
      </trkpt>
      <trkpt lat="47.501540" lon="7.662165">
        <ele>584.924116</ele>
        <time>2021-11-14T22:25:59.643Z</time>
      </trkpt>
      <trkpt lat="47.501427" lon="7.662094">
        <ele>585.642188</ele>
        <time>2021-11-14T22:26:03.171Z</time>
      </trkpt>
      <trkpt lat="47.501357" lon="7.661880">
        <ele>586.581773</ele>
        <time>2021-11-14T22:26:07.271Z</time>
      </trkpt>
      <trkpt lat="47.501296" lon="7.661615">
        <ele>587.688104</ele>
        <time>2021-11-14T22:26:12.117Z</time>
      </trkpt>
      <trkpt lat="47.501272" lon="7.661516">
        <ele>588.103752</ele>
        <time>2021-11-14T22:26:13.931Z</time>
      </trkpt>
      <trkpt lat="47.501255" lon="7.661462">
        <ele>588.339179</ele>
        <time>2021-11-14T22:26:15.075Z</time>
      </trkpt>
      <trkpt lat="47.501224" lon="7.661406">
        <ele>588.625281</ele>
        <time>2021-11-14T22:26:16.323Z</time>
      </trkpt>
      <trkpt lat="47.501172" lon="7.661341">
        <ele>589.023401</ele>
        <time>2021-11-14T22:26:17.915Z</time>
      </trkpt>
      <trkpt lat="47.501134" lon="7.661306">
        <ele>589.285199</ele>
        <time>2021-11-14T22:26:19.072Z</time>
      </trkpt>
      <trkpt lat="47.500892" lon="7.661159">
        <ele>590.472140</ele>
        <time>2021-11-14T22:26:27.576Z</time>
      </trkpt>
      <trkpt lat="47.500378" lon="7.660739">
        <ele>592.619580</ele>
        <time>2021-11-14T22:26:45.012Z</time>
      </trkpt>
      <trkpt lat="47.500168" lon="7.660591">
        <ele>593.470295</ele>
        <time>2021-11-14T22:26:50.196Z</time>
      </trkpt>
      <trkpt lat="47.499828" lon="7.660558">
        <ele>594.716550</ele>
        <time>2021-11-14T22:26:59.118Z</time>
      </trkpt>
      <trkpt lat="47.499384" lon="7.660566">
        <ele>596.340644</ele>
        <time>2021-11-14T22:27:13.089Z</time>
      </trkpt>
      <trkpt lat="47.498649" lon="7.660737">
        <ele>600.615332</ele>
        <time>2021-11-14T22:27:41.630Z</time>
      </trkpt>
      <trkpt lat="47.498030" lon="7.660538">
        <ele>604.325023</ele>
        <time>2021-11-14T22:28:09.719Z</time>
      </trkpt>
      <trkpt lat="47.497005" lon="7.659684">
        <ele>609.519452</ele>
        <time>2021-11-14T22:28:50.364Z</time>
      </trkpt>
      <trkpt lat="47.496700" lon="7.659355">
        <ele>610.838515</ele>
        <time>2021-11-14T22:29:00.994Z</time>
      </trkpt>
      <trkpt lat="47.496419" lon="7.658896">
        <ele>612.301170</ele>
        <time>2021-11-14T22:29:11.640Z</time>
      </trkpt>
      <trkpt lat="47.495370" lon="7.658146">
        <ele>613.107412</ele>
        <time>2021-11-14T22:29:34.950Z</time>
      </trkpt>
      <trkpt lat="47.495295" lon="7.658106">
        <ele>613.090112</ele>
        <time>2021-11-14T22:29:36.358Z</time>
      </trkpt>
      <trkpt lat="47.495132" lon="7.658047">
        <ele>613.053695</ele>
        <time>2021-11-14T22:29:39.103Z</time>
      </trkpt>
      <trkpt lat="47.494878" lon="7.657874">
        <ele>612.993016</ele>
        <time>2021-11-14T22:29:42.258Z</time>
      </trkpt>
      <trkpt lat="47.493869" lon="7.656901">
        <ele>610.931121</ele>
        <time>2021-11-14T22:29:54.615Z</time>
      </trkpt>
      <trkpt lat="47.493727" lon="7.656848">
        <ele>610.574784</ele>
        <time>2021-11-14T22:29:56.049Z</time>
      </trkpt>
      <trkpt lat="47.493625" lon="7.656806">
        <ele>610.317168</ele>
        <time>2021-11-14T22:29:57.067Z</time>
      </trkpt>
      <trkpt lat="47.493454" lon="7.656654">
        <ele>609.831808</ele>
        <time>2021-11-14T22:29:59.299Z</time>
      </trkpt>
      <trkpt lat="47.493323" lon="7.656425">
        <ele>609.338502</ele>
        <time>2021-11-14T22:30:01.528Z</time>
      </trkpt>
      <trkpt lat="47.492960" lon="7.655784">
        <ele>608.767909</ele>
        <time>2021-11-14T22:30:08.222Z</time>
      </trkpt>
      <trkpt lat="47.492898" lon="7.656011">
        <ele>608.935474</ele>
        <time>2021-11-14T22:30:10.290Z</time>
      </trkpt>
      <trkpt lat="47.492834" lon="7.656127">
        <ele>609.037964</ele>
        <time>2021-11-14T22:30:11.588Z</time>
      </trkpt>
      <trkpt lat="47.492655" lon="7.656259">
        <ele>609.240526</ele>
        <time>2021-11-14T22:30:13.845Z</time>
      </trkpt>
      <trkpt lat="47.492368" lon="7.656441">
        <ele>609.556778</ele>
        <time>2021-11-14T22:30:19.835Z</time>
      </trkpt>
      <trkpt lat="47.492098" lon="7.656633">
        <ele>609.860180</ele>
        <time>2021-11-14T22:30:26.356Z</time>
      </trkpt>
      <trkpt lat="47.491848" lon="7.656926">
        <ele>610.183178</ele>
        <time>2021-11-14T22:30:34.936Z</time>
      </trkpt>
      <trkpt lat="47.491315" lon="7.657218">
        <ele>612.036666</ele>
        <time>2021-11-14T22:30:52.876Z</time>
      </trkpt>
      <trkpt lat="47.490868" lon="7.657356">
        <ele>613.956258</ele>
        <time>2021-11-14T22:31:07.943Z</time>
      </trkpt>
      <trkpt lat="47.490491" lon="7.657402">
        <ele>615.546504</ele>
        <time>2021-11-14T22:31:19.309Z</time>
      </trkpt>
      <trkpt lat="47.490095" lon="7.657387">
        <ele>617.211791</ele>
        <time>2021-11-14T22:31:31.415Z</time>
      </trkpt>
      <trkpt lat="47.489998" lon="7.657426">
        <ele>617.634349</ele>
        <time>2021-11-14T22:31:34.351Z</time>
      </trkpt>
      <trkpt lat="47.489839" lon="7.657570">
        <ele>618.720449</ele>
        <time>2021-11-14T22:31:41.016Z</time>
      </trkpt>
      <trkpt lat="47.489641" lon="7.657751">
        <ele>620.286563</ele>
        <time>2021-11-14T22:31:48.396Z</time>
      </trkpt>
      <trkpt lat="47.488222" lon="7.658466">
        <ele>630.474294</ele>
        <time>2021-11-14T22:32:54.249Z</time>
      </trkpt>
      <trkpt lat="47.488006" lon="7.658683">
        <ele>632.727392</ele>
        <time>2021-11-14T22:33:06.937Z</time>
      </trkpt>
      <trkpt lat="47.487823" lon="7.658963">
        <ele>634.999103</ele>
        <time>2021-11-14T22:33:20.461Z</time>
      </trkpt>
      <trkpt lat="47.487746" lon="7.659067">
        <ele>635.898797</ele>
        <time>2021-11-14T22:33:25.628Z</time>
      </trkpt>
      <trkpt lat="47.487696" lon="7.659164">
        <ele>636.610278</ele>
        <time>2021-11-14T22:33:30.464Z</time>
      </trkpt>
      <trkpt lat="47.487466" lon="7.659584">
        <ele>639.762973</ele>
        <time>2021-11-14T22:33:49.065Z</time>
      </trkpt>
      <trkpt lat="47.487708" lon="7.660023">
        <ele>643.066974</ele>
        <time>2021-11-14T22:34:08.446Z</time>
      </trkpt>
      <trkpt lat="47.487727" lon="7.660149">
        <ele>643.819860</ele>
        <time>2021-11-14T22:34:12.573Z</time>
      </trkpt>
      <trkpt lat="47.487727" lon="7.660396">
        <ele>645.260325</ele>
        <time>2021-11-14T22:34:21.194Z</time>
      </trkpt>
      <trkpt lat="47.487791" lon="7.660726">
        <ele>647.072022</ele>
        <time>2021-11-14T22:34:33.222Z</time>
      </trkpt>
      <trkpt lat="47.488398" lon="7.662127">
        <ele>655.703590</ele>
        <time>2021-11-14T22:35:22.429Z</time>
      </trkpt>
      <trkpt lat="47.488562" lon="7.662648">
        <ele>658.684532</ele>
        <time>2021-11-14T22:35:40.574Z</time>
      </trkpt>
      <trkpt lat="47.488788" lon="7.663703">
        <ele>663.966793</ele>
        <time>2021-11-14T22:36:13.678Z</time>
      </trkpt>
      <trkpt lat="47.488770" lon="7.663949">
        <ele>665.134432</ele>
        <time>2021-11-14T22:36:20.767Z</time>
      </trkpt>
      <trkpt lat="47.488654" lon="7.664239">
        <ele>666.724707</ele>
        <time>2021-11-14T22:36:30.355Z</time>
      </trkpt>
      <trkpt lat="47.488619" lon="7.664308">
        <ele>667.131843</ele>
        <time>2021-11-14T22:36:33.568Z</time>
      </trkpt>
      <trkpt lat="47.488583" lon="7.664379">
        <ele>667.550719</ele>
        <time>2021-11-14T22:36:35.654Z</time>
      </trkpt>
      <trkpt lat="47.488568" lon="7.664426">
        <ele>667.796002</ele>
        <time>2021-11-14T22:36:36.776Z</time>
      </trkpt>
      <trkpt lat="47.488554" lon="7.664485">
        <ele>668.091086</ele>
        <time>2021-11-14T22:36:38.308Z</time>
      </trkpt>
      <trkpt lat="47.488545" lon="7.664580">
        <ele>668.543769</ele>
        <time>2021-11-14T22:36:42.197Z</time>
      </trkpt>
      <trkpt lat="47.488490" lon="7.665159">
        <ele>671.302899</ele>
        <time>2021-11-14T22:36:58.003Z</time>
      </trkpt>
      <trkpt lat="47.488064" lon="7.665788">
        <ele>674.796185</ele>
        <time>2021-11-14T22:37:21.914Z</time>
      </trkpt>
      <trkpt lat="47.487374" lon="7.666070">
        <ele>678.810045</ele>
        <time>2021-11-14T22:37:48.667Z</time>
      </trkpt>
      <trkpt lat="47.487095" lon="7.666096">
        <ele>680.377574</ele>
        <time>2021-11-14T22:37:56.759Z</time>
      </trkpt>
      <trkpt lat="47.487040" lon="7.666069">
        <ele>680.702501</ele>
        <time>2021-11-14T22:37:58.883Z</time>
      </trkpt>
      <trkpt lat="47.486993" lon="7.666016">
        <ele>681.033839</ele>
        <time>2021-11-14T22:38:01.113Z</time>
      </trkpt>
      <trkpt lat="47.486777" lon="7.665741">
        <ele>682.623192</ele>
        <time>2021-11-14T22:38:11.993Z</time>
      </trkpt>
      <trkpt lat="47.486496" lon="7.665749">
        <ele>684.178480</ele>
        <time>2021-11-14T22:38:21.924Z</time>
      </trkpt>
      <trkpt lat="47.486336" lon="7.665642">
        <ele>685.150106</ele>
        <time>2021-11-14T22:38:29.002Z</time>
      </trkpt>
      <trkpt lat="47.485979" lon="7.664993">
        <ele>688.279504</ele>
        <time>2021-11-14T22:38:50.333Z</time>
      </trkpt>
      <trkpt lat="47.485810" lon="7.664592">
        <ele>690.046806</ele>
        <time>2021-11-14T22:39:01.447Z</time>
      </trkpt>
      <trkpt lat="47.485784" lon="7.664530">
        <ele>690.319676</ele>
        <time>2021-11-14T22:39:04.619Z</time>
      </trkpt>
      <trkpt lat="47.485656" lon="7.664426">
        <ele>691.127751</ele>
        <time>2021-11-14T22:39:09.363Z</time>
      </trkpt>
      <trkpt lat="47.485138" lon="7.664477">
        <ele>693.744025</ele>
        <time>2021-11-14T22:39:27.908Z</time>
      </trkpt>
      <trkpt lat="47.484870" lon="7.664431">
        <ele>695.050638</ele>
        <time>2021-11-14T22:39:38.399Z</time>
      </trkpt>
      <trkpt lat="47.484767" lon="7.664543">
        <ele>695.669658</ele>
        <time>2021-11-14T22:39:43.598Z</time>
      </trkpt>
      <trkpt lat="47.484557" lon="7.664979">
        <ele>697.421942</ele>
        <time>2021-11-14T22:39:57.013Z</time>
      </trkpt>
      <trkpt lat="47.484447" lon="7.664992">
        <ele>697.956363</ele>
        <time>2021-11-14T22:40:00.665Z</time>
      </trkpt>
      <trkpt lat="47.484129" lon="7.663998">
        <ele>701.414521</ele>
        <time>2021-11-14T22:40:21.519Z</time>
      </trkpt>
      <trkpt lat="47.483410" lon="7.662800">
        <ele>705.835536</ele>
        <time>2021-11-14T22:40:53.247Z</time>
      </trkpt>
      <trkpt lat="47.483387" lon="7.662711">
        <ele>706.098458</ele>
        <time>2021-11-14T22:40:55.820Z</time>
      </trkpt>
      <trkpt lat="47.483385" lon="7.662632">
        <ele>706.316596</ele>
        <time>2021-11-14T22:40:57.198Z</time>
      </trkpt>
      <trkpt lat="47.483510" lon="7.661814">
        <ele>709.075686</ele>
        <time>2021-11-14T22:41:16.570Z</time>
      </trkpt>
      <trkpt lat="47.483499" lon="7.661747">
        <ele>709.400171</ele>
        <time>2021-11-14T22:41:18.108Z</time>
      </trkpt>
      <trkpt lat="47.483475" lon="7.661696">
        <ele>709.692644</ele>
        <time>2021-11-14T22:41:20.024Z</time>
      </trkpt>
      <trkpt lat="47.483446" lon="7.661648">
        <ele>709.995652</ele>
        <time>2021-11-14T22:41:21.437Z</time>
      </trkpt>
      <trkpt lat="47.483407" lon="7.661609">
        <ele>710.323446</ele>
        <time>2021-11-14T22:41:22.987Z</time>
      </trkpt>
      <trkpt lat="47.483337" lon="7.661573">
        <ele>710.839517</ele>
        <time>2021-11-14T22:41:26.459Z</time>
      </trkpt>
      <trkpt lat="47.482820" lon="7.661376">
        <ele>714.557281</ele>
        <time>2021-11-14T22:41:47.684Z</time>
      </trkpt>
      <trkpt lat="47.481650" lon="7.660270">
        <ele>723.019046</ele>
        <time>2021-11-14T22:42:55.054Z</time>
      </trkpt>
      <trkpt lat="47.481441" lon="7.660134">
        <ele>724.090517</ele>
        <time>2021-11-14T22:43:05.268Z</time>
      </trkpt>
      <trkpt lat="47.480947" lon="7.659840">
        <ele>726.589304</ele>
        <time>2021-11-14T22:43:22.885Z</time>
      </trkpt>
      <trkpt lat="47.480453" lon="7.659599">
        <ele>728.849549</ele>
        <time>2021-11-14T22:43:36.910Z</time>
      </trkpt>
      <trkpt lat="47.479804" lon="7.659052">
        <ele>722.458548</ele>
        <time>2021-11-14T22:43:44.033Z</time>
      </trkpt>
      <trkpt lat="47.479124" lon="7.658616">
        <ele>716.117220</ele>
        <time>2021-11-14T22:43:50.314Z</time>
      </trkpt>
      <trkpt lat="47.479069" lon="7.658557">
        <ele>715.535931</ele>
        <time>2021-11-14T22:43:50.872Z</time>
      </trkpt>
      <trkpt lat="47.479037" lon="7.658508">
        <ele>715.141886</ele>
        <time>2021-11-14T22:43:51.245Z</time>
      </trkpt>
      <trkpt lat="47.478885" lon="7.658127">
        <ele>712.030871</ele>
        <time>2021-11-14T22:43:53.790Z</time>
      </trkpt>
      <trkpt lat="47.478869" lon="7.658105">
        <ele>711.739968</ele>
        <time>2021-11-14T22:43:53.974Z</time>
      </trkpt>
      <trkpt lat="47.478855" lon="7.658094">
        <ele>711.528852</ele>
        <time>2021-11-14T22:43:54.104Z</time>
      </trkpt>
      <trkpt lat="47.478819" lon="7.658086">
        <ele>711.044015</ele>
        <time>2021-11-14T22:43:54.407Z</time>
      </trkpt>
      <trkpt lat="47.478630" lon="7.658136">
        <ele>708.486933</ele>
        <time>2021-11-14T22:43:56.117Z</time>
      </trkpt>
      <trkpt lat="47.478528" lon="7.658207">
        <ele>706.985639</ele>
        <time>2021-11-14T22:43:57.036Z</time>
      </trkpt>
      <trkpt lat="47.478399" lon="7.658328">
        <ele>704.951423</ele>
        <time>2021-11-14T22:43:58.310Z</time>
      </trkpt>
      <trkpt lat="47.478311" lon="7.658423">
        <ele>703.500605</ele>
        <time>2021-11-14T22:43:59.263Z</time>
      </trkpt>
      <trkpt lat="47.478222" lon="7.658520">
        <ele>702.028402</ele>
        <time>2021-11-14T22:44:00.160Z</time>
      </trkpt>
      <trkpt lat="47.477975" lon="7.658805">
        <ele>697.856709</ele>
        <time>2021-11-14T22:44:02.799Z</time>
      </trkpt>
      <trkpt lat="47.477714" lon="7.659073">
        <ele>693.625533</ele>
        <time>2021-11-14T22:44:05.451Z</time>
      </trkpt>
      <trkpt lat="47.477346" lon="7.659332">
        <ele>689.012658</ele>
        <time>2021-11-14T22:44:08.913Z</time>
      </trkpt>
      <trkpt lat="47.477220" lon="7.659353">
        <ele>688.290582</ele>
        <time>2021-11-14T22:44:10.029Z</time>
      </trkpt>
      <trkpt lat="47.477160" lon="7.659316">
        <ele>687.920408</ele>
        <time>2021-11-14T22:44:10.577Z</time>
      </trkpt>
      <trkpt lat="47.477138" lon="7.659290">
        <ele>687.760062</ele>
        <time>2021-11-14T22:44:10.926Z</time>
      </trkpt>
      <trkpt lat="47.477102" lon="7.659181">
        <ele>687.293111</ele>
        <time>2021-11-14T22:44:11.969Z</time>
      </trkpt>
      <trkpt lat="47.477066" lon="7.659026">
        <ele>686.662276</ele>
        <time>2021-11-14T22:44:13.355Z</time>
      </trkpt>
      <trkpt lat="47.477025" lon="7.658869">
        <ele>686.014447</ele>
        <time>2021-11-14T22:44:14.793Z</time>
      </trkpt>
      <trkpt lat="47.476937" lon="7.658689">
        <ele>685.159382</ele>
        <time>2021-11-14T22:44:16.741Z</time>
      </trkpt>
      <trkpt lat="47.476789" lon="7.658596">
        <ele>684.243695</ele>
        <time>2021-11-14T22:44:18.992Z</time>
      </trkpt>
      <trkpt lat="47.476684" lon="7.658598">
        <ele>683.645699</ele>
        <time>2021-11-14T22:44:20.318Z</time>
      </trkpt>
      <trkpt lat="47.476609" lon="7.658624">
        <ele>683.207026</ele>
        <time>2021-11-14T22:44:21.402Z</time>
      </trkpt>
      <trkpt lat="47.476280" lon="7.658852">
        <ele>681.138112</ele>
        <time>2021-11-14T22:44:26.709Z</time>
      </trkpt>
      <trkpt lat="47.476193" lon="7.658883">
        <ele>680.628504</ele>
        <time>2021-11-14T22:44:28.137Z</time>
      </trkpt>
      <trkpt lat="47.476158" lon="7.658895">
        <ele>680.423906</ele>
        <time>2021-11-14T22:44:28.703Z</time>
      </trkpt>
      <trkpt lat="47.476012" lon="7.658932">
        <ele>679.580365</ele>
        <time>2021-11-14T22:44:30.847Z</time>
      </trkpt>
      <trkpt lat="47.475631" lon="7.658882">
        <ele>680.359079</ele>
        <time>2021-11-14T22:44:38.724Z</time>
      </trkpt>
      <trkpt lat="47.475506" lon="7.658879">
        <ele>680.712421</ele>
        <time>2021-11-14T22:44:41.604Z</time>
      </trkpt>
      <trkpt lat="47.475518" lon="7.658963">
        <ele>680.876435</ele>
        <time>2021-11-14T22:44:44.340Z</time>
      </trkpt>
      <trkpt lat="47.475526" lon="7.659520">
        <ele>681.940741</ele>
        <time>2021-11-14T22:44:53.906Z</time>
      </trkpt>
      <trkpt lat="47.475550" lon="7.659903">
        <ele>682.675543</ele>
        <time>2021-11-14T22:45:00.480Z</time>
      </trkpt>
      <trkpt lat="47.475587" lon="7.660335">
        <ele>683.507414</ele>
        <time>2021-11-14T22:45:10.492Z</time>
      </trkpt>
      <trkpt lat="47.475584" lon="7.660431">
        <ele>683.691003</ele>
        <time>2021-11-14T22:45:12.115Z</time>
      </trkpt>
      <trkpt lat="47.475563" lon="7.660517">
        <ele>683.865686</ele>
        <time>2021-11-14T22:45:15.602Z</time>
      </trkpt>
      <trkpt lat="47.475453" lon="7.660952">
        <ele>685.084887</ele>
        <time>2021-11-14T22:45:26.429Z</time>
      </trkpt>
      <trkpt lat="47.475431" lon="7.661038">
        <ele>685.460909</ele>
        <time>2021-11-14T22:45:30.640Z</time>
      </trkpt>
      <trkpt lat="47.475081" lon="7.662263">
        <ele>690.899435</ele>
        <time>2021-11-14T22:46:08.156Z</time>
      </trkpt>
      <trkpt lat="47.475047" lon="7.662513">
        <ele>691.942246</ele>
        <time>2021-11-14T22:46:15.949Z</time>
      </trkpt>
      <trkpt lat="47.474989" lon="7.663216">
        <ele>694.838356</ele>
        <time>2021-11-14T22:46:34.331Z</time>
      </trkpt>
      <trkpt lat="47.474967" lon="7.663452">
        <ele>695.554245</ele>
        <time>2021-11-14T22:46:39.217Z</time>
      </trkpt>
      <trkpt lat="47.474918" lon="7.664070">
        <ele>696.696643</ele>
        <time>2021-11-14T22:46:51.562Z</time>
      </trkpt>
      <trkpt lat="47.474914" lon="7.664128">
        <ele>696.803681</ele>
        <time>2021-11-14T22:46:52.704Z</time>
      </trkpt>
      <trkpt lat="47.474908" lon="7.664389">
        <ele>697.283141</ele>
        <time>2021-11-14T22:46:57.834Z</time>
      </trkpt>
      <trkpt lat="47.474938" lon="7.664777">
        <ele>698.000136</ele>
        <time>2021-11-14T22:47:04.909Z</time>
      </trkpt>
      <trkpt lat="47.474976" lon="7.665188">
        <ele>698.761739</ele>
        <time>2021-11-14T22:47:11.790Z</time>
      </trkpt>
      <trkpt lat="47.475004" lon="7.665440">
        <ele>699.230607</ele>
        <time>2021-11-14T22:47:15.627Z</time>
      </trkpt>
      <trkpt lat="47.475154" lon="7.667130">
        <ele>700.714452</ele>
        <time>2021-11-14T22:47:34.596Z</time>
      </trkpt>
      <trkpt lat="47.475210" lon="7.667403">
        <ele>700.833707</ele>
        <time>2021-11-14T22:47:37.889Z</time>
      </trkpt>
      <trkpt lat="47.475439" lon="7.668006">
        <ele>701.122826</ele>
        <time>2021-11-14T22:47:45.786Z</time>
      </trkpt>
      <trkpt lat="47.475468" lon="7.668205">
        <ele>701.207920</ele>
        <time>2021-11-14T22:47:47.851Z</time>
      </trkpt>
      <trkpt lat="47.475458" lon="7.668347">
        <ele>701.267598</ele>
        <time>2021-11-14T22:47:49.874Z</time>
      </trkpt>
      <trkpt lat="47.475322" lon="7.668778">
        <ele>701.544782</ele>
        <time>2021-11-14T22:47:55.680Z</time>
      </trkpt>
      <trkpt lat="47.475203" lon="7.669120">
        <ele>701.806582</ele>
        <time>2021-11-14T22:48:00.547Z</time>
      </trkpt>
      <trkpt lat="47.475076" lon="7.669403">
        <ele>702.037782</ele>
        <time>2021-11-14T22:48:05.276Z</time>
      </trkpt>
      <trkpt lat="47.475034" lon="7.670257">
        <ele>702.620559</ele>
        <time>2021-11-14T22:48:16.534Z</time>
      </trkpt>
      <trkpt lat="47.474747" lon="7.671110">
        <ele>702.926951</ele>
        <time>2021-11-14T22:48:29.369Z</time>
      </trkpt>
      <trkpt lat="47.474722" lon="7.671735">
        <ele>702.098828</ele>
        <time>2021-11-14T22:48:36.295Z</time>
      </trkpt>
      <trkpt lat="47.474799" lon="7.672866">
        <ele>700.595307</ele>
        <time>2021-11-14T22:48:45.098Z</time>
      </trkpt>
      <trkpt lat="47.475051" lon="7.674031">
        <ele>696.687837</ele>
        <time>2021-11-14T22:48:52.933Z</time>
      </trkpt>
      <trkpt lat="47.475114" lon="7.675260">
        <ele>689.365291</ele>
        <time>2021-11-14T22:49:00.223Z</time>
      </trkpt>
      <trkpt lat="47.475491" lon="7.676931">
        <ele>677.715988</ele>
        <time>2021-11-14T22:49:10.315Z</time>
      </trkpt>
      <trkpt lat="47.475542" lon="7.678222">
        <ele>668.186692</ele>
        <time>2021-11-14T22:49:17.725Z</time>
      </trkpt>
      <trkpt lat="47.475398" lon="7.678674">
        <ele>664.504573</ele>
        <time>2021-11-14T22:49:20.647Z</time>
      </trkpt>
      <trkpt lat="47.475390" lon="7.678824">
        <ele>663.554069</ele>
        <time>2021-11-14T22:49:21.540Z</time>
      </trkpt>
      <trkpt lat="47.475518" lon="7.678981">
        <ele>662.091737</ele>
        <time>2021-11-14T22:49:23.043Z</time>
      </trkpt>
      <trkpt lat="47.475600" lon="7.678953">
        <ele>661.351583</ele>
        <time>2021-11-14T22:49:23.817Z</time>
      </trkpt>
      <trkpt lat="47.475664" lon="7.678843">
        <ele>660.488777</ele>
        <time>2021-11-14T22:49:24.668Z</time>
      </trkpt>
      <trkpt lat="47.475701" lon="7.678183">
        <ele>656.551864</ele>
        <time>2021-11-14T22:49:28.679Z</time>
      </trkpt>
      <trkpt lat="47.475901" lon="7.677182">
        <ele>650.346782</ele>
        <time>2021-11-14T22:49:34.762Z</time>
      </trkpt>
      <trkpt lat="47.475943" lon="7.676911">
        <ele>648.693993</ele>
        <time>2021-11-14T22:49:36.575Z</time>
      </trkpt>
      <trkpt lat="47.475963" lon="7.676500">
        <ele>645.449247</ele>
        <time>2021-11-14T22:49:38.940Z</time>
      </trkpt>
      <trkpt lat="47.475984" lon="7.676078">
        <ele>642.003934</ele>
        <time>2021-11-14T22:49:41.383Z</time>
      </trkpt>
      <trkpt lat="47.476031" lon="7.675961">
        <ele>640.895744</ele>
        <time>2021-11-14T22:49:42.254Z</time>
      </trkpt>
      <trkpt lat="47.476118" lon="7.675908">
        <ele>639.762333</ele>
        <time>2021-11-14T22:49:43.139Z</time>
      </trkpt>
      <trkpt lat="47.476161" lon="7.675909">
        <ele>639.244270</ele>
        <time>2021-11-14T22:49:43.489Z</time>
      </trkpt>
      <trkpt lat="47.476199" lon="7.675929">
        <ele>638.758402</ele>
        <time>2021-11-14T22:49:43.818Z</time>
      </trkpt>
      <trkpt lat="47.476310" lon="7.676111">
        <ele>636.762419</ele>
        <time>2021-11-14T22:49:45.308Z</time>
      </trkpt>
      <trkpt lat="47.476555" lon="7.677002">
        <ele>628.930395</ele>
        <time>2021-11-14T22:49:50.713Z</time>
      </trkpt>
      <trkpt lat="47.476951" lon="7.677630">
        <ele>621.304714</ele>
        <time>2021-11-14T22:49:55.557Z</time>
      </trkpt>
      <trkpt lat="47.477084" lon="7.677944">
        <ele>617.889101</ele>
        <time>2021-11-14T22:49:57.637Z</time>
      </trkpt>
      <trkpt lat="47.477108" lon="7.678056">
        <ele>616.806119</ele>
        <time>2021-11-14T22:49:58.296Z</time>
      </trkpt>
      <trkpt lat="47.477122" lon="7.678158">
        <ele>615.846763</ele>
        <time>2021-11-14T22:49:58.894Z</time>
      </trkpt>
      <trkpt lat="47.477049" lon="7.679499">
        <ele>603.446313</ele>
        <time>2021-11-14T22:50:06.531Z</time>
      </trkpt>
      <trkpt lat="47.477163" lon="7.679826">
        <ele>600.162528</ele>
        <time>2021-11-14T22:50:08.635Z</time>
      </trkpt>
      <trkpt lat="47.477194" lon="7.679864">
        <ele>599.641074</ele>
        <time>2021-11-14T22:50:08.969Z</time>
      </trkpt>
      <trkpt lat="47.477253" lon="7.679912">
        <ele>598.768927</ele>
        <time>2021-11-14T22:50:09.527Z</time>
      </trkpt>
      <trkpt lat="47.477796" lon="7.680182">
        <ele>591.348842</ele>
        <time>2021-11-14T22:50:14.377Z</time>
      </trkpt>
      <trkpt lat="47.478096" lon="7.680541">
        <ele>586.351018</ele>
        <time>2021-11-14T22:50:17.644Z</time>
      </trkpt>
      <trkpt lat="47.479291" lon="7.682309">
        <ele>563.325607</ele>
        <time>2021-11-14T22:50:31.742Z</time>
      </trkpt>
      <trkpt lat="47.479404" lon="7.682470">
        <ele>561.133821</ele>
        <time>2021-11-14T22:50:33.030Z</time>
      </trkpt>
      <trkpt lat="47.479478" lon="7.682637">
        <ele>559.248152</ele>
        <time>2021-11-14T22:50:34.189Z</time>
      </trkpt>
      <trkpt lat="47.479501" lon="7.682927">
        <ele>556.490940</ele>
        <time>2021-11-14T22:50:35.821Z</time>
      </trkpt>
      <trkpt lat="47.479494" lon="7.682996">
        <ele>555.832085</ele>
        <time>2021-11-14T22:50:36.206Z</time>
      </trkpt>
      <trkpt lat="47.479471" lon="7.683068">
        <ele>555.080083</ele>
        <time>2021-11-14T22:50:36.691Z</time>
      </trkpt>
      <trkpt lat="47.479444" lon="7.683140">
        <ele>554.302555</ele>
        <time>2021-11-14T22:50:37.190Z</time>
      </trkpt>
      <trkpt lat="47.479383" lon="7.683246">
        <ele>553.296809</ele>
        <time>2021-11-14T22:50:37.978Z</time>
      </trkpt>
      <trkpt lat="47.479195" lon="7.683404">
        <ele>551.467151</ele>
        <time>2021-11-14T22:50:39.793Z</time>
      </trkpt>
      <trkpt lat="47.478683" lon="7.683516">
        <ele>547.087314</ele>
        <time>2021-11-14T22:50:44.234Z</time>
      </trkpt>
      <trkpt lat="47.478605" lon="7.683497">
        <ele>546.418363</ele>
        <time>2021-11-14T22:50:44.892Z</time>
      </trkpt>
      <trkpt lat="47.478551" lon="7.683474">
        <ele>545.942837</ele>
        <time>2021-11-14T22:50:45.373Z</time>
      </trkpt>
      <trkpt lat="47.477524" lon="7.682199">
        <ele>538.000029</ele>
        <time>2021-11-14T22:50:58.074Z</time>
      </trkpt>
      <trkpt lat="47.477381" lon="7.682137">
        <ele>537.824427</ele>
        <time>2021-11-14T22:50:59.644Z</time>
      </trkpt>
      <trkpt lat="47.477198" lon="7.682184">
        <ele>537.605549</ele>
        <time>2021-11-14T22:51:02.921Z</time>
      </trkpt>
      <trkpt lat="47.476365" lon="7.682915">
        <ele>536.464236</ele>
        <time>2021-11-14T22:51:19.754Z</time>
      </trkpt>
      <trkpt lat="47.476216" lon="7.683116">
        <ele>536.267991</ele>
        <time>2021-11-14T22:51:23.503Z</time>
      </trkpt>
      <trkpt lat="47.475984" lon="7.683839">
        <ele>535.759633</ele>
        <time>2021-11-14T22:51:32.289Z</time>
      </trkpt>
      <trkpt lat="47.475297" lon="7.685191">
        <ele>534.419693</ele>
        <time>2021-11-14T22:51:45.522Z</time>
      </trkpt>
      <trkpt lat="47.475226" lon="7.685478">
        <ele>533.294140</ele>
        <time>2021-11-14T22:51:47.573Z</time>
      </trkpt>
      <trkpt lat="47.475193" lon="7.685958">
        <ele>531.517245</ele>
        <time>2021-11-14T22:51:50.749Z</time>
      </trkpt>
      <trkpt lat="47.475248" lon="7.686688">
        <ele>528.812106</ele>
        <time>2021-11-14T22:51:55.360Z</time>
      </trkpt>
      <trkpt lat="47.475166" lon="7.687435">
        <ele>526.024963</ele>
        <time>2021-11-14T22:51:59.917Z</time>
      </trkpt>
      <trkpt lat="47.475073" lon="7.687905">
        <ele>524.103182</ele>
        <time>2021-11-14T22:52:02.818Z</time>
      </trkpt>
      <trkpt lat="47.474770" lon="7.688571">
        <ele>520.660425</ele>
        <time>2021-11-14T22:52:07.700Z</time>
      </trkpt>
      <trkpt lat="47.474112" lon="7.689422">
        <ele>515.115478</ele>
        <time>2021-11-14T22:52:15.770Z</time>
      </trkpt>
      <trkpt lat="47.473806" lon="7.689795">
        <ele>512.688525</ele>
        <time>2021-11-14T22:52:19.450Z</time>
      </trkpt>
      <trkpt lat="47.473573" lon="7.690098">
        <ele>510.908027</ele>
        <time>2021-11-14T22:52:22.374Z</time>
      </trkpt>
      <trkpt lat="47.473463" lon="7.690185">
        <ele>510.192123</ele>
        <time>2021-11-14T22:52:23.919Z</time>
      </trkpt>
      <trkpt lat="47.473001" lon="7.690655">
        <ele>506.974043</ele>
        <time>2021-11-14T22:52:31.339Z</time>
      </trkpt>
      <trkpt lat="47.472742" lon="7.690827">
        <ele>505.344607</ele>
        <time>2021-11-14T22:52:35.292Z</time>
      </trkpt>
      <trkpt lat="47.472732" lon="7.690836">
        <ele>505.277425</ele>
        <time>2021-11-14T22:52:35.435Z</time>
      </trkpt>
      <trkpt lat="47.472628" lon="7.690924">
        <ele>504.589778</ele>
        <time>2021-11-14T22:52:37.029Z</time>
      </trkpt>
      <trkpt lat="47.472563" lon="7.690986">
        <ele>504.145889</ele>
        <time>2021-11-14T22:52:37.979Z</time>
      </trkpt>
      <trkpt lat="47.472366" lon="7.691205">
        <ele>502.770229</ele>
        <time>2021-11-14T22:52:41.356Z</time>
      </trkpt>
      <trkpt lat="47.472315" lon="7.691279">
        <ele>502.393688</ele>
        <time>2021-11-14T22:52:42.236Z</time>
      </trkpt>
      <trkpt lat="47.472254" lon="7.691369">
        <ele>501.939582</ele>
        <time>2021-11-14T22:52:43.342Z</time>
      </trkpt>
      <trkpt lat="47.472150" lon="7.691508">
        <ele>501.200806</ele>
        <time>2021-11-14T22:52:45.251Z</time>
      </trkpt>
      <trkpt lat="47.472119" lon="7.691551">
        <ele>500.976812</ele>
        <time>2021-11-14T22:52:45.787Z</time>
      </trkpt>
      <trkpt lat="47.471923" lon="7.691814">
        <ele>499.582019</ele>
        <time>2021-11-14T22:52:49.312Z</time>
      </trkpt>
      <trkpt lat="47.471763" lon="7.691936">
        <ele>498.633216</ele>
        <time>2021-11-14T22:52:51.612Z</time>
      </trkpt>
      <trkpt lat="47.471484" lon="7.691941">
        <ele>497.162479</ele>
        <time>2021-11-14T22:52:55.310Z</time>
      </trkpt>
      <trkpt lat="47.471360" lon="7.691969">
        <ele>496.501296</ele>
        <time>2021-11-14T22:52:56.907Z</time>
      </trkpt>
      <trkpt lat="47.471265" lon="7.692094">
        <ele>495.831136</ele>
        <time>2021-11-14T22:52:58.630Z</time>
      </trkpt>
      <trkpt lat="47.471191" lon="7.692040">
        <ele>495.396204</ele>
        <time>2021-11-14T22:52:59.827Z</time>
      </trkpt>
      <trkpt lat="47.470920" lon="7.691951">
        <ele>493.932968</ele>
        <time>2021-11-14T22:53:03.569Z</time>
      </trkpt>
      <trkpt lat="47.470866" lon="7.691940">
        <ele>493.704661</ele>
        <time>2021-11-14T22:53:04.565Z</time>
      </trkpt>
      <trkpt lat="47.470789" lon="7.691928">
        <ele>493.601796</ele>
        <time>2021-11-14T22:53:05.650Z</time>
      </trkpt>
      <trkpt lat="47.470706" lon="7.691876">
        <ele>493.482045</ele>
        <time>2021-11-14T22:53:06.973Z</time>
      </trkpt>
      <trkpt lat="47.470621" lon="7.691821">
        <ele>493.358788</ele>
        <time>2021-11-14T22:53:08.337Z</time>
      </trkpt>
      <trkpt lat="47.470580" lon="7.691779">
        <ele>493.292532</ele>
        <time>2021-11-14T22:53:09.176Z</time>
      </trkpt>
      <trkpt lat="47.470182" lon="7.691411">
        <ele>492.668981</ele>
        <time>2021-11-14T22:53:17.301Z</time>
      </trkpt>
      <trkpt lat="47.470094" lon="7.691405">
        <ele>492.551944</ele>
        <time>2021-11-14T22:53:18.748Z</time>
      </trkpt>
      <trkpt lat="47.470044" lon="7.691423">
        <ele>492.483577</ele>
        <time>2021-11-14T22:53:19.486Z</time>
      </trkpt>
      <trkpt lat="47.470016" lon="7.691425">
        <ele>492.446334</ele>
        <time>2021-11-14T22:53:19.887Z</time>
      </trkpt>
      <trkpt lat="47.469758" lon="7.691318">
        <ele>492.090351</ele>
        <time>2021-11-14T22:53:25.678Z</time>
      </trkpt>
      <trkpt lat="47.469735" lon="7.691305">
        <ele>492.057640</ele>
        <time>2021-11-14T22:53:26.031Z</time>
      </trkpt>
      <trkpt lat="47.469660" lon="7.691251">
        <ele>491.946823</ele>
        <time>2021-11-14T22:53:27.361Z</time>
      </trkpt>
      <trkpt lat="47.469627" lon="7.691221">
        <ele>491.895364</ele>
        <time>2021-11-14T22:53:28.053Z</time>
      </trkpt>
      <trkpt lat="47.469639" lon="7.691136">
        <ele>491.817380</ele>
        <time>2021-11-14T22:53:29.741Z</time>
      </trkpt>
      <trkpt lat="47.469567" lon="7.690912">
        <ele>491.594626</ele>
        <time>2021-11-14T22:53:33.268Z</time>
      </trkpt>
      <trkpt lat="47.469120" lon="7.690368">
        <ele>491.695704</ele>
        <time>2021-11-14T22:53:45.057Z</time>
      </trkpt>
      <trkpt lat="47.468870" lon="7.689916">
        <ele>492.067212</ele>
        <time>2021-11-14T22:53:53.732Z</time>
      </trkpt>
      <trkpt lat="47.468233" lon="7.687970">
        <ele>494.109488</ele>
        <time>2021-11-14T22:54:31.829Z</time>
      </trkpt>
      <trkpt lat="47.468041" lon="7.687737">
        <ele>494.718623</ele>
        <time>2021-11-14T22:54:39.744Z</time>
      </trkpt>
      <trkpt lat="47.467992" lon="7.687724">
        <ele>494.840729</ele>
        <time>2021-11-14T22:54:40.634Z</time>
      </trkpt>
      <trkpt lat="47.467982" lon="7.687446">
        <ele>495.302338</ele>
        <time>2021-11-14T22:54:45.118Z</time>
      </trkpt>
      <trkpt lat="47.467962" lon="7.686959">
        <ele>496.111329</ele>
        <time>2021-11-14T22:54:53.280Z</time>
      </trkpt>
      <trkpt lat="47.467955" lon="7.686883">
        <ele>496.238510</ele>
        <time>2021-11-14T22:54:54.852Z</time>
      </trkpt>
      <trkpt lat="47.467944" lon="7.686802">
        <ele>496.375501</ele>
        <time>2021-11-14T22:54:57.138Z</time>
      </trkpt>
      <trkpt lat="47.467903" lon="7.686228">
        <ele>497.332559</ele>
        <time>2021-11-14T22:55:07.992Z</time>
      </trkpt>
      <trkpt lat="47.467634" lon="7.685225">
        <ele>499.547141</ele>
        <time>2021-11-14T22:55:27.681Z</time>
      </trkpt>
      <trkpt lat="47.467421" lon="7.684954">
        <ele>500.410479</ele>
        <time>2021-11-14T22:55:34.939Z</time>
      </trkpt>
      <trkpt lat="47.467191" lon="7.684794">
        <ele>501.191515</ele>
        <time>2021-11-14T22:55:42.084Z</time>
      </trkpt>
      <trkpt lat="47.466989" lon="7.684714">
        <ele>501.834118</ele>
        <time>2021-11-14T22:55:48.213Z</time>
      </trkpt>
      <trkpt lat="47.466906" lon="7.684669">
        <ele>502.105766</ele>
        <time>2021-11-14T22:55:49.984Z</time>
      </trkpt>
      <trkpt lat="47.466641" lon="7.684424">
        <ele>503.046306</ele>
        <time>2021-11-14T22:55:58.904Z</time>
      </trkpt>
      <trkpt lat="47.466498" lon="7.684286">
        <ele>503.466881</ele>
        <time>2021-11-14T22:56:02.719Z</time>
      </trkpt>
      <trkpt lat="47.466312" lon="7.684068">
        <ele>504.051428</ele>
        <time>2021-11-14T22:56:09.934Z</time>
      </trkpt>
      <trkpt lat="47.466076" lon="7.683890">
        <ele>504.703961</ele>
        <time>2021-11-14T22:56:16.568Z</time>
      </trkpt>
      <trkpt lat="47.465392" lon="7.683703">
        <ele>506.417358</ele>
        <time>2021-11-14T22:56:32.381Z</time>
      </trkpt>
      <trkpt lat="47.465290" lon="7.683628">
        <ele>506.697939</ele>
        <time>2021-11-14T22:56:35.998Z</time>
      </trkpt>
      <trkpt lat="47.465251" lon="7.683614">
        <ele>506.796794</ele>
        <time>2021-11-14T22:56:36.583Z</time>
      </trkpt>
      <trkpt lat="47.465027" lon="7.683605">
        <ele>507.348766</ele>
        <time>2021-11-14T22:56:41.259Z</time>
      </trkpt>
      <trkpt lat="47.464583" lon="7.683831">
        <ele>508.022219</ele>
        <time>2021-11-14T22:56:53.377Z</time>
      </trkpt>
      <trkpt lat="47.464034" lon="7.684302">
        <ele>508.904077</ele>
        <time>2021-11-14T22:57:06.995Z</time>
      </trkpt>
      <trkpt lat="47.463728" lon="7.684461">
        <ele>509.354735</ele>
        <time>2021-11-14T22:57:13.150Z</time>
      </trkpt>
      <trkpt lat="47.463621" lon="7.684490">
        <ele>509.505887</ele>
        <time>2021-11-14T22:57:14.758Z</time>
      </trkpt>
      <trkpt lat="47.463537" lon="7.684513">
        <ele>509.624588</ele>
        <time>2021-11-14T22:57:16.706Z</time>
      </trkpt>
      <trkpt lat="47.462894" lon="7.684798">
        <ele>508.873742</ele>
        <time>2021-11-14T22:57:26.327Z</time>
      </trkpt>
      <trkpt lat="47.462573" lon="7.685126">
        <ele>508.035344</ele>
        <time>2021-11-14T22:57:31.628Z</time>
      </trkpt>
      <trkpt lat="47.462431" lon="7.685413">
        <ele>507.518649</ele>
        <time>2021-11-14T22:57:34.099Z</time>
      </trkpt>
      <trkpt lat="47.462230" lon="7.686031">
        <ele>506.522301</ele>
        <time>2021-11-14T22:57:38.698Z</time>
      </trkpt>
      <trkpt lat="47.461984" lon="7.687072">
        <ele>503.131061</ele>
        <time>2021-11-14T22:57:45.683Z</time>
      </trkpt>
      <trkpt lat="47.461972" lon="7.687177">
        <ele>502.727173</ele>
        <time>2021-11-14T22:57:46.303Z</time>
      </trkpt>
      <trkpt lat="47.462000" lon="7.687643">
        <ele>500.952785</ele>
        <time>2021-11-14T22:57:49.297Z</time>
      </trkpt>
      <trkpt lat="47.462002" lon="7.687665">
        <ele>500.868593</ele>
        <time>2021-11-14T22:57:49.420Z</time>
      </trkpt>
      <trkpt lat="47.462005" lon="7.687824">
        <ele>500.265311</ele>
        <time>2021-11-14T22:57:50.465Z</time>
      </trkpt>
      <trkpt lat="47.461993" lon="7.687881">
        <ele>500.038886</ele>
        <time>2021-11-14T22:57:50.814Z</time>
      </trkpt>
      <trkpt lat="47.461961" lon="7.687940">
        <ele>499.752005</ele>
        <time>2021-11-14T22:57:51.273Z</time>
      </trkpt>
      <trkpt lat="47.461573" lon="7.688133">
        <ele>497.455566</ele>
        <time>2021-11-14T22:57:55.083Z</time>
      </trkpt>
      <trkpt lat="47.461474" lon="7.688285">
        <ele>496.655063</ele>
        <time>2021-11-14T22:57:56.376Z</time>
      </trkpt>
      <trkpt lat="47.461308" lon="7.688774">
        <ele>494.664472</ele>
        <time>2021-11-14T22:57:59.804Z</time>
      </trkpt>
      <trkpt lat="47.461244" lon="7.688979">
        <ele>493.861382</ele>
        <time>2021-11-14T22:58:01.160Z</time>
      </trkpt>
      <trkpt lat="47.460982" lon="7.689640">
        <ele>491.136209</ele>
        <time>2021-11-14T22:58:06.030Z</time>
      </trkpt>
      <trkpt lat="47.460924" lon="7.689788">
        <ele>490.527788</ele>
        <time>2021-11-14T22:58:07.229Z</time>
      </trkpt>
      <trkpt lat="47.460887" lon="7.689882">
        <ele>490.140930</ele>
        <time>2021-11-14T22:58:07.899Z</time>
      </trkpt>
      <trkpt lat="47.460567" lon="7.690698">
        <ele>486.785812</ele>
        <time>2021-11-14T22:58:13.923Z</time>
      </trkpt>
      <trkpt lat="47.460527" lon="7.690900">
        <ele>485.997086</ele>
        <time>2021-11-14T22:58:15.240Z</time>
      </trkpt>
      <trkpt lat="47.460332" lon="7.691305">
        <ele>484.068146</ele>
        <time>2021-11-14T22:58:18.409Z</time>
      </trkpt>
      <trkpt lat="47.460237" lon="7.691415">
        <ele>483.375842</ele>
        <time>2021-11-14T22:58:19.515Z</time>
      </trkpt>
      <trkpt lat="47.460142" lon="7.691485">
        <ele>482.766814</ele>
        <time>2021-11-14T22:58:20.548Z</time>
      </trkpt>
      <trkpt lat="47.460040" lon="7.691529">
        <ele>482.157134</ele>
        <time>2021-11-14T22:58:21.529Z</time>
      </trkpt>
      <trkpt lat="47.459969" lon="7.691598">
        <ele>481.669646</ele>
        <time>2021-11-14T22:58:22.303Z</time>
      </trkpt>
      <trkpt lat="47.459833" lon="7.691807">
        <ele>480.544267</ele>
        <time>2021-11-14T22:58:24.147Z</time>
      </trkpt>
      <trkpt lat="47.459726" lon="7.691933">
        <ele>479.759451</ele>
        <time>2021-11-14T22:58:25.420Z</time>
      </trkpt>
      <trkpt lat="47.459512" lon="7.692150">
        <ele>478.270598</ele>
        <time>2021-11-14T22:58:27.842Z</time>
      </trkpt>
      <trkpt lat="47.458680" lon="7.692981">
        <ele>470.827049</ele>
        <time>2021-11-14T22:58:36.846Z</time>
      </trkpt>
      <trkpt lat="47.458350" lon="7.693227">
        <ele>467.728401</ele>
        <time>2021-11-14T22:58:40.129Z</time>
      </trkpt>
      <trkpt lat="47.458275" lon="7.693264">
        <ele>467.065464</ele>
        <time>2021-11-14T22:58:40.835Z</time>
      </trkpt>
      <trkpt lat="47.458159" lon="7.693302">
        <ele>466.069231</ele>
        <time>2021-11-14T22:58:41.861Z</time>
      </trkpt>
      <trkpt lat="47.456901" lon="7.693261">
        <ele>454.188251</ele>
        <time>2021-11-14T22:58:52.671Z</time>
      </trkpt>
      <trkpt lat="47.456706" lon="7.693380">
        <ele>451.996154</ele>
        <time>2021-11-14T22:58:54.444Z</time>
      </trkpt>
      <trkpt lat="47.456530" lon="7.693672">
        <ele>449.247632</ele>
        <time>2021-11-14T22:58:56.697Z</time>
      </trkpt>
      <trkpt lat="47.456359" lon="7.694278">
        <ele>444.633766</ele>
        <time>2021-11-14T22:59:00.494Z</time>
      </trkpt>
      <trkpt lat="47.456322" lon="7.695329">
        <ele>439.468149</ele>
        <time>2021-11-14T22:59:06.707Z</time>
      </trkpt>
      <trkpt lat="47.456396" lon="7.696120">
        <ele>436.287625</ele>
        <time>2021-11-14T22:59:11.645Z</time>
      </trkpt>
      <trkpt lat="47.456532" lon="7.696955">
        <ele>432.866742</ele>
        <time>2021-11-14T22:59:17.289Z</time>
      </trkpt>
      <trkpt lat="47.456688" lon="7.697431">
        <ele>431.253542</ele>
        <time>2021-11-14T22:59:21.049Z</time>
      </trkpt>
      <trkpt lat="47.456847" lon="7.697595">
        <ele>430.658727</ele>
        <time>2021-11-14T22:59:23.226Z</time>
      </trkpt>
      <trkpt lat="47.457169" lon="7.697669">
        <ele>429.658827</ele>
        <time>2021-11-14T22:59:26.868Z</time>
      </trkpt>
      <trkpt lat="47.458081" lon="7.697069">
        <ele>426.596020</ele>
        <time>2021-11-14T22:59:37.315Z</time>
      </trkpt>
      <trkpt lat="47.458770" lon="7.696840">
        <ele>421.899219</ele>
        <time>2021-11-14T22:59:43.851Z</time>
      </trkpt>
      <trkpt lat="47.459113" lon="7.696826">
        <ele>419.400311</ele>
        <time>2021-11-14T22:59:46.923Z</time>
      </trkpt>
      <trkpt lat="47.460363" lon="7.696986">
        <ele>409.506648</ele>
        <time>2021-11-14T22:59:57.850Z</time>
      </trkpt>
      <trkpt lat="47.461848" lon="7.698031">
        <ele>394.742081</ele>
        <time>2021-11-14T23:00:12.108Z</time>
      </trkpt>
      <trkpt lat="47.462574" lon="7.699094">
        <ele>386.722213</ele>
        <time>2021-11-14T23:00:21.135Z</time>
      </trkpt>
      <trkpt lat="47.462754" lon="7.699363">
        <ele>384.713383</ele>
        <time>2021-11-14T23:00:23.438Z</time>
      </trkpt>
      <trkpt lat="47.462793" lon="7.699421">
        <ele>384.279205</ele>
        <time>2021-11-14T23:00:23.923Z</time>
      </trkpt>
      <trkpt lat="47.462813" lon="7.699502">
        <ele>383.821513</ele>
        <time>2021-11-14T23:00:24.471Z</time>
      </trkpt>
      <trkpt lat="47.462796" lon="7.699545">
        <ele>383.557128</ele>
        <time>2021-11-14T23:00:24.751Z</time>
      </trkpt>
      <trkpt lat="47.463359" lon="7.700426">
        <ele>379.040456</ele>
        <time>2021-11-14T23:00:32.233Z</time>
      </trkpt>
      <trkpt lat="47.463772" lon="7.701164">
        <ele>375.753114</ele>
        <time>2021-11-14T23:00:38.307Z</time>
      </trkpt>
      <trkpt lat="47.463937" lon="7.701607">
        <ele>374.017618</ele>
        <time>2021-11-14T23:00:41.758Z</time>
      </trkpt>
      <trkpt lat="47.464000" lon="7.701766">
        <ele>373.406465</ele>
        <time>2021-11-14T23:00:43.076Z</time>
      </trkpt>
      <trkpt lat="47.464072" lon="7.701939">
        <ele>373.152634</ele>
        <time>2021-11-14T23:00:44.472Z</time>
      </trkpt>
      <trkpt lat="47.464145" lon="7.702140">
        <ele>372.867549</ele>
        <time>2021-11-14T23:00:46.116Z</time>
      </trkpt>
      <trkpt lat="47.464286" lon="7.702526">
        <ele>372.319362</ele>
        <time>2021-11-14T23:00:49.268Z</time>
      </trkpt>
      <trkpt lat="47.464452" lon="7.702824">
        <ele>371.836914</ele>
        <time>2021-11-14T23:00:52.118Z</time>
      </trkpt>
      <trkpt lat="47.465795" lon="7.703769">
        <ele>369.560666</ele>
        <time>2021-11-14T23:01:10.039Z</time>
      </trkpt>
      <trkpt lat="47.466755" lon="7.704531">
        <ele>368.492444</ele>
        <time>2021-11-14T23:01:23.811Z</time>
      </trkpt>
      <trkpt lat="47.467815" lon="7.705596">
        <ele>366.580670</ele>
        <time>2021-11-14T23:01:38.938Z</time>
      </trkpt>
      <trkpt lat="47.468413" lon="7.706115">
        <ele>365.486324</ele>
        <time>2021-11-14T23:01:46.551Z</time>
      </trkpt>
      <trkpt lat="47.468635" lon="7.706377">
        <ele>364.849831</ele>
        <time>2021-11-14T23:01:49.534Z</time>
      </trkpt>
      <trkpt lat="47.469170" lon="7.707258">
        <ele>363.055587</ele>
        <time>2021-11-14T23:01:58.044Z</time>
      </trkpt>
      <trkpt lat="47.469380" lon="7.707614">
        <ele>362.339751</ele>
        <time>2021-11-14T23:02:01.499Z</time>
      </trkpt>
      <trkpt lat="47.469610" lon="7.708033">
        <ele>361.522016</ele>
        <time>2021-11-14T23:02:05.488Z</time>
      </trkpt>
      <trkpt lat="47.469909" lon="7.708638">
        <ele>360.661884</ele>
        <time>2021-11-14T23:02:11.118Z</time>
      </trkpt>
      <trkpt lat="47.470047" lon="7.709159">
        <ele>360.027489</ele>
        <time>2021-11-14T23:02:15.271Z</time>
      </trkpt>
      <trkpt lat="47.470067" lon="7.709310">
        <ele>359.853043</ele>
        <time>2021-11-14T23:02:16.382Z</time>
      </trkpt>
      <trkpt lat="47.470076" lon="7.709368">
        <ele>359.785577</ele>
        <time>2021-11-14T23:02:16.808Z</time>
      </trkpt>
      <trkpt lat="47.470084" lon="7.709442">
        <ele>359.700616</ele>
        <time>2021-11-14T23:02:17.358Z</time>
      </trkpt>
      <trkpt lat="47.470112" lon="7.709694">
        <ele>359.411085</ele>
        <time>2021-11-14T23:02:19.461Z</time>
      </trkpt>
      <trkpt lat="47.470143" lon="7.709955">
        <ele>359.110652</ele>
        <time>2021-11-14T23:02:21.517Z</time>
      </trkpt>
      <trkpt lat="47.470180" lon="7.710275">
        <ele>358.742594</ele>
        <time>2021-11-14T23:02:24.225Z</time>
      </trkpt>
      <trkpt lat="47.470259" lon="7.710925">
        <ele>358.188261</ele>
        <time>2021-11-14T23:02:29.554Z</time>
      </trkpt>
      <trkpt lat="47.470351" lon="7.711728">
        <ele>357.646843</ele>
        <time>2021-11-14T23:02:36.170Z</time>
      </trkpt>
      <trkpt lat="47.470642" lon="7.713023">
        <ele>356.739659</ele>
        <time>2021-11-14T23:02:47.441Z</time>
      </trkpt>
      <trkpt lat="47.470946" lon="7.713885">
        <ele>356.515506</ele>
        <time>2021-11-14T23:02:56.338Z</time>
      </trkpt>
      <trkpt lat="47.471325" lon="7.714590">
        <ele>356.336859</ele>
        <time>2021-11-14T23:03:05.282Z</time>
      </trkpt>
      <trkpt lat="47.472567" lon="7.716575">
        <ele>355.389348</ele>
        <time>2021-11-14T23:03:30.940Z</time>
      </trkpt>
      <trkpt lat="47.472871" lon="7.716996">
        <ele>355.130281</ele>
        <time>2021-11-14T23:03:35.848Z</time>
      </trkpt>
      <trkpt lat="47.473156" lon="7.717335">
        <ele>354.576942</ele>
        <time>2021-11-14T23:03:40.030Z</time>
      </trkpt>
      <trkpt lat="47.473606" lon="7.717762">
        <ele>353.499568</ele>
        <time>2021-11-14T23:03:45.940Z</time>
      </trkpt>
      <trkpt lat="47.474069" lon="7.718201">
        <ele>352.391320</ele>
        <time>2021-11-14T23:03:51.916Z</time>
      </trkpt>
      <trkpt lat="47.474708" lon="7.719015">
        <ele>350.581140</ele>
        <time>2021-11-14T23:04:00.814Z</time>
      </trkpt>
      <trkpt lat="47.475257" lon="7.720022">
        <ele>348.551856</ele>
        <time>2021-11-14T23:04:10.428Z</time>
      </trkpt>
      <trkpt lat="47.475329" lon="7.720172">
        <ele>348.263285</ele>
        <time>2021-11-14T23:04:11.666Z</time>
      </trkpt>
      <trkpt lat="47.475505" lon="7.720617">
        <ele>347.454578</ele>
        <time>2021-11-14T23:04:15.349Z</time>
      </trkpt>
      <trkpt lat="47.475616" lon="7.720927">
        <ele>346.898769</ele>
        <time>2021-11-14T23:04:17.949Z</time>
      </trkpt>
      <trkpt lat="47.475707" lon="7.721185">
        <ele>346.434963</ele>
        <time>2021-11-14T23:04:19.969Z</time>
      </trkpt>
      <trkpt lat="47.475900" lon="7.721818">
        <ele>345.328232</ele>
        <time>2021-11-14T23:04:25.011Z</time>
      </trkpt>
      <trkpt lat="47.475927" lon="7.721919">
        <ele>345.155132</ele>
        <time>2021-11-14T23:04:25.748Z</time>
      </trkpt>
      <trkpt lat="47.476049" lon="7.722374">
        <ele>344.375007</ele>
        <time>2021-11-14T23:04:29.260Z</time>
      </trkpt>
      <trkpt lat="47.476793" lon="7.725064">
        <ele>340.370024</ele>
        <time>2021-11-14T23:04:50.607Z</time>
      </trkpt>
      <trkpt lat="47.476967" lon="7.725567">
        <ele>339.642448</ele>
        <time>2021-11-14T23:04:55.047Z</time>
      </trkpt>
      <trkpt lat="47.477379" lon="7.726682">
        <ele>338.544690</ele>
        <time>2021-11-14T23:05:05.222Z</time>
      </trkpt>
      <trkpt lat="47.477988" lon="7.728170">
        <ele>337.100381</ele>
        <time>2021-11-14T23:05:19.261Z</time>
      </trkpt>
      <trkpt lat="47.478261" lon="7.728599">
        <ele>336.659646</ele>
        <time>2021-11-14T23:05:24.017Z</time>
      </trkpt>
      <trkpt lat="47.478397" lon="7.728759">
        <ele>336.467355</ele>
        <time>2021-11-14T23:05:26.007Z</time>
      </trkpt>
      <trkpt lat="47.478916" lon="7.729363">
        <ele>335.736597</ele>
        <time>2021-11-14T23:05:34.231Z</time>
      </trkpt>
      <trkpt lat="47.479654" lon="7.730273">
        <ele>334.399810</ele>
        <time>2021-11-14T23:05:45.921Z</time>
      </trkpt>
      <trkpt lat="47.479926" lon="7.730540">
        <ele>333.889347</ele>
        <time>2021-11-14T23:05:49.574Z</time>
      </trkpt>
      <trkpt lat="47.480141" lon="7.730646">
        <ele>333.534946</ele>
        <time>2021-11-14T23:05:52.176Z</time>
      </trkpt>
      <trkpt lat="47.480356" lon="7.730752">
        <ele>333.180545</ele>
        <time>2021-11-14T23:05:54.648Z</time>
      </trkpt>
      <trkpt lat="47.480681" lon="7.730865">
        <ele>332.658451</ele>
        <time>2021-11-14T23:05:58.345Z</time>
      </trkpt>
      <trkpt lat="47.480699" lon="7.730869">
        <ele>332.629986</ele>
        <time>2021-11-14T23:05:58.537Z</time>
      </trkpt>
      <trkpt lat="47.480748" lon="7.730881">
        <ele>332.552315</ele>
        <time>2021-11-14T23:05:59.113Z</time>
      </trkpt>
      <trkpt lat="47.480913" lon="7.730920">
        <ele>332.222046</ele>
        <time>2021-11-14T23:06:00.968Z</time>
      </trkpt>
      <trkpt lat="47.480994" lon="7.730939">
        <ele>332.055665</ele>
        <time>2021-11-14T23:06:01.815Z</time>
      </trkpt>
      <trkpt lat="47.481163" lon="7.730983">
        <ele>331.707538</ele>
        <time>2021-11-14T23:06:03.779Z</time>
      </trkpt>
      <trkpt lat="47.481297" lon="7.731018">
        <ele>331.431482</ele>
        <time>2021-11-14T23:06:05.261Z</time>
      </trkpt>
      <trkpt lat="47.481327" lon="7.731025">
        <ele>331.369867</ele>
        <time>2021-11-14T23:06:05.569Z</time>
      </trkpt>
      <trkpt lat="47.481374" lon="7.731038">
        <ele>331.272864</ele>
        <time>2021-11-14T23:06:06.101Z</time>
      </trkpt>
      <trkpt lat="47.481437" lon="7.731054">
        <ele>331.143183</ele>
        <time>2021-11-14T23:06:06.806Z</time>
      </trkpt>
      <trkpt lat="47.481953" lon="7.731203">
        <ele>330.076597</ele>
        <time>2021-11-14T23:06:12.334Z</time>
      </trkpt>
      <trkpt lat="47.482293" lon="7.731321">
        <ele>329.368101</ele>
        <time>2021-11-14T23:06:16.079Z</time>
      </trkpt>
      <trkpt lat="47.482674" lon="7.731454">
        <ele>328.709869</ele>
        <time>2021-11-14T23:06:20.536Z</time>
      </trkpt>
      <trkpt lat="47.483093" lon="7.731601">
        <ele>328.232063</ele>
        <time>2021-11-14T23:06:26.039Z</time>
      </trkpt>
      <trkpt lat="47.483122" lon="7.731612">
        <ele>328.198844</ele>
        <time>2021-11-14T23:06:26.413Z</time>
      </trkpt>
      <trkpt lat="47.483284" lon="7.731664">
        <ele>328.014910</ele>
        <time>2021-11-14T23:06:28.885Z</time>
      </trkpt>
      <trkpt lat="47.483387" lon="7.731701">
        <ele>327.897303</ele>
        <time>2021-11-14T23:06:30.163Z</time>
      </trkpt>
      <trkpt lat="47.483481" lon="7.731683">
        <ele>327.792132</ele>
        <time>2021-11-14T23:06:31.305Z</time>
      </trkpt>
      <trkpt lat="47.483541" lon="7.731651">
        <ele>327.721365</ele>
        <time>2021-11-14T23:06:32.367Z</time>
      </trkpt>
      <trkpt lat="47.484188" lon="7.730675">
        <ele>326.508341</ele>
        <time>2021-11-14T23:06:43.390Z</time>
      </trkpt>
      <trkpt lat="47.484379" lon="7.730516">
        <ele>326.014268</ele>
        <time>2021-11-14T23:06:45.907Z</time>
      </trkpt>
      <trkpt lat="47.484446" lon="7.730531">
        <ele>325.861497</ele>
        <time>2021-11-14T23:06:46.627Z</time>
      </trkpt>
      <trkpt lat="47.484524" lon="7.730612">
        <ele>325.646664</ele>
        <time>2021-11-14T23:06:47.639Z</time>
      </trkpt>
      <trkpt lat="47.484753" lon="7.730938">
        <ele>324.930257</ele>
        <time>2021-11-14T23:06:51.101Z</time>
      </trkpt>
      <trkpt lat="47.484948" lon="7.731213">
        <ele>324.322956</ele>
        <time>2021-11-14T23:06:53.955Z</time>
      </trkpt>
      <trkpt lat="47.485104" lon="7.731443">
        <ele>323.826482</ele>
        <time>2021-11-14T23:06:56.316Z</time>
      </trkpt>
      <trkpt lat="47.485181" lon="7.731560">
        <ele>323.577664</ele>
        <time>2021-11-14T23:06:57.461Z</time>
      </trkpt>
      <trkpt lat="47.485199" lon="7.731623">
        <ele>323.473454</ele>
        <time>2021-11-14T23:06:57.952Z</time>
      </trkpt>
      <trkpt lat="47.485205" lon="7.731776">
        <ele>323.239959</ele>
        <time>2021-11-14T23:06:58.989Z</time>
      </trkpt>
      <trkpt lat="47.485209" lon="7.731931">
        <ele>323.003637</ele>
        <time>2021-11-14T23:07:00.121Z</time>
      </trkpt>
      <trkpt lat="47.485231" lon="7.732115">
        <ele>322.712594</ele>
        <time>2021-11-14T23:07:01.448Z</time>
      </trkpt>
      <trkpt lat="47.485263" lon="7.732218">
        <ele>322.529346</ele>
        <time>2021-11-14T23:07:02.164Z</time>
      </trkpt>
      <trkpt lat="47.485374" lon="7.732366">
        <ele>322.171952</ele>
        <time>2021-11-14T23:07:03.713Z</time>
      </trkpt>
      <trkpt lat="47.485607" lon="7.732608">
        <ele>321.491037</ele>
        <time>2021-11-14T23:07:06.560Z</time>
      </trkpt>
      <trkpt lat="47.485615" lon="7.732708">
        <ele>321.328263</ele>
        <time>2021-11-14T23:07:07.325Z</time>
      </trkpt>
      <trkpt lat="47.485619" lon="7.732745">
        <ele>321.267694</ele>
        <time>2021-11-14T23:07:07.578Z</time>
      </trkpt>
      <trkpt lat="47.485622" lon="7.732779">
        <ele>321.212268</ele>
        <time>2021-11-14T23:07:07.813Z</time>
      </trkpt>
      <trkpt lat="47.485621" lon="7.732816">
        <ele>321.152411</ele>
        <time>2021-11-14T23:07:08.080Z</time>
      </trkpt>
      <trkpt lat="47.485621" lon="7.732881">
        <ele>321.047342</ele>
        <time>2021-11-14T23:07:08.560Z</time>
      </trkpt>
      <trkpt lat="47.485609" lon="7.732921">
        <ele>320.976599</ele>
        <time>2021-11-14T23:07:08.885Z</time>
      </trkpt>
      <trkpt lat="47.485583" lon="7.733031">
        <ele>320.788226</ele>
        <time>2021-11-14T23:07:09.631Z</time>
      </trkpt>
      <trkpt lat="47.485554" lon="7.733208">
        <ele>320.493825</ele>
        <time>2021-11-14T23:07:11.132Z</time>
      </trkpt>
      <trkpt lat="47.485561" lon="7.733353">
        <ele>320.258842</ele>
        <time>2021-11-14T23:07:12.210Z</time>
      </trkpt>
      <trkpt lat="47.485587" lon="7.733415">
        <ele>320.140893</ele>
        <time>2021-11-14T23:07:12.810Z</time>
      </trkpt>
      <trkpt lat="47.485602" lon="7.733445">
        <ele>320.080569</ele>
        <time>2021-11-14T23:07:13.068Z</time>
      </trkpt>
      <trkpt lat="47.485625" lon="7.733476">
        <ele>320.006153</ele>
        <time>2021-11-14T23:07:13.366Z</time>
      </trkpt>
      <trkpt lat="47.485668" lon="7.733521">
        <ele>319.880175</ele>
        <time>2021-11-14T23:07:13.887Z</time>
      </trkpt>
      <trkpt lat="47.485916" lon="7.733734">
        <ele>319.194283</ele>
        <time>2021-11-14T23:07:17.141Z</time>
      </trkpt>
      <trkpt lat="47.485942" lon="7.733758">
        <ele>319.120983</ele>
        <time>2021-11-14T23:07:17.426Z</time>
      </trkpt>
      <trkpt lat="47.485959" lon="7.733777">
        <ele>319.070024</ele>
        <time>2021-11-14T23:07:17.631Z</time>
      </trkpt>
      <trkpt lat="47.486030" lon="7.733887">
        <ele>318.824141</ele>
        <time>2021-11-14T23:07:18.922Z</time>
      </trkpt>
      <trkpt lat="47.486064" lon="7.733959">
        <ele>318.682157</ele>
        <time>2021-11-14T23:07:19.571Z</time>
      </trkpt>
      <trkpt lat="47.486116" lon="7.734202">
        <ele>318.339578</ele>
        <time>2021-11-14T23:07:22.357Z</time>
      </trkpt>
      <trkpt lat="47.486105" lon="7.734520">
        <ele>317.967442</ele>
        <time>2021-11-14T23:07:24.868Z</time>
      </trkpt>
      <trkpt lat="47.486098" lon="7.734739">
        <ele>317.711209</ele>
        <time>2021-11-14T23:07:26.643Z</time>
      </trkpt>
      <trkpt lat="47.486096" lon="7.734792">
        <ele>317.649171</ele>
        <time>2021-11-14T23:07:27.055Z</time>
      </trkpt>
      <trkpt lat="47.486091" lon="7.734940">
        <ele>317.475986</ele>
        <time>2021-11-14T23:07:28.642Z</time>
      </trkpt>
      <trkpt lat="47.486083" lon="7.735015">
        <ele>317.387248</ele>
        <time>2021-11-14T23:07:29.311Z</time>
      </trkpt>
      <trkpt lat="47.486078" lon="7.735123">
        <ele>317.260731</ele>
        <time>2021-11-14T23:07:30.285Z</time>
      </trkpt>
      <trkpt lat="47.486080" lon="7.735202">
        <ele>317.168339</ele>
        <time>2021-11-14T23:07:30.841Z</time>
      </trkpt>
      <trkpt lat="47.486093" lon="7.735299">
        <ele>317.052766</ele>
        <time>2021-11-14T23:07:31.533Z</time>
      </trkpt>
      <trkpt lat="47.486134" lon="7.735440">
        <ele>316.873370</ele>
        <time>2021-11-14T23:07:32.730Z</time>
      </trkpt>
      <trkpt lat="47.486151" lon="7.735532">
        <ele>316.761902</ele>
        <time>2021-11-14T23:07:33.450Z</time>
      </trkpt>
      <trkpt lat="47.486157" lon="7.735604">
        <ele>316.677118</ele>
        <time>2021-11-14T23:07:34.027Z</time>
      </trkpt>
      <trkpt lat="47.486154" lon="7.735694">
        <ele>316.571806</ele>
        <time>2021-11-14T23:07:34.645Z</time>
      </trkpt>
      <trkpt lat="47.486144" lon="7.735743">
        <ele>316.511985</ele>
        <time>2021-11-14T23:07:35.015Z</time>
      </trkpt>
      <trkpt lat="47.486119" lon="7.735898">
        <ele>316.325747</ele>
        <time>2021-11-14T23:07:36.262Z</time>
      </trkpt>
      <trkpt lat="47.486042" lon="7.736224">
        <ele>315.922146</ele>
        <time>2021-11-14T23:07:38.710Z</time>
      </trkpt>
      <trkpt lat="47.486015" lon="7.736344">
        <ele>315.774331</ele>
        <time>2021-11-14T23:07:39.888Z</time>
      </trkpt>
      <trkpt lat="47.485907" lon="7.736780">
        <ele>315.266339</ele>
        <time>2021-11-14T23:07:43.299Z</time>
      </trkpt>
      <trkpt lat="47.485878" lon="7.736850">
        <ele>315.189039</ele>
        <time>2021-11-14T23:07:44.040Z</time>
      </trkpt>
      <trkpt lat="47.485799" lon="7.736984">
        <ele>315.021624</ele>
        <time>2021-11-14T23:07:45.386Z</time>
      </trkpt>
      <trkpt lat="47.485750" lon="7.737070">
        <ele>314.915721</ele>
        <time>2021-11-14T23:07:46.158Z</time>
      </trkpt>
      <trkpt lat="47.485806" lon="7.737111">
        <ele>314.828678</ele>
        <time>2021-11-14T23:07:46.772Z</time>
      </trkpt>
      <trkpt lat="47.485875" lon="7.737156">
        <ele>314.723629</ele>
        <time>2021-11-14T23:07:47.707Z</time>
      </trkpt>
      <trkpt lat="47.485976" lon="7.737217">
        <ele>314.571652</ele>
        <time>2021-11-14T23:07:48.935Z</time>
      </trkpt>
      <trkpt lat="47.486087" lon="7.737329">
        <ele>314.384485</ele>
        <time>2021-11-14T23:07:50.323Z</time>
      </trkpt>
      <trkpt lat="47.486287" lon="7.737642">
        <ele>313.978939</ele>
        <time>2021-11-14T23:07:53.798Z</time>
      </trkpt>
      <trkpt lat="47.486314" lon="7.737686">
        <ele>313.922986</ele>
        <time>2021-11-14T23:07:54.211Z</time>
      </trkpt>
      <trkpt lat="47.486354" lon="7.737753">
        <ele>313.838819</ele>
        <time>2021-11-14T23:07:54.844Z</time>
      </trkpt>
      <trkpt lat="47.486384" lon="7.737805">
        <ele>313.774450</ele>
        <time>2021-11-14T23:07:55.472Z</time>
      </trkpt>
      <trkpt lat="47.486495" lon="7.737981">
        <ele>313.547805</ele>
        <time>2021-11-14T23:07:57.676Z</time>
      </trkpt>
      <trkpt lat="47.486621" lon="7.738169">
        <ele>313.298528</ele>
        <time>2021-11-14T23:07:59.707Z</time>
      </trkpt>
      <trkpt lat="47.486676" lon="7.738293">
        <ele>313.158889</ele>
        <time>2021-11-14T23:08:01.129Z</time>
      </trkpt>
      <trkpt lat="47.486689" lon="7.738358">
        <ele>313.095071</ele>
        <time>2021-11-14T23:08:01.750Z</time>
      </trkpt>
      <trkpt lat="47.486696" lon="7.738489">
        <ele>312.971358</ele>
        <time>2021-11-14T23:08:02.908Z</time>
      </trkpt>
      <trkpt lat="47.486688" lon="7.738613">
        <ele>312.984358</ele>
        <time>2021-11-14T23:08:03.842Z</time>
      </trkpt>
      <trkpt lat="47.486652" lon="7.738745">
        <ele>313.197406</ele>
        <time>2021-11-14T23:08:05.401Z</time>
      </trkpt>
      <trkpt lat="47.486599" lon="7.738994">
        <ele>313.588136</ele>
        <time>2021-11-14T23:08:07.770Z</time>
      </trkpt>
      <trkpt lat="47.486588" lon="7.739167">
        <ele>313.848211</ele>
        <time>2021-11-14T23:08:09.568Z</time>
      </trkpt>
      <trkpt lat="47.486574" lon="7.739389">
        <ele>314.181924</ele>
        <time>2021-11-14T23:08:12.467Z</time>
      </trkpt>
      <trkpt lat="47.486546" lon="7.739919">
        <ele>314.977600</ele>
        <time>2021-11-14T23:08:19.551Z</time>
      </trkpt>
      <trkpt lat="47.486498" lon="7.740674">
        <ele>316.112607</ele>
        <time>2021-11-14T23:08:34.146Z</time>
      </trkpt>
      <trkpt lat="47.486493" lon="7.740755">
        <ele>316.234345</ele>
        <time>2021-11-14T23:08:35.984Z</time>
      </trkpt>
      <trkpt lat="47.486469" lon="7.741035">
        <ele>316.656782</ele>
        <time>2021-11-14T23:08:42.683Z</time>
      </trkpt>
      <trkpt lat="47.486458" lon="7.741135">
        <ele>316.808424</ele>
        <time>2021-11-14T23:08:45.032Z</time>
      </trkpt>
      <trkpt lat="47.486413" lon="7.741401">
        <ele>317.693384</ele>
        <time>2021-11-14T23:08:51.526Z</time>
      </trkpt>
      <trkpt lat="47.486335" lon="7.741716">
        <ele>318.915967</ele>
        <time>2021-11-14T23:08:59.631Z</time>
      </trkpt>
      <trkpt lat="47.486221" lon="7.742103">
        <ele>320.454470</ele>
        <time>2021-11-14T23:09:10.523Z</time>
      </trkpt>
      <trkpt lat="47.486170" lon="7.742275">
        <ele>321.138970</ele>
        <time>2021-11-14T23:09:14.964Z</time>
      </trkpt>
      <trkpt lat="47.486081" lon="7.742579">
        <ele>322.346330</ele>
        <time>2021-11-14T23:09:24.473Z</time>
      </trkpt>
      <trkpt lat="47.485726" lon="7.743655">
        <ele>326.674278</ele>
        <time>2021-11-14T23:09:54.056Z</time>
      </trkpt>
      <trkpt lat="47.485353" lon="7.744189">
        <ele>328.655271</ele>
        <time>2021-11-14T23:10:11.499Z</time>
      </trkpt>
      <trkpt lat="47.485152" lon="7.744380">
        <ele>329.567057</ele>
        <time>2021-11-14T23:10:19.508Z</time>
      </trkpt>
      <trkpt lat="47.484772" lon="7.744741">
        <ele>331.290701</ele>
        <time>2021-11-14T23:10:30.698Z</time>
      </trkpt>
      <trkpt lat="47.484727" lon="7.744803">
        <ele>331.525393</ele>
        <time>2021-11-14T23:10:32.220Z</time>
      </trkpt>
      <trkpt lat="47.484658" lon="7.744938">
        <ele>331.962005</ele>
        <time>2021-11-14T23:10:34.729Z</time>
      </trkpt>
      <trkpt lat="47.484616" lon="7.745052">
        <ele>332.296927</ele>
        <time>2021-11-14T23:10:38.314Z</time>
      </trkpt>
      <trkpt lat="47.484266" lon="7.746897">
        <ele>337.904692</ele>
        <time>2021-11-14T23:11:14.439Z</time>
      </trkpt>
      <trkpt lat="47.484176" lon="7.747166">
        <ele>338.814857</ele>
        <time>2021-11-14T23:11:21.664Z</time>
      </trkpt>
      <trkpt lat="47.483953" lon="7.747697">
        <ele>340.710562</ele>
        <time>2021-11-14T23:11:36.289Z</time>
      </trkpt>
      <trkpt lat="47.483857" lon="7.747917">
        <ele>341.504642</ele>
        <time>2021-11-14T23:11:44.257Z</time>
      </trkpt>
      <trkpt lat="47.483653" lon="7.748384">
        <ele>344.115258</ele>
        <time>2021-11-14T23:12:00.843Z</time>
      </trkpt>
      <trkpt lat="47.483455" lon="7.748863">
        <ele>346.762033</ele>
        <time>2021-11-14T23:12:18.128Z</time>
      </trkpt>
      <trkpt lat="47.483127" lon="7.749663">
        <ele>351.172793</ele>
        <time>2021-11-14T23:12:43.802Z</time>
      </trkpt>
      <trkpt lat="47.483104" lon="7.749789">
        <ele>351.788017</ele>
        <time>2021-11-14T23:12:49.279Z</time>
      </trkpt>
      <trkpt lat="47.483118" lon="7.750142">
        <ele>353.454853</ele>
        <time>2021-11-14T23:12:57.318Z</time>
      </trkpt>
      <trkpt lat="47.483212" lon="7.750380">
        <ele>354.921232</ele>
        <time>2021-11-14T23:13:06.139Z</time>
      </trkpt>
      <trkpt lat="47.483353" lon="7.750495">
        <ele>356.317938</ele>
        <time>2021-11-14T23:13:12.067Z</time>
      </trkpt>
      <trkpt lat="47.483598" lon="7.750514">
        <ele>358.446276</ele>
        <time>2021-11-14T23:13:24.932Z</time>
      </trkpt>
      <trkpt lat="47.483821" lon="7.750312">
        <ele>360.714542</ele>
        <time>2021-11-14T23:13:38.130Z</time>
      </trkpt>
      <trkpt lat="47.484079" lon="7.749775">
        <ele>364.577315</ele>
        <time>2021-11-14T23:13:59.784Z</time>
      </trkpt>
      <trkpt lat="47.484276" lon="7.749526">
        <ele>366.824920</ele>
        <time>2021-11-14T23:14:13.130Z</time>
      </trkpt>
      <trkpt lat="47.484374" lon="7.749499">
        <ele>367.689699</ele>
        <time>2021-11-14T23:14:18.176Z</time>
      </trkpt>
      <trkpt lat="47.484403" lon="7.749499">
        <ele>367.941279</ele>
        <time>2021-11-14T23:14:19.819Z</time>
      </trkpt>
      <trkpt lat="47.484462" lon="7.749511">
        <ele>368.457928</ele>
        <time>2021-11-14T23:14:22.420Z</time>
      </trkpt>
      <trkpt lat="47.484510" lon="7.749532">
        <ele>368.892156</ele>
        <time>2021-11-14T23:14:25.190Z</time>
      </trkpt>
      <trkpt lat="47.484525" lon="7.749544">
        <ele>369.040083</ele>
        <time>2021-11-14T23:14:26.967Z</time>
      </trkpt>
      <trkpt lat="47.484572" lon="7.749580">
        <ele>369.499202</ele>
        <time>2021-11-14T23:14:30.445Z</time>
      </trkpt>
      <trkpt lat="47.484700" lon="7.749896">
        <ele>372.217216</ele>
        <time>2021-11-14T23:14:43.180Z</time>
      </trkpt>
      <trkpt lat="47.484640" lon="7.750440">
        <ele>376.356717</ele>
        <time>2021-11-14T23:15:05.103Z</time>
      </trkpt>
      <trkpt lat="47.484582" lon="7.750743">
        <ele>378.721778</ele>
        <time>2021-11-14T23:15:18.918Z</time>
      </trkpt>
      <trkpt lat="47.484428" lon="7.751559">
        <ele>385.084448</ele>
        <time>2021-11-14T23:15:56.197Z</time>
      </trkpt>
      <trkpt lat="47.484067" lon="7.753436">
        <ele>395.746932</ele>
        <time>2021-11-14T23:17:09.924Z</time>
      </trkpt>
      <trkpt lat="47.483916" lon="7.754251">
        <ele>399.578880</ele>
        <time>2021-11-14T23:17:26.269Z</time>
      </trkpt>
      <trkpt lat="47.483838" lon="7.754668">
        <ele>401.540843</ele>
        <time>2021-11-14T23:17:34.128Z</time>
      </trkpt>
      <trkpt lat="47.483795" lon="7.754908">
        <ele>402.012948</ele>
        <time>2021-11-14T23:17:37.631Z</time>
      </trkpt>
      <trkpt lat="47.483754" lon="7.755239">
        <ele>402.474220</ele>
        <time>2021-11-14T23:17:42.984Z</time>
      </trkpt>
      <trkpt lat="47.483769" lon="7.756121">
        <ele>403.683591</ele>
        <time>2021-11-14T23:17:56.222Z</time>
      </trkpt>
      <trkpt lat="47.483791" lon="7.756407">
        <ele>404.078153</ele>
        <time>2021-11-14T23:17:58.653Z</time>
      </trkpt>
      <trkpt lat="47.483892" lon="7.756713">
        <ele>404.544952</ele>
        <time>2021-11-14T23:18:03.255Z</time>
      </trkpt>
      <trkpt lat="47.484252" lon="7.757357">
        <ele>406.497444</ele>
        <time>2021-11-14T23:18:14.662Z</time>
      </trkpt>
      <trkpt lat="47.484552" lon="7.757716">
        <ele>409.299660</ele>
        <time>2021-11-14T23:18:30.346Z</time>
      </trkpt>
      <trkpt lat="47.485109" lon="7.758040">
        <ele>413.646468</ele>
        <time>2021-11-14T23:18:58.640Z</time>
      </trkpt>
      <trkpt lat="47.485584" lon="7.758116">
        <ele>417.116483</ele>
        <time>2021-11-14T23:19:22.505Z</time>
      </trkpt>
      <trkpt lat="47.485622" lon="7.758125">
        <ele>417.395988</ele>
        <time>2021-11-14T23:19:26.579Z</time>
      </trkpt>
      <trkpt lat="47.485673" lon="7.758136">
        <ele>417.770313</ele>
        <time>2021-11-14T23:19:29.891Z</time>
      </trkpt>
      <trkpt lat="47.485984" lon="7.758280">
        <ele>420.777491</ele>
        <time>2021-11-14T23:19:46.985Z</time>
      </trkpt>
      <trkpt lat="47.486303" lon="7.758588">
        <ele>424.588713</ele>
        <time>2021-11-14T23:20:07.900Z</time>
      </trkpt>
      <trkpt lat="47.486484" lon="7.758798">
        <ele>426.890070</ele>
        <time>2021-11-14T23:20:18.472Z</time>
      </trkpt>
      <trkpt lat="47.486636" lon="7.758922">
        <ele>428.626772</ele>
        <time>2021-11-14T23:20:30.309Z</time>
      </trkpt>
      <trkpt lat="47.487031" lon="7.759652">
        <ele>434.950129</ele>
        <time>2021-11-14T23:21:03.862Z</time>
      </trkpt>
      <trkpt lat="47.487890" lon="7.761232">
        <ele>449.426381</ele>
        <time>2021-11-14T23:22:21.340Z</time>
      </trkpt>
      <trkpt lat="47.488339" lon="7.762200">
        <ele>458.153867</ele>
        <time>2021-11-14T23:23:08.531Z</time>
      </trkpt>
      <trkpt lat="47.488582" lon="7.762924">
        <ele>464.699430</ele>
        <time>2021-11-14T23:23:42.373Z</time>
      </trkpt>
      <trkpt lat="47.488619" lon="7.763292">
        <ele>467.711938</ele>
        <time>2021-11-14T23:23:57.934Z</time>
      </trkpt>
      <trkpt lat="47.488592" lon="7.765070">
        <ele>481.627077</ele>
        <time>2021-11-14T23:25:16.642Z</time>
      </trkpt>
      <trkpt lat="47.488674" lon="7.765750">
        <ele>486.677327</ele>
        <time>2021-11-14T23:25:46.582Z</time>
      </trkpt>
      <trkpt lat="47.488779" lon="7.766201">
        <ele>490.164955</ele>
        <time>2021-11-14T23:26:07.217Z</time>
      </trkpt>
      <trkpt lat="47.488885" lon="7.766666">
        <ele>493.752952</ele>
        <time>2021-11-14T23:26:25.203Z</time>
      </trkpt>
      <trkpt lat="47.489047" lon="7.767376">
        <ele>496.750712</ele>
        <time>2021-11-14T23:26:47.252Z</time>
      </trkpt>
      <trkpt lat="47.489106" lon="7.767650">
        <ele>496.889948</ele>
        <time>2021-11-14T23:26:54.215Z</time>
      </trkpt>
      <trkpt lat="47.489166" lon="7.767905">
        <ele>497.020682</ele>
        <time>2021-11-14T23:26:59.786Z</time>
      </trkpt>
      <trkpt lat="47.489202" lon="7.768057">
        <ele>497.098666</ele>
        <time>2021-11-14T23:27:02.573Z</time>
      </trkpt>
      <trkpt lat="47.489217" lon="7.768114">
        <ele>497.128282</ele>
        <time>2021-11-14T23:27:03.908Z</time>
      </trkpt>
      <trkpt lat="47.489260" lon="7.768283">
        <ele>497.215716</ele>
        <time>2021-11-14T23:27:07.070Z</time>
      </trkpt>
      <trkpt lat="47.489330" lon="7.768521">
        <ele>497.341391</ele>
        <time>2021-11-14T23:27:09.240Z</time>
      </trkpt>
      <trkpt lat="47.489759" lon="7.769607">
        <ele>496.844053</ele>
        <time>2021-11-14T23:27:17.669Z</time>
      </trkpt>
      <trkpt lat="47.489882" lon="7.769861">
        <ele>495.070144</ele>
        <time>2021-11-14T23:27:19.535Z</time>
      </trkpt>
      <trkpt lat="47.490063" lon="7.770088">
        <ele>493.076999</ele>
        <time>2021-11-14T23:27:21.609Z</time>
      </trkpt>
      <trkpt lat="47.490367" lon="7.770241">
        <ele>490.379471</ele>
        <time>2021-11-14T23:27:24.352Z</time>
      </trkpt>
      <trkpt lat="47.491182" lon="7.770222">
        <ele>483.531863</ele>
        <time>2021-11-14T23:27:31.367Z</time>
      </trkpt>
      <trkpt lat="47.492020" lon="7.770184">
        <ele>479.007131</ele>
        <time>2021-11-14T23:27:38.876Z</time>
      </trkpt>
      <trkpt lat="47.492137" lon="7.770169">
        <ele>478.417176</ele>
        <time>2021-11-14T23:27:39.994Z</time>
      </trkpt>
      <trkpt lat="47.492295" lon="7.770100">
        <ele>477.589623</ele>
        <time>2021-11-14T23:27:41.542Z</time>
      </trkpt>
      <trkpt lat="47.492435" lon="7.770039">
        <ele>476.856481</ele>
        <time>2021-11-14T23:27:42.945Z</time>
      </trkpt>
      <trkpt lat="47.492661" lon="7.769832">
        <ele>475.521328</ele>
        <time>2021-11-14T23:27:45.557Z</time>
      </trkpt>
      <trkpt lat="47.492753" lon="7.769701">
        <ele>474.879988</ele>
        <time>2021-11-14T23:27:46.998Z</time>
      </trkpt>
      <trkpt lat="47.492853" lon="7.769527">
        <ele>474.104629</ele>
        <time>2021-11-14T23:27:48.685Z</time>
      </trkpt>
      <trkpt lat="47.492868" lon="7.769486">
        <ele>473.946371</ele>
        <time>2021-11-14T23:27:49.019Z</time>
      </trkpt>
      <trkpt lat="47.493003" lon="7.769128">
        <ele>473.112548</ele>
        <time>2021-11-14T23:27:52.866Z</time>
      </trkpt>
      <trkpt lat="47.493049" lon="7.768906">
        <ele>472.702416</ele>
        <time>2021-11-14T23:27:55.031Z</time>
      </trkpt>
      <trkpt lat="47.493059" lon="7.768825">
        <ele>472.556980</ele>
        <time>2021-11-14T23:27:55.979Z</time>
      </trkpt>
      <trkpt lat="47.493070" lon="7.768289">
        <ele>471.609830</ele>
        <time>2021-11-14T23:28:01.258Z</time>
      </trkpt>
      <trkpt lat="47.493062" lon="7.767908">
        <ele>470.936562</ele>
        <time>2021-11-14T23:28:04.332Z</time>
      </trkpt>
      <trkpt lat="47.493026" lon="7.766838">
        <ele>469.044325</ele>
        <time>2021-11-14T23:28:11.672Z</time>
      </trkpt>
      <trkpt lat="47.492990" lon="7.765695">
        <ele>459.620449</ele>
        <time>2021-11-14T23:28:18.385Z</time>
      </trkpt>
      <trkpt lat="47.493004" lon="7.765343">
        <ele>456.683892</ele>
        <time>2021-11-14T23:28:20.378Z</time>
      </trkpt>
      <trkpt lat="47.493034" lon="7.765217">
        <ele>455.571312</ele>
        <time>2021-11-14T23:28:21.188Z</time>
      </trkpt>
      <trkpt lat="47.493099" lon="7.764952">
        <ele>453.223458</ele>
        <time>2021-11-14T23:28:22.747Z</time>
      </trkpt>
      <trkpt lat="47.493263" lon="7.764681">
        <ele>450.193678</ele>
        <time>2021-11-14T23:28:24.774Z</time>
      </trkpt>
      <trkpt lat="47.493540" lon="7.764515">
        <ele>446.424874</ele>
        <time>2021-11-14T23:28:27.283Z</time>
      </trkpt>
      <trkpt lat="47.493590" lon="7.764507">
        <ele>445.647767</ele>
        <time>2021-11-14T23:28:27.711Z</time>
      </trkpt>
      <trkpt lat="47.493680" lon="7.764500">
        <ele>444.255156</ele>
        <time>2021-11-14T23:28:28.452Z</time>
      </trkpt>
      <trkpt lat="47.493931" lon="7.764617">
        <ele>440.188856</ele>
        <time>2021-11-14T23:28:30.633Z</time>
      </trkpt>
      <trkpt lat="47.494264" lon="7.764935">
        <ele>434.065162</ele>
        <time>2021-11-14T23:28:33.898Z</time>
      </trkpt>
      <trkpt lat="47.494492" lon="7.765172">
        <ele>429.759970</ele>
        <time>2021-11-14T23:28:36.272Z</time>
      </trkpt>
      <trkpt lat="47.494591" lon="7.765251">
        <ele>428.022026</ele>
        <time>2021-11-14T23:28:37.206Z</time>
      </trkpt>
      <trkpt lat="47.495053" lon="7.765476">
        <ele>420.506590</ele>
        <time>2021-11-14T23:28:41.250Z</time>
      </trkpt>
      <trkpt lat="47.495769" lon="7.765706">
        <ele>412.157860</ele>
        <time>2021-11-14T23:28:47.545Z</time>
      </trkpt>
      <trkpt lat="47.496105" lon="7.765775">
        <ele>408.495062</ele>
        <time>2021-11-14T23:28:50.439Z</time>
      </trkpt>
      <trkpt lat="47.496330" lon="7.765821">
        <ele>406.042501</ele>
        <time>2021-11-14T23:28:52.382Z</time>
      </trkpt>
      <trkpt lat="47.496588" lon="7.765860">
        <ele>403.242192</ele>
        <time>2021-11-14T23:28:54.645Z</time>
      </trkpt>
      <trkpt lat="47.496750" lon="7.765887">
        <ele>401.481902</ele>
        <time>2021-11-14T23:28:56.032Z</time>
      </trkpt>
      <trkpt lat="47.496969" lon="7.765900">
        <ele>399.237009</ele>
        <time>2021-11-14T23:28:57.935Z</time>
      </trkpt>
      <trkpt lat="47.497210" lon="7.765902">
        <ele>397.246905</ele>
        <time>2021-11-14T23:29:00.009Z</time>
      </trkpt>
      <trkpt lat="47.497498" lon="7.765897">
        <ele>394.868564</ele>
        <time>2021-11-14T23:29:02.477Z</time>
      </trkpt>
      <trkpt lat="47.497754" lon="7.765880">
        <ele>392.752501</ele>
        <time>2021-11-14T23:29:04.713Z</time>
      </trkpt>
      <trkpt lat="47.497754" lon="7.765880">
        <ele>392.752501</ele>
        <time>2021-11-14T23:29:04.723Z</time>
      </trkpt>
      <trkpt lat="47.497958" lon="7.765844">
        <ele>391.056028</ele>
        <time>2021-11-14T23:29:06.571Z</time>
      </trkpt>
      <trkpt lat="47.498155" lon="7.765801">
        <ele>389.411695</ele>
        <time>2021-11-14T23:29:08.314Z</time>
      </trkpt>
      <trkpt lat="47.498351" lon="7.765739">
        <ele>387.756664</ele>
        <time>2021-11-14T23:29:10.145Z</time>
      </trkpt>
      <trkpt lat="47.498586" lon="7.765657">
        <ele>385.762943</ele>
        <time>2021-11-14T23:29:12.304Z</time>
      </trkpt>
      <trkpt lat="47.498800" lon="7.765582">
        <ele>384.392092</ele>
        <time>2021-11-14T23:29:14.287Z</time>
      </trkpt>
      <trkpt lat="47.499360" lon="7.765292">
        <ele>382.109967</ele>
        <time>2021-11-14T23:29:19.837Z</time>
      </trkpt>
      <trkpt lat="47.499422" lon="7.765260">
        <ele>381.857395</ele>
        <time>2021-11-14T23:29:20.455Z</time>
      </trkpt>
      <trkpt lat="47.499820" lon="7.764998">
        <ele>380.181872</ele>
        <time>2021-11-14T23:29:24.786Z</time>
      </trkpt>
      <trkpt lat="47.499963" lon="7.764903">
        <ele>379.578947</ele>
        <time>2021-11-14T23:29:26.385Z</time>
      </trkpt>
      <trkpt lat="47.500387" lon="7.764595">
        <ele>377.852212</ele>
        <time>2021-11-14T23:29:31.819Z</time>
      </trkpt>
      <trkpt lat="47.500727" lon="7.764330">
        <ele>377.712457</ele>
        <time>2021-11-14T23:29:36.872Z</time>
      </trkpt>
      <trkpt lat="47.500820" lon="7.764278">
        <ele>377.676299</ele>
        <time>2021-11-14T23:29:37.990Z</time>
      </trkpt>
      <trkpt lat="47.501035" lon="7.764209">
        <ele>377.596286</ele>
        <time>2021-11-14T23:29:41.534Z</time>
      </trkpt>
      <trkpt lat="47.501196" lon="7.764236">
        <ele>377.537355</ele>
        <time>2021-11-14T23:29:43.815Z</time>
      </trkpt>
      <trkpt lat="47.501281" lon="7.764267">
        <ele>377.505516</ele>
        <time>2021-11-14T23:29:45.100Z</time>
      </trkpt>
      <trkpt lat="47.501345" lon="7.764315">
        <ele>377.479421</ele>
        <time>2021-11-14T23:29:46.037Z</time>
      </trkpt>
      <trkpt lat="47.501402" lon="7.764367">
        <ele>377.455069</ele>
        <time>2021-11-14T23:29:47.414Z</time>
      </trkpt>
      <trkpt lat="47.501717" lon="7.764903">
        <ele>377.280512</ele>
        <time>2021-11-14T23:29:54.137Z</time>
      </trkpt>
      <trkpt lat="47.501785" lon="7.764941">
        <ele>377.254076</ele>
        <time>2021-11-14T23:29:55.454Z</time>
      </trkpt>
      <trkpt lat="47.501861" lon="7.764937">
        <ele>377.226417</ele>
        <time>2021-11-14T23:29:56.485Z</time>
      </trkpt>
      <trkpt lat="47.502299" lon="7.764761">
        <ele>376.763665</ele>
        <time>2021-11-14T23:30:03.852Z</time>
      </trkpt>
      <trkpt lat="47.502400" lon="7.764717">
        <ele>376.647347</ele>
        <time>2021-11-14T23:30:05.380Z</time>
      </trkpt>
      <trkpt lat="47.502578" lon="7.764620">
        <ele>376.437787</ele>
        <time>2021-11-14T23:30:08.005Z</time>
      </trkpt>
      <trkpt lat="47.503736" lon="7.764325">
        <ele>374.978213</ele>
        <time>2021-11-14T23:30:21.533Z</time>
      </trkpt>
      <trkpt lat="47.504400" lon="7.764478">
        <ele>372.750424</ele>
        <time>2021-11-14T23:30:28.200Z</time>
      </trkpt>
      <trkpt lat="47.505115" lon="7.765011">
        <ele>370.096486</ele>
        <time>2021-11-14T23:30:35.970Z</time>
      </trkpt>
      <trkpt lat="47.506143" lon="7.764883">
        <ele>366.976570</ele>
        <time>2021-11-14T23:30:46.821Z</time>
      </trkpt>
      <trkpt lat="47.506301" lon="7.764884">
        <ele>366.513675</ele>
        <time>2021-11-14T23:30:48.364Z</time>
      </trkpt>
      <trkpt lat="47.506377" lon="7.764894">
        <ele>366.290142</ele>
        <time>2021-11-14T23:30:49.294Z</time>
      </trkpt>
      <trkpt lat="47.506619" lon="7.764938">
        <ele>365.575831</ele>
        <time>2021-11-14T23:30:51.949Z</time>
      </trkpt>
      <trkpt lat="47.506716" lon="7.764971">
        <ele>365.284244</ele>
        <time>2021-11-14T23:30:52.974Z</time>
      </trkpt>
      <trkpt lat="47.506870" lon="7.765037">
        <ele>364.814546</ele>
        <time>2021-11-14T23:30:54.799Z</time>
      </trkpt>
      <trkpt lat="47.507429" lon="7.765409">
        <ele>362.525044</ele>
        <time>2021-11-14T23:31:00.788Z</time>
      </trkpt>
      <trkpt lat="47.507506" lon="7.765470">
        <ele>362.138766</ele>
        <time>2021-11-14T23:31:01.713Z</time>
      </trkpt>
      <trkpt lat="47.507650" lon="7.765503">
        <ele>361.494253</ele>
        <time>2021-11-14T23:31:03.066Z</time>
      </trkpt>
      <trkpt lat="47.507977" lon="7.765561">
        <ele>360.037555</ele>
        <time>2021-11-14T23:31:06.286Z</time>
      </trkpt>
      <trkpt lat="47.508137" lon="7.765584">
        <ele>359.326530</ele>
        <time>2021-11-14T23:31:07.851Z</time>
      </trkpt>
      <trkpt lat="47.508322" lon="7.765556">
        <ele>358.503991</ele>
        <time>2021-11-14T23:31:09.620Z</time>
      </trkpt>
      <trkpt lat="47.508744" lon="7.765478">
        <ele>356.622950</ele>
        <time>2021-11-14T23:31:13.614Z</time>
      </trkpt>
      <trkpt lat="47.508693" lon="7.765219">
        <ele>355.835168</ele>
        <time>2021-11-14T23:31:16.061Z</time>
      </trkpt>
      <trkpt lat="47.508640" lon="7.764678">
        <ele>354.340186</ele>
        <time>2021-11-14T23:31:20.947Z</time>
      </trkpt>
      <trkpt lat="47.508609" lon="7.764531">
        <ele>353.919040</ele>
        <time>2021-11-14T23:31:22.282Z</time>
      </trkpt>
      <trkpt lat="47.508587" lon="7.764464">
        <ele>353.715309</ele>
        <time>2021-11-14T23:31:22.993Z</time>
      </trkpt>
      <trkpt lat="47.508566" lon="7.764388">
        <ele>353.490750</ele>
        <time>2021-11-14T23:31:23.837Z</time>
      </trkpt>
      <trkpt lat="47.508640" lon="7.764363">
        <ele>353.183450</ele>
        <time>2021-11-14T23:31:24.877Z</time>
      </trkpt>
      <trkpt lat="47.509093" lon="7.764071">
        <ele>351.183119</ele>
        <time>2021-11-14T23:31:31.772Z</time>
      </trkpt>
      <trkpt lat="47.509205" lon="7.763997">
        <ele>350.686564</ele>
        <time>2021-11-14T23:31:33.530Z</time>
      </trkpt>
      <trkpt lat="47.509344" lon="7.763865">
        <ele>350.017979</ele>
        <time>2021-11-14T23:31:36.020Z</time>
      </trkpt>
      <trkpt lat="47.509486" lon="7.763744">
        <ele>349.354647</ele>
        <time>2021-11-14T23:31:38.379Z</time>
      </trkpt>
      <trkpt lat="47.509528" lon="7.763651">
        <ele>349.048710</ele>
        <time>2021-11-14T23:31:39.861Z</time>
      </trkpt>
      <trkpt lat="47.509577" lon="7.763264">
        <ele>348.345813</ele>
        <time>2021-11-14T23:31:43.740Z</time>
      </trkpt>
      <trkpt lat="47.509487" lon="7.762907">
        <ele>347.804228</ele>
        <time>2021-11-14T23:31:47.872Z</time>
      </trkpt>
      <trkpt lat="47.509821" lon="7.762738">
        <ele>347.061531</ele>
        <time>2021-11-14T23:31:51.823Z</time>
      </trkpt>
      <trkpt lat="47.509914" lon="7.762697">
        <ele>346.857353</ele>
        <time>2021-11-14T23:31:52.834Z</time>
      </trkpt>
      <trkpt lat="47.510055" lon="7.762636">
        <ele>346.548261</ele>
        <time>2021-11-14T23:31:54.544Z</time>
      </trkpt>
      <trkpt lat="47.510389" lon="7.762733">
        <ele>345.832083</ele>
        <time>2021-11-14T23:31:58.456Z</time>
      </trkpt>
      <trkpt lat="47.510823" lon="7.762808">
        <ele>344.911836</ele>
        <time>2021-11-14T23:32:03.198Z</time>
      </trkpt>
      <trkpt lat="47.511022" lon="7.762848">
        <ele>344.482519</ele>
        <time>2021-11-14T23:32:05.341Z</time>
      </trkpt>
      <trkpt lat="47.511165" lon="7.762840">
        <ele>344.176601</ele>
        <time>2021-11-14T23:32:06.816Z</time>
      </trkpt>
      <trkpt lat="47.511316" lon="7.762702">
        <ele>343.797250</ele>
        <time>2021-11-14T23:32:08.727Z</time>
      </trkpt>
      <trkpt lat="47.511378" lon="7.762637">
        <ele>343.634843</ele>
        <time>2021-11-14T23:32:09.546Z</time>
      </trkpt>
      <trkpt lat="47.511448" lon="7.762547">
        <ele>343.436648</ele>
        <time>2021-11-14T23:32:10.515Z</time>
      </trkpt>
      <trkpt lat="47.511669" lon="7.762441">
        <ele>342.940029</ele>
        <time>2021-11-14T23:32:13.030Z</time>
      </trkpt>
      <trkpt lat="47.511856" lon="7.762402">
        <ele>342.536321</ele>
        <time>2021-11-14T23:32:15.029Z</time>
      </trkpt>
      <trkpt lat="47.512053" lon="7.762337">
        <ele>342.104851</ele>
        <time>2021-11-14T23:32:17.236Z</time>
      </trkpt>
      <trkpt lat="47.512768" lon="7.762032">
        <ele>340.631437</ele>
        <time>2021-11-14T23:32:25.606Z</time>
      </trkpt>
      <trkpt lat="47.512915" lon="7.761964">
        <ele>340.365856</ele>
        <time>2021-11-14T23:32:27.285Z</time>
      </trkpt>
      <trkpt lat="47.513579" lon="7.761207">
        <ele>338.920683</ele>
        <time>2021-11-14T23:32:40.923Z</time>
      </trkpt>
      <trkpt lat="47.513698" lon="7.761024">
        <ele>338.624807</ele>
        <time>2021-11-14T23:32:43.691Z</time>
      </trkpt>
      <trkpt lat="47.513823" lon="7.760801">
        <ele>338.287277</ele>
        <time>2021-11-14T23:32:46.850Z</time>
      </trkpt>
      <trkpt lat="47.513925" lon="7.760568">
        <ele>337.960223</ele>
        <time>2021-11-14T23:32:49.771Z</time>
      </trkpt>
      <trkpt lat="47.514223" lon="7.759880">
        <ele>336.945155</ele>
        <time>2021-11-14T23:32:58.660Z</time>
      </trkpt>
      <trkpt lat="47.514516" lon="7.759245">
        <ele>335.990057</ele>
        <time>2021-11-14T23:33:06.968Z</time>
      </trkpt>
      <trkpt lat="47.514759" lon="7.758843">
        <ele>335.320046</ele>
        <time>2021-11-14T23:33:12.803Z</time>
      </trkpt>
      <trkpt lat="47.515414" lon="7.757832">
        <ele>333.667897</ele>
        <time>2021-11-14T23:33:27.778Z</time>
      </trkpt>
      <trkpt lat="47.515839" lon="7.757283">
        <ele>332.711183</ele>
        <time>2021-11-14T23:33:36.750Z</time>
      </trkpt>
      <trkpt lat="47.516601" lon="7.756475">
        <ele>331.463683</ele>
        <time>2021-11-14T23:33:52.221Z</time>
      </trkpt>
      <trkpt lat="47.517965" lon="7.755391">
        <ele>330.619825</ele>
        <time>2021-11-14T23:34:20.194Z</time>
      </trkpt>
      <trkpt lat="47.519292" lon="7.754521">
        <ele>332.205134</ele>
        <time>2021-11-14T23:34:58.098Z</time>
      </trkpt>
      <trkpt lat="47.519450" lon="7.754470">
        <ele>332.381782</ele>
        <time>2021-11-14T23:35:01.790Z</time>
      </trkpt>
      <trkpt lat="47.519496" lon="7.754474">
        <ele>332.432117</ele>
        <time>2021-11-14T23:35:03.784Z</time>
      </trkpt>
      <trkpt lat="47.519558" lon="7.754516">
        <ele>332.506595</ele>
        <time>2021-11-14T23:35:05.450Z</time>
      </trkpt>
      <trkpt lat="47.519690" lon="7.754273">
        <ele>332.552504</ele>
        <time>2021-11-14T23:35:08.991Z</time>
      </trkpt>
      <trkpt lat="47.519771" lon="7.754124">
        <ele>332.578446</ele>
        <time>2021-11-14T23:35:12.324Z</time>
      </trkpt>
      <trkpt lat="47.520081" lon="7.753575">
        <ele>332.675501</ele>
        <time>2021-11-14T23:35:20.695Z</time>
      </trkpt>
      <trkpt lat="47.520500" lon="7.752840">
        <ele>332.805951</ele>
        <time>2021-11-14T23:35:31.270Z</time>
      </trkpt>
      <trkpt lat="47.520691" lon="7.752581">
        <ele>332.857962</ele>
        <time>2021-11-14T23:35:34.482Z</time>
      </trkpt>
      <trkpt lat="47.521128" lon="7.752139">
        <ele>331.733280</ele>
        <time>2021-11-14T23:35:40.247Z</time>
      </trkpt>
      <trkpt lat="47.522153" lon="7.751504">
        <ele>328.971054</ele>
        <time>2021-11-14T23:35:51.835Z</time>
      </trkpt>
      <trkpt lat="47.522660" lon="7.751079">
        <ele>327.157146</ele>
        <time>2021-11-14T23:35:57.683Z</time>
      </trkpt>
      <trkpt lat="47.523810" lon="7.749861">
        <ele>322.178858</ele>
        <time>2021-11-14T23:36:11.662Z</time>
      </trkpt>
      <trkpt lat="47.524595" lon="7.748826">
        <ele>318.917196</ele>
        <time>2021-11-14T23:36:22.272Z</time>
      </trkpt>
      <trkpt lat="47.524786" lon="7.748513">
        <ele>318.036846</ele>
        <time>2021-11-14T23:36:25.179Z</time>
      </trkpt>
      <trkpt lat="47.524939" lon="7.748210">
        <ele>317.247320</ele>
        <time>2021-11-14T23:36:27.902Z</time>
      </trkpt>
      <trkpt lat="47.525034" lon="7.748003">
        <ele>316.725037</ele>
        <time>2021-11-14T23:36:29.678Z</time>
      </trkpt>
      <trkpt lat="47.525102" lon="7.747843">
        <ele>316.374387</ele>
        <time>2021-11-14T23:36:31.081Z</time>
      </trkpt>
      <trkpt lat="47.525175" lon="7.747653">
        <ele>316.030154</ele>
        <time>2021-11-14T23:36:32.582Z</time>
      </trkpt>
      <trkpt lat="47.525493" lon="7.746648">
        <ele>314.282454</ele>
        <time>2021-11-14T23:36:40.464Z</time>
      </trkpt>
      <trkpt lat="47.525698" lon="7.745676">
        <ele>312.678937</ele>
        <time>2021-11-14T23:36:47.917Z</time>
      </trkpt>
      <trkpt lat="47.525754" lon="7.745361">
        <ele>312.217416</ele>
        <time>2021-11-14T23:36:50.321Z</time>
      </trkpt>
      <trkpt lat="47.525761" lon="7.745310">
        <ele>312.163765</ele>
        <time>2021-11-14T23:36:50.708Z</time>
      </trkpt>
      <trkpt lat="47.525817" lon="7.744920">
        <ele>311.752726</ele>
        <time>2021-11-14T23:36:53.762Z</time>
      </trkpt>
      <trkpt lat="47.525836" lon="7.744800">
        <ele>311.625663</ele>
        <time>2021-11-14T23:36:54.675Z</time>
      </trkpt>
      <trkpt lat="47.525969" lon="7.743974">
        <ele>310.750269</ele>
        <time>2021-11-14T23:37:01.225Z</time>
      </trkpt>
      <trkpt lat="47.526222" lon="7.742784">
        <ele>309.513828</ele>
        <time>2021-11-14T23:37:11.113Z</time>
      </trkpt>
      <trkpt lat="47.526782" lon="7.740808">
        <ele>308.352140</ele>
        <time>2021-11-14T23:37:29.047Z</time>
      </trkpt>
      <trkpt lat="47.527038" lon="7.739424">
        <ele>308.373745</ele>
        <time>2021-11-14T23:37:42.646Z</time>
      </trkpt>
      <trkpt lat="47.527065" lon="7.739188">
        <ele>308.432355</ele>
        <time>2021-11-14T23:37:45.487Z</time>
      </trkpt>
      <trkpt lat="47.527103" lon="7.738847">
        <ele>308.516981</ele>
        <time>2021-11-14T23:37:49.471Z</time>
      </trkpt>
      <trkpt lat="47.527103" lon="7.738848">
        <ele>308.517225</ele>
        <time>2021-11-14T23:37:49.504Z</time>
      </trkpt>
      <trkpt lat="47.527103" lon="7.738847">
        <ele>308.517470</ele>
        <time>2021-11-14T23:37:49.509Z</time>
      </trkpt>
      <trkpt lat="47.527349" lon="7.738840">
        <ele>308.606692</ele>
        <time>2021-11-14T23:37:54.087Z</time>
      </trkpt>
      <trkpt lat="47.527567" lon="7.738827">
        <ele>308.685807</ele>
        <time>2021-11-14T23:37:58.113Z</time>
      </trkpt>
      <trkpt lat="47.527841" lon="7.738820">
        <ele>308.790477</ele>
        <time>2021-11-14T23:38:02.884Z</time>
      </trkpt>
      <trkpt lat="47.528292" lon="7.738774">
        <ele>309.063345</ele>
        <time>2021-11-14T23:38:13.823Z</time>
      </trkpt>
      <trkpt lat="47.528341" lon="7.738762">
        <ele>309.093323</ele>
        <time>2021-11-14T23:38:14.810Z</time>
      </trkpt>
      <trkpt lat="47.528601" lon="7.738620">
        <ele>309.260591</ele>
        <time>2021-11-14T23:38:20.180Z</time>
      </trkpt>
      <trkpt lat="47.528842" lon="7.738378">
        <ele>309.436342</ele>
        <time>2021-11-14T23:38:25.531Z</time>
      </trkpt>
      <trkpt lat="47.528896" lon="7.738303">
        <ele>309.481027</ele>
        <time>2021-11-14T23:38:27.172Z</time>
      </trkpt>
      <trkpt lat="47.528997" lon="7.738134">
        <ele>309.573010</ele>
        <time>2021-11-14T23:38:29.520Z</time>
      </trkpt>
      <trkpt lat="47.529534" lon="7.737005">
        <ele>309.886158</ele>
        <time>2021-11-14T23:38:43.188Z</time>
      </trkpt>
      <trkpt lat="47.529603" lon="7.736896">
        <ele>309.891353</ele>
        <time>2021-11-14T23:38:44.338Z</time>
      </trkpt>
      <trkpt lat="47.529741" lon="7.736731">
        <ele>309.900486</ele>
        <time>2021-11-14T23:38:46.541Z</time>
      </trkpt>
      <trkpt lat="47.530193" lon="7.736351">
        <ele>309.927250</ele>
        <time>2021-11-14T23:38:53.606Z</time>
      </trkpt>
      <trkpt lat="47.530882" lon="7.735983">
        <ele>310.347736</ele>
        <time>2021-11-14T23:39:06.427Z</time>
      </trkpt>
      <trkpt lat="47.531325" lon="7.735684">
        <ele>311.385394</ele>
        <time>2021-11-14T23:39:16.539Z</time>
      </trkpt>
      <trkpt lat="47.531389" lon="7.735745">
        <ele>311.547613</ele>
        <time>2021-11-14T23:39:19.285Z</time>
      </trkpt>
      <trkpt lat="47.531710" lon="7.735855">
        <ele>312.249883</ele>
        <time>2021-11-14T23:39:27.071Z</time>
      </trkpt>
      <trkpt lat="47.531874" lon="7.736048">
        <ele>312.696353</ele>
        <time>2021-11-14T23:39:32.409Z</time>
      </trkpt>
      <trkpt lat="47.533153" lon="7.739664">
        <ele>319.113933</ele>
        <time>2021-11-14T23:40:44.868Z</time>
      </trkpt>
      <trkpt lat="47.533191" lon="7.739816">
        <ele>319.188120</ele>
        <time>2021-11-14T23:40:47.051Z</time>
      </trkpt>
      <trkpt lat="47.533352" lon="7.740430">
        <ele>319.489600</ele>
        <time>2021-11-14T23:40:54.245Z</time>
      </trkpt>
      <trkpt lat="47.533707" lon="7.742025">
        <ele>319.802167</ele>
        <time>2021-11-14T23:41:09.245Z</time>
      </trkpt>
      <trkpt lat="47.533870" lon="7.743466">
        <ele>319.124487</ele>
        <time>2021-11-14T23:41:21.324Z</time>
      </trkpt>
      <trkpt lat="47.534043" lon="7.744207">
        <ele>318.788093</ele>
        <time>2021-11-14T23:41:28.407Z</time>
      </trkpt>
      <trkpt lat="47.534097" lon="7.744343">
        <ele>318.771479</ele>
        <time>2021-11-14T23:41:29.855Z</time>
      </trkpt>
      <trkpt lat="47.534179" lon="7.744495">
        <ele>318.750991</ele>
        <time>2021-11-14T23:41:31.734Z</time>
      </trkpt>
      <trkpt lat="47.534370" lon="7.744709">
        <ele>318.713638</ele>
        <time>2021-11-14T23:41:35.028Z</time>
      </trkpt>
      <trkpt lat="47.534429" lon="7.744856">
        <ele>318.695631</ele>
        <time>2021-11-14T23:41:36.790Z</time>
      </trkpt>
      <trkpt lat="47.534874" lon="7.746551">
        <ele>318.537714</ele>
        <time>2021-11-14T23:41:54.340Z</time>
      </trkpt>
      <trkpt lat="47.535912" lon="7.749669">
        <ele>319.236008</ele>
        <time>2021-11-14T23:42:32.680Z</time>
      </trkpt>
      <trkpt lat="47.537134" lon="7.752309">
        <ele>320.119727</ele>
        <time>2021-11-14T23:43:06.833Z</time>
      </trkpt>
      <trkpt lat="47.537371" lon="7.752851">
        <ele>320.362220</ele>
        <time>2021-11-14T23:43:13.482Z</time>
      </trkpt>
      <trkpt lat="47.537564" lon="7.753073">
        <ele>320.498140</ele>
        <time>2021-11-14T23:43:17.297Z</time>
      </trkpt>
      <trkpt lat="47.537715" lon="7.753194">
        <ele>320.710693</ele>
        <time>2021-11-14T23:43:21.141Z</time>
      </trkpt>
      <trkpt lat="47.538052" lon="7.753460">
        <ele>322.114327</ele>
        <time>2021-11-14T23:43:30.226Z</time>
      </trkpt>
      <trkpt lat="47.538359" lon="7.753900">
        <ele>323.684553</ele>
        <time>2021-11-14T23:43:41.457Z</time>
      </trkpt>
      <trkpt lat="47.538494" lon="7.754103">
        <ele>324.391663</ele>
        <time>2021-11-14T23:43:47.262Z</time>
      </trkpt>
      <trkpt lat="47.538723" lon="7.754445">
        <ele>325.586984</ele>
        <time>2021-11-14T23:43:57.455Z</time>
      </trkpt>
      <trkpt lat="47.538792" lon="7.754549">
        <ele>325.948827</ele>
        <time>2021-11-14T23:44:01.317Z</time>
      </trkpt>
      <trkpt lat="47.539079" lon="7.754976">
        <ele>327.548114</ele>
        <time>2021-11-14T23:44:17.015Z</time>
      </trkpt>
      <trkpt lat="47.539230" lon="7.755294">
        <ele>328.899277</ele>
        <time>2021-11-14T23:44:27.676Z</time>
      </trkpt>
      <trkpt lat="47.539346" lon="7.755736">
        <ele>330.547367</ele>
        <time>2021-11-14T23:44:40.966Z</time>
      </trkpt>
      <trkpt lat="47.539595" lon="7.757548">
        <ele>336.418083</ele>
        <time>2021-11-14T23:45:24.889Z</time>
      </trkpt>
      <trkpt lat="47.539722" lon="7.758107">
        <ele>336.319483</ele>
        <time>2021-11-14T23:45:33.896Z</time>
      </trkpt>
      <trkpt lat="47.539949" lon="7.758688">
        <ele>336.207262</ele>
        <time>2021-11-14T23:45:41.109Z</time>
      </trkpt>
      <trkpt lat="47.540447" lon="7.759585">
        <ele>336.013112</ele>
        <time>2021-11-14T23:45:49.632Z</time>
      </trkpt>
      <trkpt lat="47.540567" lon="7.759901">
        <ele>334.864728</ele>
        <time>2021-11-14T23:45:52.018Z</time>
      </trkpt>
      <trkpt lat="47.540921" lon="7.761599">
        <ele>327.493113</ele>
        <time>2021-11-14T23:46:03.141Z</time>
      </trkpt>
      <trkpt lat="47.541004" lon="7.762306">
        <ele>324.283537</ele>
        <time>2021-11-14T23:46:07.361Z</time>
      </trkpt>
      <trkpt lat="47.541023" lon="7.762922">
        <ele>320.339300</ele>
        <time>2021-11-14T23:46:10.945Z</time>
      </trkpt>
      <trkpt lat="47.541219" lon="7.763853">
        <ele>314.101482</ele>
        <time>2021-11-14T23:46:16.568Z</time>
      </trkpt>
      <trkpt lat="47.541334" lon="7.764020">
        <ele>312.575598</ele>
        <time>2021-11-14T23:46:18.035Z</time>
      </trkpt>
      <trkpt lat="47.541377" lon="7.764045">
        <ele>312.137911</ele>
        <time>2021-11-14T23:46:18.407Z</time>
      </trkpt>
      <trkpt lat="47.541364" lon="7.764150">
        <ele>311.455101</ele>
        <time>2021-11-14T23:46:19.019Z</time>
      </trkpt>
      <trkpt lat="47.541443" lon="7.764512">
        <ele>309.021667</ele>
        <time>2021-11-14T23:46:21.329Z</time>
      </trkpt>
      <trkpt lat="47.541552" lon="7.764869">
        <ele>307.146595</ele>
        <time>2021-11-14T23:46:23.623Z</time>
      </trkpt>
      <trkpt lat="47.541697" lon="7.765479">
        <ele>304.890514</ele>
        <time>2021-11-14T23:46:27.505Z</time>
      </trkpt>
      <trkpt lat="47.542317" lon="7.768533">
        <ele>296.926695</ele>
        <time>2021-11-14T23:46:48.979Z</time>
      </trkpt>
      <trkpt lat="47.542450" lon="7.769311">
        <ele>295.954405</ele>
        <time>2021-11-14T23:46:56.693Z</time>
      </trkpt>
      <trkpt lat="47.542720" lon="7.770771">
        <ele>295.646289</ele>
        <time>2021-11-14T23:47:13.237Z</time>
      </trkpt>
      <trkpt lat="47.543108" lon="7.773069">
        <ele>296.133367</ele>
        <time>2021-11-14T23:47:40.089Z</time>
      </trkpt>
      <trkpt lat="47.543145" lon="7.773277">
        <ele>296.154322</ele>
        <time>2021-11-14T23:47:42.215Z</time>
      </trkpt>
      <trkpt lat="47.543350" lon="7.774507">
        <ele>296.277748</ele>
        <time>2021-11-14T23:47:54.678Z</time>
      </trkpt>
      <trkpt lat="47.543402" lon="7.775016">
        <ele>296.369530</ele>
        <time>2021-11-14T23:47:59.742Z</time>
      </trkpt>
      <trkpt lat="47.543449" lon="7.775478">
        <ele>296.667956</ele>
        <time>2021-11-14T23:48:04.435Z</time>
      </trkpt>
      <trkpt lat="47.543482" lon="7.776095">
        <ele>297.063288</ele>
        <time>2021-11-14T23:48:11.143Z</time>
      </trkpt>
      <trkpt lat="47.543527" lon="7.776532">
        <ele>297.345642</ele>
        <time>2021-11-14T23:48:16.301Z</time>
      </trkpt>
      <trkpt lat="47.543707" lon="7.777394">
        <ele>297.921968</ele>
        <time>2021-11-14T23:48:28.588Z</time>
      </trkpt>
      <trkpt lat="47.543933" lon="7.778374">
        <ele>300.640019</ele>
        <time>2021-11-14T23:48:46.915Z</time>
      </trkpt>
      <trkpt lat="47.544100" lon="7.779438">
        <ele>303.895062</ele>
        <time>2021-11-14T23:49:11.115Z</time>
      </trkpt>
      <trkpt lat="47.544461" lon="7.782254">
        <ele>313.606417</ele>
        <time>2021-11-14T23:50:31.717Z</time>
      </trkpt>
      <trkpt lat="47.544469" lon="7.782455">
        <ele>314.314851</ele>
        <time>2021-11-14T23:50:36.750Z</time>
      </trkpt>
      <trkpt lat="47.544474" lon="7.782623">
        <ele>314.906523</ele>
        <time>2021-11-14T23:50:39.138Z</time>
      </trkpt>
      <trkpt lat="47.544490" lon="7.783060">
        <ele>314.613319</ele>
        <time>2021-11-14T23:50:43.029Z</time>
      </trkpt>
      <trkpt lat="47.544555" lon="7.783372">
        <ele>313.863401</ele>
        <time>2021-11-14T23:50:45.514Z</time>
      </trkpt>
      <trkpt lat="47.544627" lon="7.783499">
        <ele>313.482496</ele>
        <time>2021-11-14T23:50:46.911Z</time>
      </trkpt>
      <trkpt lat="47.544950" lon="7.784008">
        <ele>311.878024</ele>
        <time>2021-11-14T23:50:53.723Z</time>
      </trkpt>
      <trkpt lat="47.545054" lon="7.784227">
        <ele>311.263054</ele>
        <time>2021-11-14T23:50:56.295Z</time>
      </trkpt>
      <trkpt lat="47.545240" lon="7.784746">
        <ele>309.913506</ele>
        <time>2021-11-14T23:51:01.450Z</time>
      </trkpt>
      <trkpt lat="47.545250" lon="7.784778">
        <ele>309.832520</ele>
        <time>2021-11-14T23:51:01.724Z</time>
      </trkpt>
      <trkpt lat="47.545624" lon="7.785548">
        <ele>306.912294</ele>
        <time>2021-11-14T23:51:09.887Z</time>
      </trkpt>
      <trkpt lat="47.545672" lon="7.785654">
        <ele>306.480121</ele>
        <time>2021-11-14T23:51:10.896Z</time>
      </trkpt>
      <trkpt lat="47.545856" lon="7.785973">
        <ele>305.059431</ele>
        <time>2021-11-14T23:51:14.737Z</time>
      </trkpt>
      <trkpt lat="47.546102" lon="7.786217">
        <ele>303.574483</ele>
        <time>2021-11-14T23:51:18.719Z</time>
      </trkpt>
      <trkpt lat="47.546417" lon="7.786331">
        <ele>301.947990</ele>
        <time>2021-11-14T23:51:23.284Z</time>
      </trkpt>
      <trkpt lat="47.546464" lon="7.786335">
        <ele>301.711851</ele>
        <time>2021-11-14T23:51:24.044Z</time>
      </trkpt>
      <trkpt lat="47.546526" lon="7.786353">
        <ele>301.394945</ele>
        <time>2021-11-14T23:51:25.040Z</time>
      </trkpt>
      <trkpt lat="47.546913" lon="7.786470">
        <ele>300.138732</ele>
        <time>2021-11-14T23:51:31.193Z</time>
      </trkpt>
      <trkpt lat="47.546952" lon="7.786540">
        <ele>300.116378</ele>
        <time>2021-11-14T23:51:32.131Z</time>
      </trkpt>
      <trkpt lat="47.546959" lon="7.786598">
        <ele>300.101867</ele>
        <time>2021-11-14T23:51:32.833Z</time>
      </trkpt>
      <trkpt lat="47.546897" lon="7.787133">
        <ele>299.968181</ele>
        <time>2021-11-14T23:51:39.964Z</time>
      </trkpt>
      <trkpt lat="47.546825" lon="7.787708">
        <ele>299.824156</ele>
        <time>2021-11-14T23:51:47.913Z</time>
      </trkpt>
      <trkpt lat="47.546695" lon="7.788763">
        <ele>299.560039</ele>
        <time>2021-11-14T23:52:03.058Z</time>
      </trkpt>
      <trkpt lat="47.546673" lon="7.788921">
        <ele>299.589325</ele>
        <time>2021-11-14T23:52:05.562Z</time>
      </trkpt>
      <trkpt lat="47.546325" lon="7.791470">
        <ele>301.265846</ele>
        <time>2021-11-14T23:52:48.499Z</time>
      </trkpt>
      <trkpt lat="47.546253" lon="7.791998">
        <ele>301.416663</ele>
        <time>2021-11-14T23:52:57.660Z</time>
      </trkpt>
      <trkpt lat="47.546027" lon="7.793254">
        <ele>301.780601</ele>
        <time>2021-11-14T23:53:17.879Z</time>
      </trkpt>
      <trkpt lat="47.545969" lon="7.793663">
        <ele>301.897614</ele>
        <time>2021-11-14T23:53:23.241Z</time>
      </trkpt>
      <trkpt lat="47.545935" lon="7.794220">
        <ele>301.972437</ele>
        <time>2021-11-14T23:53:30.224Z</time>
      </trkpt>
      <trkpt lat="47.545921" lon="7.794468">
        <ele>301.918257</ele>
        <time>2021-11-14T23:53:33.303Z</time>
      </trkpt>
      <trkpt lat="47.545947" lon="7.794710">
        <ele>301.864909</ele>
        <time>2021-11-14T23:53:36.138Z</time>
      </trkpt>
      <trkpt lat="47.546019" lon="7.795020">
        <ele>301.793537</ele>
        <time>2021-11-14T23:53:40.162Z</time>
      </trkpt>
      <trkpt lat="47.546165" lon="7.795511">
        <ele>301.676732</ele>
        <time>2021-11-14T23:53:47.166Z</time>
      </trkpt>
      <trkpt lat="47.546170" lon="7.795612">
        <ele>301.654684</ele>
        <time>2021-11-14T23:53:48.211Z</time>
      </trkpt>
      <trkpt lat="47.546154" lon="7.795747">
        <ele>301.624845</ele>
        <time>2021-11-14T23:53:50.026Z</time>
      </trkpt>
      <trkpt lat="47.546105" lon="7.795928">
        <ele>301.582389</ele>
        <time>2021-11-14T23:53:53.228Z</time>
      </trkpt>
      <trkpt lat="47.546038" lon="7.796107">
        <ele>301.537829</ele>
        <time>2021-11-14T23:53:55.531Z</time>
      </trkpt>
      <trkpt lat="47.545889" lon="7.796500">
        <ele>301.439699</ele>
        <time>2021-11-14T23:54:02.426Z</time>
      </trkpt>
      <trkpt lat="47.545788" lon="7.796748">
        <ele>301.438711</ele>
        <time>2021-11-14T23:54:06.032Z</time>
      </trkpt>
      <trkpt lat="47.545728" lon="7.796950">
        <ele>301.448628</ele>
        <time>2021-11-14T23:54:09.429Z</time>
      </trkpt>
      <trkpt lat="47.545689" lon="7.797076">
        <ele>301.454857</ele>
        <time>2021-11-14T23:54:10.872Z</time>
      </trkpt>
      <trkpt lat="47.545670" lon="7.797142">
        <ele>301.458082</ele>
        <time>2021-11-14T23:54:11.894Z</time>
      </trkpt>
      <trkpt lat="47.545645" lon="7.797258">
        <ele>301.463553</ele>
        <time>2021-11-14T23:54:13.604Z</time>
      </trkpt>
      <trkpt lat="47.545637" lon="7.797310">
        <ele>301.465950</ele>
        <time>2021-11-14T23:54:14.948Z</time>
      </trkpt>
      <trkpt lat="47.545630" lon="7.797375">
        <ele>301.468908</ele>
        <time>2021-11-14T23:54:15.981Z</time>
      </trkpt>
      <trkpt lat="47.545558" lon="7.798144">
        <ele>301.503795</ele>
        <time>2021-11-14T23:54:26.283Z</time>
      </trkpt>
      <trkpt lat="47.545511" lon="7.798680">
        <ele>301.528083</ele>
        <time>2021-11-14T23:54:34.349Z</time>
      </trkpt>
      <trkpt lat="47.545581" lon="7.798713">
        <ele>301.532973</ele>
        <time>2021-11-14T23:54:35.819Z</time>
      </trkpt>
      <trkpt lat="47.545731" lon="7.798810">
        <ele>301.543869</ele>
        <time>2021-11-14T23:54:39.927Z</time>
      </trkpt>
      <trkpt lat="47.545807" lon="7.798846">
        <ele>301.536938</ele>
        <time>2021-11-14T23:54:41.254Z</time>
      </trkpt>
      <trkpt lat="47.545949" lon="7.798877">
        <ele>301.459826</ele>
        <time>2021-11-14T23:54:44.135Z</time>
      </trkpt>
      <trkpt lat="47.546418" lon="7.798980">
        <ele>301.205105</ele>
        <time>2021-11-14T23:54:53.245Z</time>
      </trkpt>
      <trkpt lat="47.547540" lon="7.799538">
        <ele>300.576834</ele>
        <time>2021-11-14T23:55:13.876Z</time>
      </trkpt>
      <trkpt lat="47.547912" lon="7.799646">
        <ele>300.498982</ele>
        <time>2021-11-14T23:55:21.289Z</time>
      </trkpt>
      <trkpt lat="47.548459" lon="7.799691">
        <ele>300.386469</ele>
        <time>2021-11-14T23:55:32.227Z</time>
      </trkpt>
      <trkpt lat="47.548535" lon="7.799720">
        <ele>300.370351</ele>
        <time>2021-11-14T23:55:33.747Z</time>
      </trkpt>
      <trkpt lat="47.548514" lon="7.799795">
        <ele>300.359096</ele>
        <time>2021-11-14T23:55:34.811Z</time>
      </trkpt>
      <trkpt lat="47.548519" lon="7.799896">
        <ele>300.345057</ele>
        <time>2021-11-14T23:55:36.166Z</time>
      </trkpt>
      <trkpt lat="47.548545" lon="7.800404">
        <ele>300.274436</ele>
        <time>2021-11-14T23:55:42.957Z</time>
      </trkpt>
      <trkpt lat="47.548560" lon="7.800672">
        <ele>300.237158</ele>
        <time>2021-11-14T23:55:46.649Z</time>
      </trkpt>
      <trkpt lat="47.548569" lon="7.800838">
        <ele>300.214073</ele>
        <time>2021-11-14T23:55:48.893Z</time>
      </trkpt>
      <trkpt lat="47.548576" lon="7.800968">
        <ele>300.200146</ele>
        <time>2021-11-14T23:55:50.669Z</time>
      </trkpt>
      <trkpt lat="47.548596" lon="7.801213">
        <ele>300.174740</ele>
        <time>2021-11-14T23:55:54.048Z</time>
      </trkpt>
      <trkpt lat="47.548607" lon="7.801690">
        <ele>300.125606</ele>
        <time>2021-11-14T23:56:00.548Z</time>
      </trkpt>
      <trkpt lat="47.548626" lon="7.802129">
        <ele>300.080319</ele>
        <time>2021-11-14T23:56:06.467Z</time>
      </trkpt>
      <trkpt lat="47.548877" lon="7.802168">
        <ele>300.041826</ele>
        <time>2021-11-14T23:56:11.459Z</time>
      </trkpt>
      <trkpt lat="47.549410" lon="7.802226">
        <ele>299.960313</ele>
        <time>2021-11-14T23:56:21.873Z</time>
      </trkpt>
      <trkpt lat="47.549481" lon="7.802234">
        <ele>299.949453</ele>
        <time>2021-11-14T23:56:23.211Z</time>
      </trkpt>
      <trkpt lat="47.549879" lon="7.802247">
        <ele>299.827711</ele>
        <time>2021-11-14T23:56:30.677Z</time>
      </trkpt>
      <trkpt lat="47.550146" lon="7.802262">
        <ele>299.736267</ele>
        <time>2021-11-14T23:56:35.746Z</time>
      </trkpt>
      <trkpt lat="47.550134" lon="7.803051">
        <ele>299.553965</ele>
        <time>2021-11-14T23:56:45.975Z</time>
      </trkpt>
      <trkpt lat="47.550196" lon="7.803120">
        <ele>299.527427</ele>
        <time>2021-11-14T23:56:47.434Z</time>
      </trkpt>
      <trkpt lat="47.550981" lon="7.803132">
        <ele>299.379208</ele>
        <time>2021-11-14T23:57:02.081Z</time>
      </trkpt>
      <trkpt lat="47.551163" lon="7.803129">
        <ele>299.435138</ele>
        <time>2021-11-14T23:57:05.462Z</time>
      </trkpt>
      <trkpt lat="47.551163" lon="7.803129">
        <ele>299.435138</ele>
        <time>2021-11-14T23:57:05.489Z</time>
      </trkpt>
      <trkpt lat="47.551598" lon="7.803160">
        <ele>299.568964</ele>
        <time>2021-11-14T23:57:14.081Z</time>
      </trkpt>
      <trkpt lat="47.551666" lon="7.803144">
        <ele>299.590122</ele>
        <time>2021-11-14T23:57:18.826Z</time>
      </trkpt>
      <trkpt lat="47.551732" lon="7.803125">
        <ele>299.610782</ele>
        <time>2021-11-14T23:57:23.492Z</time>
      </trkpt>
      <trkpt lat="47.551744" lon="7.803277">
        <ele>299.642522</ele>
        <time>2021-11-14T23:57:25.173Z</time>
      </trkpt>
      <trkpt lat="47.551751" lon="7.803369">
        <ele>299.661723</ele>
        <time>2021-11-14T23:57:26.265Z</time>
      </trkpt>
      <trkpt lat="47.551692" lon="7.803510">
        <ele>299.696130</ele>
        <time>2021-11-14T23:57:28.859Z</time>
      </trkpt>
      <trkpt lat="47.551741" lon="7.804294">
        <ele>299.859426</ele>
        <time>2021-11-14T23:57:41.860Z</time>
      </trkpt>
      <trkpt lat="47.551744" lon="7.804473">
        <ele>299.921058</ele>
        <time>2021-11-14T23:57:44.396Z</time>
      </trkpt>
      <trkpt lat="47.551731" lon="7.804667">
        <ele>300.007272</ele>
        <time>2021-11-14T23:57:48.376Z</time>
      </trkpt>
      <trkpt lat="47.551709" lon="7.805000">
        <ele>300.155238</ele>
        <time>2021-11-14T23:57:52.868Z</time>
      </trkpt>
      <trkpt lat="47.551681" lon="7.805477">
        <ele>300.366978</ele>
        <time>2021-11-14T23:58:00.604Z</time>
      </trkpt>
      <trkpt lat="47.551671" lon="7.806117">
        <ele>300.650081</ele>
        <time>2021-11-14T23:58:10.693Z</time>
      </trkpt>
      <trkpt lat="47.551651" lon="7.806246">
        <ele>300.708615</ele>
        <time>2021-11-14T23:58:13.596Z</time>
      </trkpt>
      <trkpt lat="47.551895" lon="7.806278">
        <ele>300.869115</ele>
        <time>2021-11-14T23:58:17.122Z</time>
      </trkpt>
      <trkpt lat="47.552015" lon="7.806307">
        <ele>300.948782</ele>
        <time>2021-11-14T23:58:19.992Z</time>
      </trkpt>
      <trkpt lat="47.552068" lon="7.806445">
        <ele>301.018998</ele>
        <time>2021-11-14T23:58:21.449Z</time>
      </trkpt>
      <trkpt lat="47.552398" lon="7.808880">
        <ele>300.391885</ele>
        <time>2021-11-14T23:58:43.592Z</time>
      </trkpt>
      <trkpt lat="47.552566" lon="7.810386">
        <ele>299.767642</ele>
        <time>2021-11-14T23:58:56.603Z</time>
      </trkpt>
      <trkpt lat="47.552711" lon="7.812955">
        <ele>298.682926</ele>
        <time>2021-11-14T23:59:19.511Z</time>
      </trkpt>
      <trkpt lat="47.552813" lon="7.815608">
        <ele>297.787059</ele>
        <time>2021-11-14T23:59:42.681Z</time>
      </trkpt>
      <trkpt lat="47.552844" lon="7.816432">
        <ele>297.576926</ele>
        <time>2021-11-14T23:59:50.131Z</time>
      </trkpt>
      <trkpt lat="47.552948" lon="7.819358">
        <ele>297.806591</ele>
        <time>2021-11-15T00:00:20.651Z</time>
      </trkpt>
      <trkpt lat="47.552896" lon="7.820699">
        <ele>298.343795</ele>
        <time>2021-11-15T00:00:36.735Z</time>
      </trkpt>
      <trkpt lat="47.552567" lon="7.824508">
        <ele>300.238516</ele>
        <time>2021-11-15T00:01:23.219Z</time>
      </trkpt>
      <trkpt lat="47.552491" lon="7.827227">
        <ele>301.655063</ele>
        <time>2021-11-15T00:01:54.959Z</time>
      </trkpt>
      <trkpt lat="47.552515" lon="7.828094">
        <ele>302.377345</ele>
        <time>2021-11-15T00:02:06.669Z</time>
      </trkpt>
      <trkpt lat="47.552477" lon="7.828294">
        <ele>302.633423</ele>
        <time>2021-11-15T00:02:09.286Z</time>
      </trkpt>
      <trkpt lat="47.552421" lon="7.828481">
        <ele>302.885566</ele>
        <time>2021-11-15T00:02:12.218Z</time>
      </trkpt>
      <trkpt lat="47.552404" lon="7.828582">
        <ele>303.013859</ele>
        <time>2021-11-15T00:02:13.902Z</time>
      </trkpt>
      <trkpt lat="47.552416" lon="7.828822">
        <ele>303.310466</ele>
        <time>2021-11-15T00:02:17.136Z</time>
      </trkpt>
      <trkpt lat="47.552554" lon="7.829266">
        <ele>303.912926</ele>
        <time>2021-11-15T00:02:24.487Z</time>
      </trkpt>
      <trkpt lat="47.552645" lon="7.830686">
        <ele>305.819494</ele>
        <time>2021-11-15T00:02:47.786Z</time>
      </trkpt>
      <trkpt lat="47.552690" lon="7.832598">
        <ele>308.920815</ele>
        <time>2021-11-15T00:03:19.645Z</time>
      </trkpt>
      <trkpt lat="47.552649" lon="7.832760">
        <ele>309.201280</ele>
        <time>2021-11-15T00:03:22.231Z</time>
      </trkpt>
      <trkpt lat="47.552616" lon="7.832891">
        <ele>309.427947</ele>
        <time>2021-11-15T00:03:24.397Z</time>
      </trkpt>
      <trkpt lat="47.552556" lon="7.832977">
        <ele>309.605648</ele>
        <time>2021-11-15T00:03:27.115Z</time>
      </trkpt>
      <trkpt lat="47.552508" lon="7.832936">
        <ele>309.710806</ele>
        <time>2021-11-15T00:03:28.491Z</time>
      </trkpt>
      <trkpt lat="47.552458" lon="7.832824">
        <ele>309.882822</ele>
        <time>2021-11-15T00:03:30.957Z</time>
      </trkpt>
      <trkpt lat="47.552368" lon="7.832305">
        <ele>310.569244</ele>
        <time>2021-11-15T00:03:41.530Z</time>
      </trkpt>
      <trkpt lat="47.552251" lon="7.831814">
        <ele>311.236256</ele>
        <time>2021-11-15T00:03:51.653Z</time>
      </trkpt>
      <trkpt lat="47.552135" lon="7.831524">
        <ele>311.668083</ele>
        <time>2021-11-15T00:03:58.515Z</time>
      </trkpt>
      <trkpt lat="47.552065" lon="7.831350">
        <ele>311.927567</ele>
        <time>2021-11-15T00:04:01.914Z</time>
      </trkpt>
      <trkpt lat="47.551640" lon="7.830558">
        <ele>312.984860</ele>
        <time>2021-11-15T00:04:20.372Z</time>
      </trkpt>
      <trkpt lat="47.550675" lon="7.828955">
        <ele>313.471539</ele>
        <time>2021-11-15T00:04:52.074Z</time>
      </trkpt>
      <trkpt lat="47.550522" lon="7.828744">
        <ele>313.517495</ele>
        <time>2021-11-15T00:04:55.977Z</time>
      </trkpt>
      <trkpt lat="47.550183" lon="7.828277">
        <ele>312.811283</ele>
        <time>2021-11-15T00:05:03.623Z</time>
      </trkpt>
      <trkpt lat="47.549105" lon="7.827067">
        <ele>310.781148</ele>
        <time>2021-11-15T00:05:24.968Z</time>
      </trkpt>
      <trkpt lat="47.548679" lon="7.826710">
        <ele>310.581719</ele>
        <time>2021-11-15T00:05:33.156Z</time>
      </trkpt>
      <trkpt lat="47.548237" lon="7.826410">
        <ele>310.383614</ele>
        <time>2021-11-15T00:05:41.896Z</time>
      </trkpt>
      <trkpt lat="47.547666" lon="7.826091">
        <ele>310.134953</ele>
        <time>2021-11-15T00:05:54.356Z</time>
      </trkpt>
      <trkpt lat="47.547233" lon="7.825872">
        <ele>310.535301</ele>
        <time>2021-11-15T00:06:05.957Z</time>
      </trkpt>
      <trkpt lat="47.546693" lon="7.825618">
        <ele>311.515852</ele>
        <time>2021-11-15T00:06:21.271Z</time>
      </trkpt>
      <trkpt lat="47.546589" lon="7.825597">
        <ele>311.697508</ele>
        <time>2021-11-15T00:06:24.255Z</time>
      </trkpt>
      <trkpt lat="47.546580" lon="7.825972">
        <ele>312.135863</ele>
        <time>2021-11-15T00:06:31.286Z</time>
      </trkpt>
      <trkpt lat="47.546574" lon="7.826239">
        <ele>312.447946</ele>
        <time>2021-11-15T00:06:36.556Z</time>
      </trkpt>
      <trkpt lat="47.546592" lon="7.826850">
        <ele>313.162400</ele>
        <time>2021-11-15T00:06:48.335Z</time>
      </trkpt>
      <trkpt lat="47.546721" lon="7.828140">
        <ele>315.089633</ele>
        <time>2021-11-15T00:07:14.598Z</time>
      </trkpt>
      <trkpt lat="47.546823" lon="7.829336">
        <ele>316.873868</ele>
        <time>2021-11-15T00:07:37.974Z</time>
      </trkpt>
      <trkpt lat="47.546946" lon="7.830852">
        <ele>318.899601</ele>
        <time>2021-11-15T00:08:07.218Z</time>
      </trkpt>
      <trkpt lat="47.547020" lon="7.831965">
        <ele>320.362647</ele>
        <time>2021-11-15T00:08:28.055Z</time>
      </trkpt>
      <trkpt lat="47.547190" lon="7.835066">
        <ele>324.123081</ele>
        <time>2021-11-15T00:09:25.146Z</time>
      </trkpt>
      <trkpt lat="47.547240" lon="7.836221">
        <ele>325.581833</ele>
        <time>2021-11-15T00:09:46.621Z</time>
      </trkpt>
      <trkpt lat="47.547276" lon="7.837287">
        <ele>326.927098</ele>
        <time>2021-11-15T00:10:06.731Z</time>
      </trkpt>
      <trkpt lat="47.547300" lon="7.838688">
        <ele>328.479107</ele>
        <time>2021-11-15T00:10:33.478Z</time>
      </trkpt>
      <trkpt lat="47.547332" lon="7.840572">
        <ele>330.189554</ele>
        <time>2021-11-15T00:11:06.122Z</time>
      </trkpt>
      <trkpt lat="47.547339" lon="7.841072">
        <ele>330.355121</ele>
        <time>2021-11-15T00:11:13.902Z</time>
      </trkpt>
      <trkpt lat="47.547362" lon="7.841665">
        <ele>330.551766</ele>
        <time>2021-11-15T00:11:22.666Z</time>
      </trkpt>
      <trkpt lat="47.547448" lon="7.842262">
        <ele>330.753861</ele>
        <time>2021-11-15T00:11:31.055Z</time>
      </trkpt>
      <trkpt lat="47.547386" lon="7.842644">
        <ele>330.883932</ele>
        <time>2021-11-15T00:11:36.274Z</time>
      </trkpt>
      <trkpt lat="47.547354" lon="7.842839">
        <ele>330.953643</ele>
        <time>2021-11-15T00:11:38.934Z</time>
      </trkpt>
      <trkpt lat="47.547313" lon="7.843735">
        <ele>331.288962</ele>
        <time>2021-11-15T00:11:51.271Z</time>
      </trkpt>
      <trkpt lat="47.547295" lon="7.844722">
        <ele>331.657626</ele>
        <time>2021-11-15T00:12:06.019Z</time>
      </trkpt>
      <trkpt lat="47.547274" lon="7.845536">
        <ele>332.060201</ele>
        <time>2021-11-15T00:12:19.454Z</time>
      </trkpt>
      <trkpt lat="47.547124" lon="7.848795">
        <ele>336.173557</ele>
        <time>2021-11-15T00:13:21.608Z</time>
      </trkpt>
      <trkpt lat="47.547143" lon="7.849985">
        <ele>337.723147</ele>
        <time>2021-11-15T00:13:44.459Z</time>
      </trkpt>
      <trkpt lat="47.547141" lon="7.850355">
        <ele>338.204832</ele>
        <time>2021-11-15T00:13:51.559Z</time>
      </trkpt>
      <trkpt lat="47.546945" lon="7.851719">
        <ele>339.241692</ele>
        <time>2021-11-15T00:14:16.092Z</time>
      </trkpt>
      <trkpt lat="47.546582" lon="7.856413">
        <ele>340.680073</ele>
        <time>2021-11-15T00:15:24.404Z</time>
      </trkpt>
      <trkpt lat="47.546537" lon="7.857497">
        <ele>340.876404</ele>
        <time>2021-11-15T00:15:39.711Z</time>
      </trkpt>
      <trkpt lat="47.546487" lon="7.859119">
        <ele>341.173678</ele>
        <time>2021-11-15T00:16:03.159Z</time>
      </trkpt>
      <trkpt lat="47.546526" lon="7.861665">
        <ele>341.389728</ele>
        <time>2021-11-15T00:16:40.333Z</time>
      </trkpt>
      <trkpt lat="47.546592" lon="7.863006">
        <ele>340.551099</ele>
        <time>2021-11-15T00:16:56.800Z</time>
      </trkpt>
      <trkpt lat="47.546877" lon="7.864345">
        <ele>339.378960</ele>
        <time>2021-11-15T00:17:11.970Z</time>
      </trkpt>
      <trkpt lat="47.546885" lon="7.864500">
        <ele>339.169828</ele>
        <time>2021-11-15T00:17:13.649Z</time>
      </trkpt>
      <trkpt lat="47.546894" lon="7.864837">
        <ele>338.716102</ele>
        <time>2021-11-15T00:17:17.128Z</time>
      </trkpt>
      <trkpt lat="47.546889" lon="7.865225">
        <ele>338.194025</ele>
        <time>2021-11-15T00:17:21.249Z</time>
      </trkpt>
      <trkpt lat="47.546819" lon="7.865489">
        <ele>337.812442</ele>
        <time>2021-11-15T00:17:24.327Z</time>
      </trkpt>
      <trkpt lat="47.546510" lon="7.865766">
        <ele>337.092607</ele>
        <time>2021-11-15T00:17:30.021Z</time>
      </trkpt>
      <trkpt lat="47.546327" lon="7.865959">
        <ele>336.644890</ele>
        <time>2021-11-15T00:17:33.353Z</time>
      </trkpt>
      <trkpt lat="47.546096" lon="7.866147">
        <ele>336.275443</ele>
        <time>2021-11-15T00:17:37.419Z</time>
      </trkpt>
      <trkpt lat="47.545240" lon="7.866887">
        <ele>335.655312</ele>
        <time>2021-11-15T00:17:54.092Z</time>
      </trkpt>
      <trkpt lat="47.545160" lon="7.866985">
        <ele>335.590358</ele>
        <time>2021-11-15T00:17:56.048Z</time>
      </trkpt>
      <trkpt lat="47.545003" lon="7.867278">
        <ele>335.432355</ele>
        <time>2021-11-15T00:18:01.717Z</time>
      </trkpt>
      <trkpt lat="47.544568" lon="7.867693">
        <ele>335.475006</ele>
        <time>2021-11-15T00:18:14.507Z</time>
      </trkpt>
      <trkpt lat="47.544469" lon="7.867776">
        <ele>335.635200</ele>
        <time>2021-11-15T00:18:17.369Z</time>
      </trkpt>
      <trkpt lat="47.544410" lon="7.867825">
        <ele>335.730452</ele>
        <time>2021-11-15T00:18:19.458Z</time>
      </trkpt>
      <trkpt lat="47.544246" lon="7.867967">
        <ele>335.997960</ele>
        <time>2021-11-15T00:18:24.141Z</time>
      </trkpt>
      <trkpt lat="47.544214" lon="7.867988">
        <ele>336.047247</ele>
        <time>2021-11-15T00:18:24.989Z</time>
      </trkpt>
      <trkpt lat="47.543801" lon="7.868269">
        <ele>336.687263</ele>
        <time>2021-11-15T00:18:36.594Z</time>
      </trkpt>
      <trkpt lat="47.543657" lon="7.868359">
        <ele>336.907359</ele>
        <time>2021-11-15T00:18:40.947Z</time>
      </trkpt>
      <trkpt lat="47.543201" lon="7.868657">
        <ele>337.609229</ele>
        <time>2021-11-15T00:18:51.378Z</time>
      </trkpt>
      <trkpt lat="47.543105" lon="7.868711">
        <ele>337.753839</ele>
        <time>2021-11-15T00:18:54.026Z</time>
      </trkpt>
      <trkpt lat="47.543049" lon="7.868759">
        <ele>337.754267</ele>
        <time>2021-11-15T00:18:55.406Z</time>
      </trkpt>
      <trkpt lat="47.542722" lon="7.869201">
        <ele>337.754267</ele>
        <time>2021-11-15T00:19:05.005Z</time>
      </trkpt>
      <trkpt lat="47.542696" lon="7.869257">
        <ele>337.754267</ele>
        <time>2021-11-15T00:19:05.748Z</time>
      </trkpt>
      <trkpt lat="47.542657" lon="7.869354">
        <ele>337.754267</ele>
        <time>2021-11-15T00:19:07.156Z</time>
      </trkpt>
      <trkpt lat="47.542449" lon="7.869639">
        <ele>337.754267</ele>
        <time>2021-11-15T00:19:12.392Z</time>
      </trkpt>
    </trkseg>
  </trk>
</gpx>